     2              OBSERVATION DATA    GPS                 RINEX VERSION / TYPE
teqc 1997Jul24 19970902 21:04:25UTC                         PGM / RUN BY / DATE
                                                            COMMENT
BIT 2 OF LLI FLAGS DATA COLLECTED UNDER A-S CONDITION       COMMENT
BIT 2 OF LLI FLAGS DATA COLLECTED UNDER A-S CONDITION       COMMENT
Original Marker Name: MONU.55474                            COMMENT
Campaign Name: Salt. Tr. Crust. Monit. May-Jun 1986         COMMENT
4-Character Station Name: MONU                              COMMENT
6-Character Antenna Code: TI4100                            COMMENT
Vertical Measurement Point: PAE                             COMMENT
Vertical Offset to Rinex Ref. Point: 0.0000                 COMMENT
Radial Measurement Point: RRP                               COMMENT
Radial Offset to Rinex Ref. Point: 0.0000                   COMMENT
Antenna Height from Field Measurement: 1.4895 m             COMMENT
Original XYZ: -2383470.6478 -4801470.4849 3444653.2347      COMMENT
New XYZ position is based on association with SCEC monument COMMENT
E1C8W5H0+0011. Position of that monument is believed to be  COMMENT
valid to within 1 m horizontally; vertical accuracy         COMMENT
should be no worse than 3-times this value.                 COMMENT
                                                            COMMENT
Revised Rinex header created by UCSD GPS archive for        COMMENT
GSAC on 10-Apr-1999 (1999:100) 06:31:40 GMT                 COMMENT
For assistance contact dagnew@ucsd.edu or hjohnson@ucsd.edu COMMENT
                                                            COMMENT
MONUMENT PEAK NCMN 1983                                     MARKER NAME
05 NATIONAL GEODETIC SURVEY                                 OBSERVER / AGENCY
UT-33 TI 4100 1.0                                           REC # / TYPE / VERS
4091 TI 4100                                                ANT # / TYPE
 -2386290.0000 -4802346.0000  3444884.0000                  APPROX POSITION XYZ
        1.4895        0.0000        0.0000                  ANTENNA: DELTA H/E/N
     1     1     0                                          WAVELENGTH FACT L1/2
     4    P1    P2    L1    L2                              # / TYPES OF OBSERV
     6                                                      INTERVAL
  1986     6    19    22    54   24.000000                  TIME OF FIRST OBS
  1986     6    20     0    26   17.000000                  TIME OF LAST OBS
     0                                                      # OF SATELLITES
                                                            END OF HEADER
 86  6 19 22 54 24.1800000  0  1G11
  20648857.039    20648859.707      163549.391 8    -32013.281 7
 86  6 19 22 55 53.0800000  0  1G 6
                  20546748.294     -447055.693 8
 86  6 19 22 55 59.0800000  0  1G 6
                  20545123.032     -455592.863 7
 86  6 19 22 56  5.0800000  0  2G 6G11
                  20543533.763     -464121.128 6
                  20612391.835     -477401.746 6
 86  6 19 22 56 11.0800000  0  3G 6G 9G11
  20541911.962    20541933.912     -472640.942 9    802250.291 6
                  22885954.972     -526162.361 9
                  20610268.643     -488593.833 9
 86  6 19 22 56 17.0800000  0  4G 6G 8G 9G11
  20540292.890    20540293.784     -481152.062 9    795618.303 8
                  20564945.440     -344611.793 9
                  22882647.200     -543554.821 9
                  20608171.314     -499764.512 9
 86  6 19 22 56 23.0800000  0  4G 6G 8G 9G11
  20538674.417    20538675.681     -489654.553 9    788992.993 8
                  20566993.829     -333835.462 9
                  22879365.830     -560948.591 8
  20606049.638    20606050.290     -510913.287 9    881779.788 8
 86  6 19 22 56 29.0800000  0  4G 6G 8G 9G11
  20537058.055    20537059.247     -498148.345 9    782374.463 8
                  20569081.989     -323036.160 9
  22876055.783    22876063.036     -578342.344 9    930199.260 9
  20603931.620    20603932.224     -522040.420 9    873109.351 8
 86  6 19 22 56 35.0800000  0  4G 6G 8G 9G11
  20535442.981    20535445.399     -506633.465 9    775762.680 8
  20571142.289    20571142.213     -312212.528 9    982816.633 1
  22872747.209    22872747.420     -595736.809 9    916645.086 9
  20601818.236    20601820.050     -533145.958 9    864455.170 8
 86  6 19 22 56 41.0800000  0  4G 6G 8G 9G11
  20533830.340    20533831.818     -515109.902 9    769157.663 8
  20573206.505    20573208.817     -301365.148 9    991268.988 8
  22869435.772    22869438.416     -613131.858 9    903090.520 8
  20599708.504    20599710.126     -544229.739 9    855818.471 7
 86  6 19 22 56 47.0800000  0  4G 6G 8G 9G11
  20532218.944    20532219.878     -523577.581 9    762559.479 9
  20575275.644    20575276.450     -290494.202 9    999740.364 8
  22866124.746    22866127.456     -630527.472 9    889535.504 8
  20597603.598    20597605.318     -555291.767 9    847198.717 8
 86  6 19 22 56 53.0800000  0  4G 6G 8G 9G11
  20530609.398    20530610.743     -532036.470 9    755968.131 9
  20577348.874    20577349.886     -279599.567 9   1008229.688 8
  22862814.435    22862817.543     -647923.761 9    875979.963 8
  20595502.314    20595503.876     -566332.097 9    838595.872 8
 86  6 19 22 56 59.0800000  0  4G 6G 8G 9G11
  20529001.126    20529003.142     -540486.642 9    749383.594 8
  20579426.167    20579427.912     -268681.356 9   1016737.378 9
  22859503.965    22859506.057     -665320.648 9    862423.956 9
  20593405.125    20593408.747     -577350.678 9    830009.964 8
 86  6 19 22 57  5.0800000  0  4G 6G 8G 9G11
  20527395.837    20527395.574     -548927.999 9    742805.898 8
  20581507.955    20581509.985     -257739.540 9   1025263.467 7
  22856193.966    22856196.198     -682718.130 9    848867.489 8
  20591312.388    20591316.263     -588347.565 9    821440.961 7
 86  6 19 22 57 11.0800000  0  4G 6G 8G 9G11
  20525789.903    20525792.113     -557360.581 9    736235.061 8
  20583594.180    20583595.463     -246774.157 9   1033807.918 8
  22852883.299    22852885.378     -700116.153 9    835310.604 8
  20589223.526    20589227.172     -599322.675 9    812888.937 8
 86  6 19 22 57 17.0800000  0  4G 6G 8G 9G11
  20524186.541    20524188.902     -565784.280 9    729671.137 9
  20585685.325    20585688.014     -235785.193 9   1042370.744 9
  22849572.403    22849573.037     -717514.689 9    821753.310 8
  20587140.160    20587143.049     -610275.963 9    804353.902 8
 86  6 19 22 57 23.0800000  0  4G 6G 8G 9G11
                  20522587.473                      723114.149 8
  20587781.396    20587783.107     -224772.671 9   1050951.926 8
  22846261.771    22846262.565     -734913.794 9    808195.575 8
  20585060.342    20585063.290     -621207.443 9    795835.883 8
 86  6 19 22 57 29.0800000  0  4G 6G 8G 9G11
  20520985.832    20520988.059     -610561.068 1    716564.039 7
  20589881.871    20589882.910     -213736.655 9   1059551.415 7
  22842950.385    22842951.998     -752313.409 9    794637.453 8
  20582983.511    20582986.642     -632117.093 9    787334.857 7
 86  6 19 22 57 35.0800000  0  4G 6G 8G 9G11
  20519388.411    20519390.617     -618958.238 9    710020.788 9
  20591986.700    20591987.586     -202677.200 9   1068169.173 7
  22839639.019    22839640.970     -769713.492 9    781078.958 8
  20580912.393    20580914.814     -643004.926 9    778850.837 8
 86  6 19 22 57 41.0800000  0  4G 6G 8G 9G11
  20517792.839    20517793.904     -627346.457 9    703484.507 9
  20594095.902    20594096.385     -191594.228 9   1076805.251 8
  22836327.472    22836329.058     -787114.046 9    767520.088 7
  20578843.900    20578846.821     -653870.939 9    770383.817 8
 86  6 19 22 57 47.0800000  0  4G 6G 8G 9G11
  20516197.932    20516199.354     -635725.795 9    696955.157 9
  20596209.025    20596210.196     -180487.870 9   1085459.569 8
  22833016.715    22833017.940     -804515.195 9    753960.770 9
  20576780.002    20576784.719     -664715.186 8    761933.754 8
 86  6 19 22 57 53.0800000  0  4G 6G 8G 9G11
  20514605.839    20514606.626     -644096.208 9    690432.761 8
  20598326.815    20598328.370     -169358.071 9   1094132.120 8
  22829704.115    22829706.331     -821916.856 9    740401.038 9
  20574720.629    20574724.859     -675537.581 9    753500.724 9
 86  6 19 22 57 59.0800000  0  4G 6G 8G 9G11
  20513013.875    20513015.728     -652457.625 9    683917.364 9
  20600449.217    20600450.897     -158204.800 9   1102822.990 8
  22826393.035    22826394.873     -839318.943 9    726840.983 9
  20572665.079    20572669.436     -686338.085 9    745084.751 7
 86  6 19 22 58  5.0800000  0  4G 6G 8G 9G11
  20511424.533    20511426.321     -660810.116 9    677408.927 8
  20602575.962    20602577.756     -147028.176 9   1111532.045 8
  22823080.698    22823083.440     -856721.521 9    713280.542 8
  20570613.765    20570618.402     -697116.694 9    736685.843 8
 86  6 19 22 58 11.0800000  0  4G 6G 8G 9G11
  20972625.749    20972626.687     -669160.756 9    670920.874 8
  21067494.821    21067496.664     -135840.331 9   1120268.789 7
  23282558.665    23282560.060     -874129.362 9    699734.956 9
                  21031355.441     -707879.908 8
 86  6 19 22 58 17.0800000  0  4G 6G 8G 9G11
  20971039.597    20971041.174     -677495.301 9    664426.433 8
  21069630.096    21069631.337     -124617.007 9   1129014.236 8
  23279247.011    23279248.063     -891532.818 9    686173.836 8
  21029313.413    21029317.042     -718614.771 9    774649.551 1
 86  6 19 22 58 23.0800000  0  4G 6G 8G 9G11
  20969455.977    20969457.193     -685820.805 9    657939.030 8
  21071770.178    21071771.105     -113370.364 9   1137777.857 8
  23275935.177    23275935.791     -908936.740 9    672612.332 8
  21027274.787    21027277.188     -729327.765 9    766301.772 8
 86  6 19 22 58 29.0800000  0  4G 6G 8G 9G11
  20967872.165    20967874.077     -694137.292 9    651458.639 8
  21073914.439    21073914.264     -102100.409 9   1146559.628 8
  23272622.506    23272625.023     -926341.043 9    659050.547 8
  21025239.967    21025243.301     -740018.820 9    757971.589 8
 86  6 19 22 58 35.0800000  0  4G 6G 8G 9G11
  20966291.960    20966293.488     -702444.724 9    644985.306 8
  21076063.279    21076064.191      -90807.225 9   1155359.519 9
  23269312.066    23269312.652     -943745.775 9    645488.424 8
  21023210.713    21023212.462     -750687.920 9    749658.003 8
 86  6 19 22 58 41.0800000  0  4G 6G 8G 9G11
  20964712.225    20964713.907     -710743.133 9    638519.026 8
  21078217.099    21078217.711      -79490.737 9   1164177.554 8
  23265998.537    23266000.447     -961150.886 9    631926.018 8
  21021184.162    21021186.025     -761335.037 9    741361.556 8
 86  6 19 22 58 47.0800000  0  4G 6G 8G 9G11
  20963135.253    20963136.869     -719032.454 9    632059.801 8
  21080374.580    21080375.335      -68151.023 9   1173013.695 8
  23262686.875    23262688.964     -978556.376 9    618363.308 8
  21019162.172    21019164.860     -771960.181 9    733082.218 8
 86  6 19 22 58 53.0800000  0  4G 6G 8G 9G11
  20961559.398    20961560.912     -727312.710 9    625607.657 8
  21082536.785    21082538.957      -56788.086 9   1181867.928 8
  23259374.140    23259375.963     -995962.232 9    604800.315 8
  21017144.755    21017146.501     -782563.363 9    724819.991 8
 86  6 19 22 58 59.0800000  0  4G 6G 8G 9G11
  20959985.394    20959987.323     -735583.834 9    619162.622 9
  21084703.197    21084705.397      -45401.942 9   1190740.248 8
  23256062.856    23256062.892    -1013368.542 9    591236.958 8
  21015131.534    21015134.252     -793144.535 9    716574.933 7
 86  6 19 22 59  5.0800000  0  4G 6G 8G 9G11
  20958413.150    20958415.340     -743845.833 9    612724.701 8
  21086874.588    21086875.642      -33992.664 9   1199630.586 9
  23252749.634    23252750.014    -1030775.213 9    577673.329 8
  21013121.415    21013124.758     -803703.769 9    708346.950 8
 86  6 19 22 59 11.0800000  0  4G 6G 8G 9G11
  20956841.790    20956845.014     -752098.693 9    606293.899 8
  21089050.100    21089051.785      -22560.239 9   1208538.967 8
  23249437.800    23249438.079    -1048182.247 9    564109.414 8
  21011115.533    21011120.159     -814241.020 8    700136.112 9
 86  6 19 22 59 17.0800000  0  4G 6G 8G 9G11
  20955273.542    20955276.768     -760342.393 9    599870.228 9
  21091229.790    21091231.461      -11104.668 9   1217465.387 8
  23246124.950    23246125.602    -1065589.583 9    550545.269 8
  21009115.698    21009118.632     -824756.235 8    691942.432 8
 86  6 19 22 59 23.0800000  0  4G 6G 8G 9G11
  20953706.743    20953709.436     -768576.948 9    593453.697 9
  21093413.602    21093416.045         374.012 9   1226409.807 8
  23242812.472    23242812.637    -1082997.222 8    536980.870 9
  21007118.339    21007121.987     -835249.434 9    683765.916 8
 86  6 19 22 59 29.0800000  0  4G 6G 8G 9G11
  20952141.464    20952143.617     -776802.364 9    587044.275 9
  21095602.708    21095605.853       11875.718 9   1235372.168 9
  23239500.180    23239500.203    -1100405.289 9    523416.162 9
  21005124.904    21005129.833     -845720.648 8    675606.529 8
 86  6 19 22 59 35.0800000  0  4G 6G 8G 9G11
  20950578.066    20950580.348     -785018.585 9    580642.028 8
  21097795.906    21097798.620       23400.482 9   1244352.496 8
  23236186.565    23236187.752    -1117813.651 9    509851.211 8
  21003137.128    21003139.918     -856169.834 9    667464.318 8
 86  6 19 22 59 41.0800000  0  4G 6G 8G 9G11
  20949016.400    20949018.879     -793225.515 9    574247.017 8
  21099993.854    21099995.983       34948.309 9   1253350.799 9
  23232873.794    23232875.153    -1135222.250 9    496286.079 9
  21001152.697    21001156.704     -866596.926 9    659339.306 8
 86  6 19 22 59 47.0800000  0  4G 6G 8G 9G11
  20947456.005    20947458.600     -801423.270 9    567859.165 8
  21102195.582    21102197.553       46519.166 9   1262367.038 8
  23229561.245    23229562.262    -1152631.209 9    482720.659 5
  20999172.855    20999175.474     -877001.984 8    651231.473 8
 86  6 19 22 59 53.0800000  0  4G 6G 8G 9G11
  20945898.169    20945900.985     -809611.709 9    561478.554 8
  21104401.401    21104403.544       58112.973 9   1271401.173 9
  23226247.486    23226248.895    -1170040.483 9    469155.006 9
  20997195.782    20997199.692     -887384.934 8    643140.856 8
 86  6 19 22 59 59.0800000  0  4G 6G 8G 9G11
  20944341.984    20944343.326     -817790.924 9    555105.142 8
  21106612.486    21106614.057       69729.765 9   1280453.217 9
  23222935.437    23222936.260    -1187449.948 9    455589.185 9
  20995225.103    20995229.553     -897745.820 8    635067.446 7
 86  6 19 23  0  5.0800000  0  4G 6G 8G 9G11
  20942787.026    20942787.915     -825960.917 9    548738.923 8
  21108828.007    21108829.977       81369.498 9   1289523.135 8
  23219622.202    23219623.290    -1204859.744 9    442023.135 9
  20993256.559    20993260.556     -908084.628 8    627011.244 7
 86  6 19 23  0 11.0800000  0  4G 6G 8G 9G11
  20941234.346    20941235.513     -834121.641 9    542379.902 8
  21111047.762    21111048.990       93032.127 9   1298610.902 9
  23216308.708    23216309.587    -1222269.747 9    428456.911 8
  20991293.943    20991298.558     -918401.290 8    618972.276 8
 86  6 19 23  0 17.0800000  0  4G 6G 8G 9G11
  20939683.000    20939684.328     -842273.056 9    536028.159 8
  21113270.495    21113273.596      104717.654 9   1307716.503 8
  23212995.952    23212997.039    -1239679.978 9    414890.494 8
  20989334.316    20989338.128     -928695.807 8    610950.585 7
 86  6 19 23  0 23.0800000  0  4G 6G 8G 9G11
  20938133.194    20938135.369     -850415.024 9    529683.766 8
  21115499.180    21115500.679      116426.135 9   1316839.987 8
  23209683.287    23209683.860    -1257090.390 9    401323.950 8
  20987379.886    20987384.284     -938968.145 8    602946.165 7
 86  6 19 23  0 29.0800000  0  4G 6G 8G 9G11
  20936586.609    20936588.140     -858547.652 9    523346.657 8
  21117730.698    21117733.356      128157.493 9   1325981.305 9
  23206369.228    23206369.437    -1274501.073 8    387757.195 8
  20985430.112    20985433.996     -949218.305 8    594959.026 8
 86  6 19 23  0 35.0800000  0  4G 6G 8G 9G11
  20935039.646    20935041.942     -866670.981 9    517016.789 8
  21119966.709    21119969.481      139911.644 9   1335140.383 9
  23203056.343    23203057.194    -1291911.995 9    374190.248 9
  20983484.184    20983487.238     -959446.315 8    586989.142 7
 86  6 19 23  0 41.0800000  0  4G 6G 8G 9G11
  20933496.034    20933497.894     -874784.921 9    510694.245 8
  21122208.216    21122211.360      151688.578 9   1344317.208 9
  23199743.801    23199744.208    -1309323.032 8    360623.214 8
  20981542.333    20981545.027     -969652.171 8    579036.536 8
 86  6 19 23  0 47.0800000  0  4G 6G 8G 9G11
  20931953.732    20931954.731     -882889.488 9    504379.003 9
  21124453.041    21124457.573      163488.309 9   1353511.795 8
  23196429.850    23196431.572    -1326734.265 9    347056.034 9
  20979603.474    20979606.080     -979835.878 8    571101.186 8
 86  6 19 23  0 53.0800000  0  4G 6G 8G 9G11
  20930413.315    20930414.725     -890984.574 9    498071.139 8
  21126703.706    21126705.906      175310.851 9   1362724.170 9
  23193117.986    23193118.237    -1344145.758 9    333488.637 9
  20977668.949    20977674.554     -989997.435 8    563183.091 7
 86  6 19 23  0 59.0800000  0  4G 6G 8G 9G11
  20928875.421    20928876.014     -899070.221 9    491770.636 8
  21128957.517    21128959.905      187156.150 9   1371954.264 8
  23189803.769    23189804.056    -1361557.281 9    319921.233 8
  20975739.605    20975744.069    -1000136.803 9    555282.282 7
 86  6 19 23  1  5.0800000  0  4G 6G 8G 9G11
  20927337.603    20927339.356     -907146.436 9    485477.489 8
  21131216.052    21131218.466      199024.188 9   1381202.070 9
  23186490.791    23186491.299    -1378968.984 8    306353.692 8
  20973815.060    20973818.577    -1010253.939 9    547398.811 7
 86  6 19 23  1 11.0800000  0  4G 6G 8G 9G11
  20925802.360    20925803.872     -915213.200 9    479191.697 8
  21133479.194    21133481.808      210914.987 9   1390467.627 9
  23183176.746    23183177.662    -1396380.772 9    292786.057 8
  20971893.515    20971897.306    -1020348.854 8    539532.649 7
 86  6 19 23  1 17.0800000  0  4G 6G 8G 9G11
  20924269.330    20924270.447     -923270.456 9    472913.316 8
  21135745.655    21135748.927      222828.465 9   1399750.849 9
  23179863.574    23179864.884    -1413792.719 9    279218.303 8
  20969977.249    20969979.311    -1030421.485 9    531683.832 7
 86  6 19 23  1 23.0800000  0  4G 6G 8G 9G11
  20922737.595    20922739.825     -931318.202 9    466642.360 8
  21138017.439    21138019.452      234764.603 9   1409051.737 9
  23176549.723    23176551.418    -1431204.606 7    265650.615 9
  20968064.822    20968068.263    -1040471.849 8    523852.398 7
 86  6 19 23  1 29.0800000  0  4G 6G 8G 9G11
  20921207.618    20921208.795     -939356.366 9    460378.846 8
  21140292.686    21140295.129      246723.424 9   1418370.288 9
  23173236.115    23173237.418    -1448616.680 8    252082.788 8
  20966156.556    20966160.014    -1050499.928 8    516038.301 7
 86  6 19 23  1 35.0800000  0  4G 6G 8G 9G11
  20919680.987    20919680.626     -947385.014 9    454122.765 7
  21142571.940    21142575.413      258704.840 9   1427706.449 9
  23169921.848    23169925.274    -1466028.859 9    238514.851 9
  20964252.552    20964255.604    -1060505.734 9    508241.585 7
 86  6 19 23  1 41.0800000  0  4G 6G 8G 9G11
  20918154.062    20918155.975     -955404.210 9    447874.050 9
  21144857.805    21144859.246      270708.818 9   1437060.198 7
  23166609.006    23166610.709    -1483441.231 8    224946.785 8
  20962352.692    20962354.974    -1070489.325 9    500462.156 6
 86  6 19 23  1 47.0800000  0  4G 6G 8G 9G11
  20916629.402    20916630.744     -963413.814 9    441632.792 7
  21147145.616    21147148.273      282735.405 9   1446431.566 8
  23163294.789    23163296.677    -1500853.571 9    211378.737 8
  20960458.143    20960459.066    -1080450.645 9    492700.095 6
 86  6 19 23  1 53.0800000  0  4G 6G 8G 9G11
  20915107.781    20915108.824     -971413.782 9    435399.059 8
  21149439.264    21149440.820      294784.546 9   1455820.500 8
  23159981.245    23159983.908    -1518265.889 9    197810.702 9
  20958566.354    20958567.823    -1090389.678 9    484955.400 7
 86  6 19 23  1 59.0800000  0  4G 6G 8G 9G11
  20913586.759    20913588.333     -979404.165 9    429172.783 8
  21151736.261    21151738.604      306856.209 9   1465226.991 9
  23156668.151    23156671.951    -1535678.296 8    184242.608 9
  20956679.433    20956679.363    -1100306.395 9    477228.087 6
 86  6 19 23  2  5.0800000  0  4G 6G 8G 9G11
  20912068.343    20912069.463     -987384.989 9    422953.969 8
  21154037.351    21154040.310      318950.407 9   1474651.036 8
  23153354.479    23153357.085    -1553090.721 9    170674.482 9
  20954796.050    20954796.869    -1110200.796 9    469518.159 7
 86  6 19 23  2 11.0800000  0  4G 6G 8G 9G11
  20910552.034    20910553.569     -995356.234 9    416742.604 8
                  21156342.347      331066.952 8
  23150039.854    23150043.812    -1570503.264 8    157106.284 8
  20952917.313    20952919.639    -1120072.983 8    461825.541 8
 86  6 19 23  2 17.0800000  0  4G 6G 8G 9G11
  20909036.525    20909038.199    -1003317.699 9    410538.863 8
  21158652.051    21158656.500      343206.085 8   1530188.036 1
  23146727.157    23146730.776    -1587915.709 8    143538.155 9
  20951042.630    20951045.382    -1129922.659 9    454150.478 6
 86  6 19 23  2 23.0800000  0  4G 6G 8G 9G11
  20907523.468    20907526.554    -1011269.504 9    404342.671 8
  21160965.962    21160970.426      355367.675 9   1539664.618 8
  23143413.820    23143417.182    -1605328.170 9    129969.993 9
  20949173.123    20949175.717    -1139750.030 9    446492.779 7
 86  6 19 23  2 29.0800000  0  4G 6G 8G 9G11
  20906011.692    20906014.885    -1019211.689 9    398153.945 8
  21163284.937    21163288.544      367551.629 9   1549158.098 8
                  23140099.846    -1622740.732 8
  20947307.027    20947311.265    -1149555.023 9    438852.537 7
 86  6 19 23  2 35.0800000  0  4G 6G 8G 9G11
  20904502.397    20904505.333    -1027144.160 9    391972.800 9
  21165608.435    21165611.870      379758.033 9   1558669.570 8
  23136786.481    23136790.153    -1640153.129 9    162790.708 1
  20945445.996    20945447.826    -1159337.623 9    431229.726 6
 86  6 19 23  2 41.0800000  0  4G 6G 8G 9G11
  20902994.873    20902997.763    -1035066.869 9    385799.257 9
  21167935.396    21167938.443      391986.841 9   1568198.513 8
  23133473.523    23133476.872    -1657565.478 8    149222.642 8
  20943588.442    20943590.967    -1169097.879 9    423624.338 8
 86  6 19 23  2 47.0800000  0  4G 6G 8G 9G11
  20901489.425    20901491.377    -1042979.881 9    379633.278 8
  21170266.735    21170270.628      404237.973 9   1577744.841 8
  23130160.067    23130163.593    -1674977.852 9    135654.556 7
  20941735.859    20941738.942    -1178835.757 9    416036.376 7
 86  6 19 23  2 53.0800000  0  4G 6G 8G 9G11
  20899985.056    20899987.768    -1050883.111 9    373474.915 8
  21172602.797    21172606.059      416511.460 9   1587308.594 8
  23126845.499    23126850.250    -1692390.029 8    122086.636 9
  20939885.856    20939890.473    -1188551.195 8    408465.899 7
 86  6 19 23  2 59.0800000  0  4G 6G 8G 9G11
  20898483.971    20898485.782    -1058776.535 9    367324.190 8
  21174941.919    21174945.597      428807.250 9   1596889.722 8
  23123533.050    23123536.763    -1709802.191 8    108518.729 9
  20938042.241    20938046.140    -1198244.187 8    400912.925 7
 86  6 19 23  3  5.0800000  0  4G 6G 8G 9G11
  20896983.184    20896985.688    -1066660.230 9    361181.059 8
  21177285.851    21177289.329      441125.375 9   1606488.256 8
  23120219.084    23120223.991    -1727214.216 8     94950.925 9
  20936202.086    20936206.329    -1207914.708 9    393377.453 7
 86  6 19 23  3 11.0800000  0  4G 6G 8G 9G11
                  20895487.087                      355045.569 8
  21179633.302    21179638.540      453465.774 9   1616104.135 9
  23116904.961    23116909.754    -1744626.199 8     81383.156 8
  20934365.906    20934369.838    -1217562.849 9    385859.443 7
 86  6 19 23  3 17.0800000  0  4G 6G 8G 9G11
  20893987.959    20893990.831    -1110900.696 2    348917.716 8
  21181986.535    21181989.469      465828.343 9   1625737.297 8
  23113590.801    23113597.203    -1762038.041 9     67815.506 8
  20932534.371    20932537.241    -1227188.506 8    378358.925 7
 86  6 19 23  3 23.0800000  0  4G 6G 8G 9G11
  20892493.421    20892495.732    -1118754.860 9    342797.585 9
  21184343.315    21184346.063      478213.169 9   1635387.818 9
  23110278.368    23110282.186    -1779449.689 9     54247.987 9
  20930705.756    20930711.805    -1236791.719 9    370875.905 7
 86  6 19 23  3 29.0800000  0  4G 6G 8G 9G11
  20891001.119    20891003.933    -1126599.669 9    336685.123 8
  21186704.276    21186708.396      490620.212 8   1645055.619 8
  23106964.916    23106969.715    -1796861.271 9     40680.525 8
  20928883.112    20928886.600    -1246372.494 8    363410.379 7
 86  6 19 23  3 35.0800000  0  4G 6G 8G 9G11
  20889509.815    20889513.213    -1134434.134 9    330580.348 8
  21189069.470    21189073.033      503049.427 9   1654740.729 7
  23103651.501    23103656.115    -1814272.715 8     27113.170 8
  20927064.181    20927067.694    -1255930.762 9    355962.378 8
 86  6 19 23  3 41.0800000  0  4G 6G 8G 9G11
  20888021.029    20888023.282    -1142258.720 9    324483.258 8
  21191438.527    21191441.777      515500.796 8   1664443.101 8
  23100338.959    23100341.477    -1831684.011 8     13545.946 9
  20925249.901    20925253.471    -1265466.467 9    348531.963 8
 86  6 19 23  3 47.0800000  0  4G 6G 8G 9G11
  20886533.846    20886535.928    -1150073.415 9    318393.884 9
  21193813.167    21193815.744      527974.271 8   1674162.697 8
  23097025.027    23097029.699    -1849095.142 8       -21.162 8
  20923440.195    20923443.805    -1274979.706 8    341119.050 8
 86  6 19 23  3 53.0800000  0  4G 6G 8G 9G11
  20885048.724    20885051.384    -1157878.171 9    312312.263 9
  21196190.297    21196192.099      540469.866 9   1683899.530 8
  23093711.921    23093716.306    -1866506.014 8    -13588.085 8
  20921634.535    20921636.796    -1284470.380 8    333723.728 7
 86  6 19 23  3 59.0800000  0  4G 6G 8G 9G11
  20883565.382    20883568.419    -1165672.948 9    306238.398 9
  21198571.431    21198575.193      552987.566 9   1693653.571 8
  23090398.727    23090402.712    -1883916.724 9    -27154.839 8
  20919832.543    20919835.810    -1293938.572 9    326345.929 7
 86  6 19 23  4  5.0800000  0  4G 6G 8G 9G11
  20882084.520    20882085.533    -1173457.772 9    300172.299 9
  21200959.206    21200961.738      565527.303 9   1703424.786 8
  23087083.739    23087090.207    -1901327.207 8    -40721.455 8
  20918034.922    20918038.238    -1303384.270 9    318985.634 8
 86  6 19 23  4 11.0800000  0  4G 6G 8G 9G11
  20880605.278    20880605.830    -1181232.663 9    294113.937 8
  21203348.926    21203351.359      578089.109 9   1713213.209 7
  23083772.349    23083777.849    -1918737.479 8    -54287.904 8
  20916241.490    20916245.275    -1312807.454 9    311642.904 7
 86  6 19 23  4 17.0800000  0  4G 6G 8G 9G11
  20879127.869    20879128.810    -1188997.543 9    288063.392 8
  21205744.428    21205747.303      590672.937 9   1723018.783 8
  23080459.097    23080464.298    -1936147.539 8    -67854.179 8
  20914452.923    20914456.293    -1322208.091 9    304317.738 8
 86  6 19 23  4 23.0800000  0  4G 6G 8G 9G11
  20877651.997    20877653.882    -1196752.437 9    282020.611 8
  21208144.023    21208144.967      603278.722 9   1732841.482 8
  23077146.620    23077151.156    -1953557.358 9    -81420.262 9
  20912668.767    20912670.595    -1331586.161 9    297010.154 8
 86  6 19 23  4 29.0800000  0  4G 6G 8G 9G11
  20876177.413    20876179.524    -1204497.353 9    275985.609 9
  21210546.879    21210549.469      615906.476 9   1742681.302 8
  23073832.312    23073836.796    -1970966.939 9    -94986.156 9
  20910888.710    20910890.313    -1340941.681 9    289720.152 9
 86  6 19 23  4 35.0800000  0  4G 6G 8G 9G11
  20874705.423    20874707.601    -1212232.204 9    269958.436 8
  21212954.114    21212956.259      628556.179 9   1752538.204 8
  23070520.812    23070525.077    -1988376.204 8   -108551.809 8
  20909112.031    20909116.241    -1350274.617 9    282447.728 8
 86  6 19 23  4 41.0800000  0  4G 6G 8G 9G11
  20873236.416    20873237.343    -1219957.044 9    263939.090 8
  21215366.100    21215367.044      641227.768 9   1762412.168 9
  23067208.592    23067211.791    -2005785.188 8   -122117.237 9
  20907340.332    20907343.730    -1359585.017 9    275192.883 9
 86  6 19 23  4 47.0800000  0  4G 6G 8G 9G11
  20871768.132    20871769.295    -1227671.779 9    257927.606 8
                  21217781.319      653921.263 9
  23063894.799    23063899.613    -2023193.851 8   -135682.427 8
  20905572.145    20905576.739    -1368872.832 8    267955.629 7
 86  6 19 23  4 53.0800000  0  4G 6G 8G 9G11
  20870302.027    20870303.884    -1235376.418 9    251923.988 9
  21220200.630    21220200.857      666636.648 9   1818392.297 1
  23060582.563    23060586.806    -2040602.216 9   -149247.382 7
  20903810.432    20903814.002    -1378138.011 9    260736.001 7
 86  6 19 23  4 59.0800000  0  4G 6G 8G 9G11
  20868837.395    20868838.966    -1243070.960 9    245928.241 9
  21222624.952    21222626.923      679373.875 9   1828317.396 8
  23057269.922    23057273.727    -2058010.330 8   -162812.138 8
  20902051.067    20902056.526    -1387380.597 8    253533.983 8
 86  6 19 23  5  5.0800000  0  4G 6G 8G 9G11
  20867375.193    20867377.293    -1250755.404 9    239940.361 8
  21225052.535    21225054.592      692132.926 9   1838259.504 8
  23053957.744    23053960.928    -2075418.177 8   -176376.680 8
  20900295.504    20900301.881    -1396600.576 9    246349.587 8
 86  6 19 23  5 11.0800000  0  4G 6G 8G 9G11
  20865914.886    20865916.430    -1258429.705 9    233960.382 9
  21227485.155    21227485.352      704913.793 9   1848218.615 9
  23050644.479    23050648.757    -2092825.663 8   -189940.941 7
  20898545.879    20898551.435    -1405797.919 9    239182.831 8
 86  6 19 23  5 17.0800000  0  4G 6G 8G 9G11
  20864456.917    20864457.472    -1266093.884 9    227988.306 8
  21229921.609    21229923.137      717716.415 9   1858194.688 8
  23047332.223    23047337.588    -2110232.736 9   -203504.888 8
  20896799.896    20896805.773    -1414972.634 9    232033.702 7
 86  6 19 23  5 23.0800000  0  4G 6G 8G 9G11
  20862999.898    20863001.813    -1273747.885 9    222024.138 8
  21232361.441    21232362.525      730540.834 9   1868187.733 9
  23044020.997    23044023.922    -2127639.444 9   -217068.561 8
  20895058.252    20895062.359    -1424124.703 9    224902.222 8
 86  6 19 23  5 29.0800000  0  4G 6G 8G 9G11
  20861545.320    20861546.815    -1281391.646 9    216067.952 9
  21234805.709    21234807.034      743386.966 9   1878197.718 8
  23040707.475    23040712.383    -2145045.831 9   -230631.966 7
  20893321.124    20893325.328    -1433254.145 8    217788.378 8
 86  6 19 23  5 35.0800000  0  4G 6G 8G 9G11
  20860093.208    20860094.623    -1289025.234 9    210119.697 8
  21237253.839    21237256.025      756254.888 9   1888224.660 8
  23037394.825    23037398.767    -2162451.803 9   -244195.058 8
  20891587.064    20891593.203    -1442360.974 9    210692.149 8
 86  6 19 23  5 41.0800000  0  4G 6G 8G 9G11
  20858642.268    20858644.054    -1296648.517 9    204179.491 8
  21239706.263    21239709.023      769144.516 9   1898268.529 7
  23034083.392    23034088.264    -2179857.324 9   -257757.779 8
  20889858.939    20889863.310    -1451445.041 9    203613.674 7
 86  6 19 23  5 47.0800000  0  4G 6G 8G 9G11
                  20857195.006                      198248.358 6
  21242162.807    21242166.623      782055.800 9   1908329.264 9
  23030771.300    23030774.821    -2197262.435 9   -271320.207 7
  20888135.612    20888140.215    -1460506.422 9    196552.854 7
 86  6 19 23  5 53.0800000  0  4G 6G 8G 9G11
                  20855748.236                      192322.966 8
  21244623.244    21244626.246      794988.753 9   1918406.885 8
  23027459.502    23027463.001    -2214667.120 8   -284882.276 8
  20886416.075    20886419.249    -1469545.120 9    189509.735 6
 86  6 19 23  5 59.0800000  0  4G 6G 8G 9G11
  20854300.475    20854303.187    -1362337.992 9    186406.638 8
  21247089.403    21247092.635      807943.251 9   1928501.296 9
  23024147.855    23024151.625    -2232071.360 8   -298444.014 8
  20884698.912    20884703.047    -1478561.115 8    182484.278 8
 86  6 19 23  6  5.0800000  0  4G 6G 8G 9G11
  20852859.335    20852860.229    -1369920.268 9    180498.376 8
  21249559.085    21249561.399      820919.372 9   1938612.551 8
  23020835.805    23020839.519    -2249475.154 8   -312005.408 8
  20882988.863    20882991.012    -1487554.407 9    175476.512 8
 86  6 19 23  6 11.0800000  0  4G 6G 8G 9G11
  20851417.866    20851420.620    -1377492.184 9    174598.182 8
  21252031.427    21252034.586      833917.036 9   1948740.597 8
  23017523.894    23017527.734    -2266878.491 8   -325566.438 8
  20881281.965    20881285.371    -1496524.983 9    168486.460 7
 86  6 19 23  6 17.0800000  0  4G 6G 8G 9G11
  20849979.202    20849980.962    -1385053.788 8    168706.032 8
  21254510.408    21254512.094      846936.301 8   1958885.476 8
  23014212.738    23014216.217    -2284281.329 9   -339127.088 8
  20879579.543    20879582.058    -1505472.865 9    161514.089 7
 86  6 19 23  6 23.0800000  0  4G 6G 8G 9G11
  20848541.793    20848543.976    -1392605.090 9    162821.890 7
  21256992.023    21256994.480      859977.014 9   1969047.062 9
  23010900.691    23010904.203    -2301683.682 8   -352687.340 9
  20877880.609    20877883.679    -1514398.055 9    154559.391 8
 86  6 19 23  6 29.0800000  0  4G 6G 8G 9G11
  20847106.581    20847108.333    -1400146.015 9    156945.853 9
  21259477.100    21259479.530      873039.328 8   1979225.484 9
  23007588.971    23007592.798    -2319085.522 9   -366247.212 8
  20876185.596    20876188.908    -1523300.390 8    147622.516 8
 86  6 19 23  6 35.0800000  0  4G 6G 8G 9G11
  20845673.569    20845676.266    -1407676.603 9    151077.866 8
  21261967.186    21261970.300      886123.086 9   1989420.610 8
  23004277.301    23004281.237    -2336486.938 9   -379806.743 8
  20874496.838    20874500.091    -1532180.014 9    140703.329 8
 86  6 19 23  6 41.0800000  0  4G 6G 8G 9G11
  20844243.154    20844244.545    -1415196.768 9    145218.000 8
  21264460.591    21264463.793      899228.335 9   1999632.487 9
  23000966.498    23000970.597    -2353887.809 9   -393365.878 8
  20872810.765    20872814.003    -1541036.861 9    133801.906 7
 86  6 19 23  6 47.0800000  0  4G 6G 8G 9G11
  20842813.526    20842815.272    -1422706.566 9    139366.200 8
  21266959.262    21266961.704      912354.964 9   2009861.016 9
  22997655.337    22997658.636    -2371288.225 9   -406924.628 7
  20871130.290    20871132.987    -1549870.948 9    126918.189 7
 86  6 19 23  6 53.0800000  0  4G 6G 8G 9G11
  20841387.314    20841388.334    -1430205.879 9    133522.583 9
  21269461.481    21269462.837      925503.008 9   2020106.242 9
  22994344.768    22994348.246    -2388687.983 8   -420482.871 8
  20869453.048    20869456.103    -1558682.288 9    120052.213 8
 86  6 19 23  6 59.0800000  0  4G 6G 8G 9G11
  20839961.775    20839962.885    -1437694.777 9    127687.080 9
  21271967.707    21271968.591      938672.435 9   2030368.127 9
  22991033.014    22991037.121    -2406087.185 9   -434040.677 8
  20867781.409    20867783.205    -1567470.849 9    113203.994 8
 86  6 19 23  7  5.0800000  0  4G 6G 8G 9G11
  20838538.959    20838540.755    -1445173.229 9    121859.715 8
  21274477.796    21274480.083      951863.271 9   2040646.690 9
  22987722.704    22987726.124    -2423485.798 8   -447598.046 9
  20866112.968    20866116.068    -1576236.599 9    106373.546 8
 86  6 19 23  7 11.0800000  0  4G 6G 8G 9G11
  20837117.427    20837118.672    -1452641.129 9    116040.578 8
                  21276993.751                     2050941.913 7
                  22984416.501                     -461154.933 8
  20864449.824    20864451.501    -1584979.455 9     99560.927 8
 86  6 19 23  7 17.0800000  0  4G 6G 8G 9G11
  20835697.990    20835699.653    -1460098.541 9    110229.604 9
  21279509.486    21279511.196      928599.465 1   2061253.717 8
  22981100.161    22981106.775    -2477069.248 1   -474711.385 7
  20862790.244    20862792.011    -1593699.539 9     92766.065 8
 86  6 19 23  7 23.0800000  0  4G 6G 8G 9G11
  20834280.912    20834283.501    -1467545.532 9    104426.758 8
  21282031.938    21282033.933      941854.185 9   2071582.063 9
  22977790.178    22977794.220    -2494466.197 9   -488267.420 8
  20861135.296    20861137.772    -1602396.908 9     85988.896 9
 86  6 19 23  7 29.0800000  0  4G 6G 8G 9G11
  20832865.746    20832867.596    -1474981.977 9     98632.125 8
  21284557.252    21284560.851      955130.692 9   2081926.999 7
  22974481.313    22974483.533    -2511862.393 9   -501822.897 8
  20859484.838    20859487.470    -1611071.410 8     79229.531 8
 86  6 19 23  7 35.0800000  0  4G 6G 8G 9G11
  20831452.488    20831454.917    -1482407.897 9     92845.702 8
  21287087.661    21287091.689      968427.943 9   2092288.483 9
  22971170.781    22971174.322    -2529257.972 9   -515377.891 7
  20857837.470    20857841.269    -1619723.067 9     72487.977 8
 86  6 19 23  7 41.0800000  0  4G 6G 8G 9G11
  20830041.116    20830043.083    -1489823.195 9     87067.547 8
  21289622.820    21289625.587      981746.413 9   2102666.510 8
  22967860.351    22967863.277    -2546652.891 9   -528932.373 8
  20856195.756    20856199.268    -1628351.879 9     65764.236 8
 86  6 19 23  7 47.0800000  0  4G 6G 8G 9G11
  20828632.140    20828633.806    -1497227.933 9     81297.618 8
  21292159.968    21292163.153      995086.090 9   2113061.049 8
  22964550.621    22964554.819    -2564047.144 9   -542486.327 8
                  20854557.220    -1636957.872 8
 86  6 19 23  7 53.0800000  0  4G 6G 8G 9G11
  20827225.650    20827226.945    -1504622.068 9     75535.958 8
  21294702.713    21294706.184     1008446.951 9   2123472.098 9
  22961240.624    22961243.693    -2581440.676 9   -556039.710 9
  20852923.598    20852928.757    -1645540.975 9    105370.645 1
 86  6 19 23  7 59.0800000  0  4G 6G 8G 9G11
  20825820.536    20825821.800    -1512005.532 9     69782.605 8
  21297249.105    21297252.760     1021829.010 9   2133899.671 8
  22957931.009    22957934.578    -2598833.548 9   -569592.602 7
  20851294.896    20851298.723    -1654101.145 9     98700.393 8
 86  6 19 23  8  5.0800000  0  4G 6G 8G 9G11
  20824418.143    20824418.909    -1519378.414 9     64037.513 9
  21299801.133    21299803.773     1035232.197 9   2144343.712 8
  22954622.143    22954624.312    -2616225.791 9   -583144.992 7
  20849670.484    20849674.884    -1662638.449 9     92047.441 8
 86  6 19 23  8 11.0800000  0  4G 6G 8G 9G11
  20823016.940    20823019.019    -1526740.660 9     58300.691 8
  21302354.580    21302357.850     1048656.476 9   2154804.185 9
  22951311.999    22951315.540    -2633617.308 9   -596696.818 8
                  20848050.680    -1671152.876 9
 86  6 19 23  8 17.0800000  0  4G 6G 8G 9G11
  20821618.327    20821619.605    -1534092.276 9     52572.152 8
  21304914.123    21304915.818     1062101.753 8   2165281.010 7
  22948003.183    22948005.817    -2651008.016 9   -610248.018 8
  20846432.990    20846439.902    -1679644.393 9    131721.060 1
 86  6 19 23  8 23.0800000  0  4G 6G 8G 9G11
  20820221.098    20820223.755    -1541433.201 9     46851.956 8
  21307476.170    21307478.623     1075568.101 9   2175774.266 7
  22944693.460    22944697.275    -2668398.063 9   -623798.706 8
  20844822.497    20844827.873    -1688113.028 8    125122.140 7
 86  6 19 23  8 29.0800000  0  4G 6G 8G 9G11
  20818825.802    20818827.334    -1548763.384 9     41140.111 9
  21310042.451    21310044.947     1089055.502 9   2186283.918 9
  22941384.445    22941387.287    -2685787.365 9   -637348.821 8
  20843215.968    20843218.765    -1696558.788 9    118541.035 8
 86  6 19 23  8 35.0800000  0  4G 6G 8G 9G11
  20817432.498    20817435.528    -1556082.889 9     35436.615 9
                  21312612.940     1102563.971 8
  22938075.553    22938078.392    -2703175.844 9   -650898.271 8
  20841613.567    20841617.326    -1704981.465 9    111977.906 7
 86  6 19 23  8 41.0800000  0  4G 6G 8G 9G11
  20816042.471    20816044.356    -1563391.573 9     29741.520 9
  21315188.863    21315188.909     1116092.970 1   2242774.469 2
  22934767.502    22934769.455    -2720563.522 9   -664447.112 7
  20840015.681    20840017.769    -1713381.215 9    105432.662 8
 86  6 19 23  8 47.0800000  0  4G 6G 8G 9G11
  20814653.541    20814656.403    -1570689.561 9     24054.780 8
  21317766.753    21317768.284     1129643.321 9   2253333.169 8
  22931459.103    22931461.364    -2737950.447 9   -677995.363 8
  20838421.608    20838423.064    -1721758.042 9     98905.261 7
 86  6 19 23  8 53.0800000  0  4G 6G 8G 9G11
  20813265.933    20813269.060    -1577976.821 9     18376.387 9
  21320349.618    21320351.465     1143214.105 9   2263908.179 7
  22928149.881    22928152.613    -2755336.573 9   -691542.997 8
  20836831.605    20836835.072    -1730111.926 9     92395.745 8
 86  6 19 23  8 59.0800000  0  4G 6G 8G 9G11
  20811882.240    20811884.528    -1585253.269 9     12706.421 8
  21322935.919    21322938.910     1156806.340 9   2274499.539 8
  22924841.109    22924843.806    -2772721.874 9   -705089.977 8
  20835245.282    20835250.321    -1738442.838 9     85904.149 8
 86  6 19 23  9  5.0800000  0  4G 6G 8G 9G11
                  20810501.876                        7044.960 9
  21325526.970    21325529.260     1170419.510 9   2285107.193 8
  22921533.482    22921536.522    -2790106.346 9   -718636.313 8
  20833664.655    20833668.633    -1746750.795 9     79430.405 8
 86  6 19 23  9 11.0800000  0  4G 6G 8G 9G11
  20809120.943    20809121.838    -1633111.534 9      1391.943 8
  21328121.026    21328124.173     1184053.550 9   2295731.121 7
  22918225.576    22918228.152    -2807489.953 9   -732181.974 7
  20832088.831    20832090.656    -1755035.809 9     72974.559 7
 86  6 19 23  9 17.0800000  0  4G 6G 8G 9G11
  20807740.033    20807742.177    -1640355.458 9     -4252.680 9
  21330718.716    21330723.268     1197708.338 9   2306371.221 8
  22914918.428    22914920.960    -2824872.666 9   -745726.955 8
  20830516.211    20830519.038    -1763297.931 8     66536.543 8
 86  6 19 23  9 23.0800000  0  4G 6G 8G 9G11
  20806363.729    20806366.781    -1647588.648 9     -9888.941 9
  21333321.415    21333323.634     1211383.900 9   2317027.496 7
  22911609.521    22911612.075    -2842254.637 9   -759271.346 7
  20828948.603    20828952.156    -1771537.092 9     60116.422 7
 86  6 19 23  9 29.0800000  0  4G 6G 8G 9G11
  20804988.867    20804992.619    -1654811.031 9    -15516.772 9
  21335927.347    21335930.668     1225080.257 9   2327699.977 8
  22908302.716    22908305.564    -2859635.753 8   -772815.065 8
  20827385.001    20827387.623    -1779753.289 9     53714.194 8
 86  6 19 23  9 35.0800000  0  4G 6G 8G 9G11
  20803616.787    20803619.766    -1662022.454 9    -21136.058 9
  21338538.089    21338540.892     1238797.368 9   2338388.635 8
  22904995.762    22904998.287    -2877015.980 9   -786358.107 8
  20825826.652    20825827.955    -1787946.493 8     47329.879 8
 86  6 19 23  9 41.0800000  0  4G 6G 8G 9G11
  20802246.288    20802249.747    -1669222.838 9    -26746.759 8
  21341152.264    21341155.197     1252535.406 9   2349093.599 7
  22901688.027    22901690.468    -2894395.231 9   -799900.364 8
  20824271.439    20824274.594    -1796116.640 8     40963.540 8
 86  6 19 23  9 47.0800000  0  4G 6G 8G 9G11
  20800878.078    20800881.916    -1676412.299 8    -32348.923 8
  21343770.674    21343773.306     1266294.077 9   2359814.638 8
  22898381.617    22898384.227    -2911773.484 9   -813441.865 7
  20822722.311    20822724.215    -1804263.761 9     34615.127 8
 86  6 19 23  9 53.0800000  0  4G 6G 8G 9G11
  20799512.523    20799515.585    -1683590.859 9    -37942.619 9
  21346392.891    21346395.093     1280073.469 9   2370551.844 8
  22895074.698    22895076.687    -2929150.771 9   -826982.600 9
  20821174.812    20821178.865    -1812387.833 9     28284.681 7
 86  6 19 23  9 59.0800000  0  4G 6G 8G 9G11
  20798147.999    20798152.320    -1690758.479 9    -43527.780 9
  21349018.455    21349022.004     1293873.479 9   2381305.092 8
  22891768.401    22891770.670    -2946527.209 9   -840522.685 8
  20819632.998    20819637.304    -1820489.007 9     21972.086 8
 86  6 19 23 10  5.0800000  0  4G 6G 8G 9G11
  20796786.603    20796789.817    -1697915.200 9    -49104.440 9
  21351649.144    21351651.403     1307694.108 9   2392074.407 8
  22888461.454    22888463.651    -2963902.696 9   -854062.017 9
  20818096.271    20818098.425    -1828567.232 9     15677.369 8
 86  6 19 23 10 11.0800000  0  4G 6G 8G 9G11
                  20795429.907                      -54672.514 8
  21354283.551    21354284.810     1321535.419 9   2402859.847 8
  22885155.301    22885157.984    -2981277.116 9   -867600.516 8
  20816563.291    20816566.503    -1836622.353 9      9400.644 8
 86  6 19 23 10 17.0800000  0  4G 6G 8G 9G11
  20794069.113    20794072.783    -1744708.541 9    -60231.980 8
  21356920.476    21356924.627     1335397.323 9   2413661.325 8
  22881849.098    22881852.109    -2998650.615 9   -881138.296 8
  20815035.025    20815037.716    -1844654.431 9      3141.894 7
 86  6 19 23 10 23.0800000  0  4G 6G 8G 9G11
  20792713.474    20792716.704    -1751832.198 9    -65782.889 9
  21359562.154    21359564.930     1349279.738 9   2424478.789 9
  22878543.659    22878545.069    -3016023.101 9   -894675.298 8
  20813511.247    20813514.058    -1852663.432 9     -3098.874 8
 86  6 19 23 10 29.0800000  0  4G 6G 8G 9G11
  20791359.989    20791363.588    -1758944.761 9    -71325.133 9
                  21362208.525     1363184.271 9
  22875237.671    22875239.359    -3033394.539 9   -908211.486 8
  20811991.428    20811994.204    -1860649.314 9     -9321.647 7
 86  6 19 23 10 35.0800000  0  4G 6G 8G 9G11
  20790009.215    20790011.487    -1766046.272 9    -76858.784 9
  21364858.013    21364861.709     1377108.374 9   2490654.360 1
  22871931.762    22871933.192    -3050764.995 9   -921746.898 8
  20810476.596    20810477.776    -1868612.079 9    -15526.386 7
 86  6 19 23 10 41.0800000  0  4G 6G 8G 9G11
  20788659.368    20788661.815    -1773136.616 9    -82383.732 8
  21367511.797    21367513.785     1391052.482 9   2501519.905 8
  22868626.947    22868628.956    -3068134.317 9   -935281.414 8
  20808965.831    20808967.144    -1876551.666 9    -21713.093 8
 86  6 19 23 10 47.0800000  0  4G 6G 8G 9G11
  20787312.699    20787315.492    -1780215.871 9    -87900.025 8
  21370168.699    21370171.718     1405017.072 9   2512400.895 9
  22865321.602    22865323.948    -3085502.575 9   -948815.134 8
  20807458.890    20807461.390    -1884468.194 9    -27881.806 7
 86  6 19 23 10 53.0800000  0  4G 6G 8G 9G11
  20785967.910    20785970.378    -1787284.009 9    -93407.673 8
  21372829.894    21372832.040     1419002.100 9   2523298.318 9
  22862017.523    22862019.426    -3102869.780 9   -962348.008 8
  20805957.566    20805959.000    -1892361.618 9    -34032.523 7
 86  6 19 23 10 59.0800000  0  4G 6G 8G 9G11
  20784624.767    20784627.182    -1794341.113 9    -98906.715 8
  21375494.723    21375498.128     1433007.541 9   2534211.640 8
  22858712.115    22858714.111    -3120235.960 9   -975880.079 8
  20804459.250    20804460.745    -1900231.980 9    -40165.266 7
 86  6 19 23 11  5.0800000  0  4G 6G 8G 9G11
  20783284.307    20783286.030    -1801387.021 9   -104397.035 8
  21378163.388    21378165.862     1447033.447 9   2545140.913 8
  22855408.093    22855409.324    -3137601.012 9   -989411.302 8
  20802965.840    20802967.732    -1908079.168 9    -46279.955 7
 86  6 19 23 11 11.0800000  0  4G 6G 8G 9G11
  20781945.678    20781947.278    -1808421.799 8   -109878.684 8
  21380836.001    21380838.376     1461079.712 9   2556086.051 8
  22852103.951    22852104.973    -3154964.982 9  -1002941.658 8
  20801477.351    20801479.636    -1915903.204 8    -52376.591 7
 86  6 19 23 11 17.0800000  0  4G 6G 8G 9G11
  20780608.673    20780610.180    -1815445.433 9   -115351.646 8
  21383512.850    21383516.055     1475146.244 9   2567046.975 8
  22848799.228    22848800.838    -3172327.891 9  -1016471.179 8
  20799992.106    20799994.098    -1923704.146 9    -58455.256 8
 86  6 19 23 11 23.0800000  0  4G 6G 8G 9G11
  20779274.140    20779276.652    -1822457.887 9   -120815.890 9
  21386193.934    21386196.996     1489233.160 9   2578023.781 8
  22845495.242    22845498.140    -3189689.654 9  -1029999.836 8
  20798511.290    20798514.267    -1931482.013 8    -64515.935 7
 86  6 19 23 11 29.0800000  0  4G 6G 8G 9G11
  20777941.525    20777944.123    -1829459.042 9   -126271.339 8
  21388878.167    21388882.017     1503340.455 9   2589016.459 9
  22842192.767    22842193.454    -3207050.124 9  -1043527.461 9
  20797034.821    20797039.379    -1939236.732 9    -70558.561 7
 86  6 19 23 11 35.0800000  0  4G 6G 8G 9G11
  20776611.647    20776613.546    -1836449.014 9   -131718.074 7
  21391567.265    21391569.282     1517467.919 9   2600024.876 8
  22838889.211    22838890.248    -3224409.521 9  -1057054.258 9
  20795564.455    20795566.490    -1946968.376 8    -76583.211 7
 86  6 19 23 11 41.0800000  0  4G 6G 8G 9G11
  20775283.870    20775286.098    -1843427.699 9   -137156.007 7
  21394259.024    21394261.972     1531615.686 9   2611049.104 8
  22835585.933    22835588.136    -3241767.741 9  -1070580.153 7
  20794097.497    20794098.926    -1954676.880 9    -82589.819 8
 86  6 19 23 11 47.0800000  0  4G 6G 8G 9G11
  20773957.989    20773960.492    -1850395.144 9   -142585.183 9
  21396955.905    21396957.580     1545783.673 9   2622089.090 7
  22832281.935    22832284.059    -3259124.839 9  -1084105.146 8
  20792635.348    20792638.007    -1962362.242 9    -88578.410 7
 86  6 19 23 11 53.0800000  0  4G 6G 8G 9G11
  20772633.781    20772636.497    -1857351.296 9   -148005.572 8
                  21399658.511                     2633144.799 7
  22828979.859    22828981.397    -3276480.669 9  -1097629.177 8
  20791177.671    20791178.183    -1970024.469 9    -94548.963 7
 86  6 19 23 11 59.0800000  0  4G 6G 8G 9G11
  20771312.781    20771315.506    -1864296.103 9   -153417.110 8
  21402359.657    21402361.261     1523487.202 1   2644216.233 9
  22825676.954    22825679.294    -3293835.291 9  -1111152.245 7
  20789723.013    20789725.546    -1977663.496 8   -100501.450 8
 86  6 19 23 12  5.0800000  0  4G 6G 8G 9G11
  20769993.018    20769994.555    -1871229.589 9   -158819.825 7
  21405066.669    21405069.561     1537715.769 9   2655303.441 9
  22822375.780    22822376.476    -3311188.631 9  -1124674.322 8
  20788274.658    20788277.476    -1985279.367 9   -106435.894 8
 86  6 19 23 12 11.0800000  0  4G 6G 8G 9G11
  20768675.703    20768679.266    -1878151.752 9   -164213.722 8
  21407778.347    21407780.694     1551964.471 9   2666406.318 9
  22819073.169    22819075.007    -3328540.681 9  -1138195.402 7
  20786829.296    20786831.621    -1992872.083 9   -112352.298 7
 86  6 19 23 12 17.0800000  0  4G 6G 8G 9G11
  20767360.910    20767362.859    -1885062.535 9   -169598.745 8
  21410493.402    21410496.007     1566233.311 9   2677524.871 8
  22815770.757    22815772.940    -3345891.451 9  -1151715.463 8
  20785389.898    20785391.040    -2000441.536 8   -118250.556 7
 86  6 19 23 12 23.0800000  0  4G 6G 8G 9G11
  20766048.071    20766050.728    -1891961.947 9   -174974.907 8
  21413212.578    21413215.725     1580522.199 9   2688659.077 8
  22812469.319    22812470.736    -3363240.991 9  -1165234.585 8
  20783953.184    20783955.911    -2007987.733 8   -124130.712 7
 86  6 19 23 12 29.0800000  0  4G 6G 8G 9G11
  20764737.498    20764739.484    -1898849.985 9   -180342.217 9
  21415935.131    21415938.851     1594831.162 9   2699808.905 8
                  22809170.299                    -1178752.727 8
  20782522.225    20782523.334    -2015510.778 9   -129992.810 7
 86  6 19 23 12 35.0800000  0  4G 6G 8G 9G11
  20763428.425    20763431.223    -1905726.693 9   -185700.683 7
  21418662.562    21418664.866     1609160.121 9   2710974.327 8
  22805867.863    22805869.654    -3419448.323 9  -1192269.896 8
  20781094.254    20781096.703    -2023010.645 9   -135836.879 7
 86  6 19 23 12 41.0800000  0  4G 6G 8G 9G11
  20762122.326    20762123.656    -1912591.868 9   -191050.169 8
  21421393.729    21421396.262     1623509.103 9   2722155.337 8
  22802566.353    22802567.802    -3436794.009 9  -1205786.012 8
  20779671.970    20779675.965    -2030487.314 9   -141662.849 7
 86  6 19 23 12 47.0800000  0  4G 6G 8G 9G11
  20760818.719    20760820.346    -1919445.569 9   -196390.726 9
  21424127.343    21424129.231     1637878.133 9   2733351.996 9
  22799266.489    22799267.430    -3454138.215 9  -1219300.978 7
  20778253.475    20778256.177    -2037940.711 9   -147470.679 7
 86  6 19 23 12 53.0800000  0  4G 6G 8G 9G11
  20759516.607    20759518.779    -1926287.871 9   -201722.392 9
  21426866.049    21426867.696     1652267.117 9   2744564.180 8
  22795965.659    22795966.600    -3471481.183 9  -1232814.959 8
  20776839.490    20776842.097    -2045370.893 8   -153260.437 7
 86  6 19 23 12 59.0800000  0  4G 6G 8G 9G11
  20758216.760    20758217.945    -1933118.669 9   -207045.079 8
  21429607.448    21429609.994     1666676.097 9   2755791.957 8
                  22792665.773    -3488822.763 8
  20775429.148    20775431.562    -2052777.748 9   -159032.006 7
 86  6 19 23 13  5.0800000  0  4G 6G 8G 9G11
  20756919.006    20756920.901    -1939938.012 9   -212358.866 8
  21432353.653    21432354.727     1681104.915 9   2767035.185 8
  22789366.723    22789367.992    -3506163.051 9  -1200136.270 1
  20774025.032    20774028.419    -2060161.386 8   -164785.498 7
 86  6 19 23 13 11.0800000  0  4G 6G 8G 9G11
  20755624.456    20755625.948    -1946745.817 9   -217663.636 9
  21435102.592    21435106.441     1695553.641 9   2778293.926 9
  22786067.096    22786067.011    -3523501.946 9  -1213647.097 7
  20772624.191    20772627.585    -2067521.758 8   -170520.829 7
 86  6 19 23 13 17.0800000  0  4G 6G 8G 9G11
  20754330.584    20754332.057    -1953542.105 9   -222959.457 8
  21437856.840    21437857.528     1710022.293 9   2789568.200 8
  22782766.288    22782768.412    -3540839.403 8  -1227156.293 9
  20771228.232    20771231.805    -2074858.901 8   -176238.076 7
 86  6 19 23 13 23.0800000  0  4G 6G 8G 9G11
  20753038.525    20753040.209    -1960326.767 9   -228246.217 9
  21440612.919    21440614.879     1724510.774 9   2800857.924 8
  22779467.976    22779469.994    -3558175.368 9  -1240664.834 8
  20769837.333    20769839.175    -2082172.771 8   -181937.193 6
 86  6 19 23 13 29.0800000  0  4G 6G 8G 9G11
  20751750.804    20751752.978    -1967099.847 9   -233523.938 8
  21443374.707    21443376.409     1739019.081 9   2812163.103 8
  22776169.599    22776172.353    -3575509.997 8  -1254172.325 7
  20768449.608    20768451.848    -2089463.380 9   -187618.191 7
 86  6 19 23 13 35.0800000  0  4G 6G 8G 9G11
  20750463.331    20750465.685    -1973861.387 9   -238792.657 8
  21446138.886    21446140.803     1753547.190 9   2823483.698 8
  22772870.186    22772872.920    -3592843.161 9  -1267678.685 8
  20767066.260    20767068.708    -2096730.720 9   -193281.040 7
 86  6 19 23 13 41.0800000  0  4G 6G 8G 9G11
  20749179.260    20749180.912    -1980611.299 9   -244052.339 9
  21448907.213    21448909.574     1768095.070 9   2834819.700 8
  22769571.431    22769575.143    -3610174.825 8  -1281183.862 8
  20765686.764    20765689.360    -2103974.788 8   -198925.767 7
 86  6 19 23 13 47.0800000  0  4G 6G 8G 9G11
  20747897.356    20747898.539    -1987349.658 9   -249303.012 8
  21451679.347    21451681.779     1782662.653 9   2846171.068 8
  22766275.136    22766277.018    -3627504.977 9  -1294687.891 8
  20764313.582    20764314.809    -2111195.602 9   -204552.384 8
 86  6 19 23 13 53.0800000  0  4G 6G 8G 9G11
  20746616.970    20746618.557    -1994076.406 9   -254544.635 8
  21454454.815    21454456.904     1797249.965 9   2857537.806 8
  22762977.297    22762979.822    -3644833.688 9  -1308190.771 7
  20762943.780    20762944.711    -2118393.111 9   -210160.831 7
 86  6 19 23 13 59.0800000  0  4G 6G 8G 9G11
  20745339.016    20745340.676    -2000791.491 9   -259777.162 9
  21457233.632    21457236.294     1811856.967 9   2868919.875 7
  22759680.374    22759682.133    -3662160.930 8  -1321692.503 7
  20761578.687    20761579.943    -2125567.326 8   -215751.121 7
 86  6 19 23 14  5.0800000  0  4G 6G 8G 9G11
                  20744064.506                     -265000.569 9
  21460017.713    21460019.602     1826483.633 9   2880317.284 8
  22756383.028    22756385.287    -3679486.739 9  -1335193.132 8
  20760217.294    20760219.875    -2132718.230 9   -221323.258 8
 86  6 19 23 14 11.0800000  0  4G 6G 8G 9G11
  20742790.165    20742790.120    -2043877.614 1   -270214.928 9
  21462804.414    21462807.632     1841129.904 9   2891729.956 7
  22753086.175    22753088.285    -3696811.027 9  -1348692.577 8
  20758860.942    20758864.695    -2139845.871 8   -226877.271 8
 86  6 19 23 14 17.0800000  0  4G 6G 8G 9G11
  20741519.699    20741520.400    -2050557.640 9   -275420.128 8
  21465595.680    21465597.954     1855795.771 9   2903157.901 8
  22749789.165    22749792.040    -3714133.781 9  -1362190.820 8
  20757509.052    20757512.898    -2146950.205 9   -232413.100 7
 86  6 19 23 14 23.0800000  0  4G 6G 8G 9G11
  20740250.348    20740250.946    -2057225.983 9   -280616.238 8
  21468389.692    21468391.622     1870481.172 9   2914601.071 6
  22746493.372    22746495.441    -3731454.978 8  -1375687.845 9
  20756161.992    20756164.702    -2154031.233 9   -237930.784 7
 86  6 19 23 14 29.0800000  0  4G 6G 8G 9G11
  20738984.013    20738985.117    -2063882.655 9   -285803.249 9
  21471188.498    21471189.012     1885186.114 9   2926059.468 7
  22743197.987    22743199.925    -3748774.660 9  -1389183.694 8
  20754819.725    20754822.327    -2161088.986 9   -243430.337 8
 86  6 19 23 14 35.0800000  0  4G 6G 8G 9G11
  20737719.939    20737720.929    -2070527.578 9   -290981.115 9
  21473990.280    21473991.841     1899910.644 9   2937533.108 8
  22739902.036    22739904.933    -3766092.724 9  -1402678.291 8
  20753480.381    20753484.213    -2168123.340 9   -248911.632 7
 86  6 19 23 14 41.0800000  0  4G 6G 8G 9G11
  20736457.474    20736458.594    -2077160.676 9   -296149.765 9
  21476795.999    21476798.502     1914654.680 9   2949021.990 7
  22736606.922    22736609.090    -3783409.114 9  -1416171.581 8
  20752146.932    20752150.441    -2175134.437 9   -254374.829 8
 86  6 19 23 14 47.0800000  0  4G 6G 8G 9G11
  20735197.339    20735198.437    -2083781.962 9   -301309.207 8
  21479606.195    21479607.539     1929418.235 9   2960526.063 8
  22733311.816    22733314.799    -3800723.908 9  -1429663.623 8
  20750816.449    20750820.781    -2182122.203 9   -259819.836 8
 86  6 19 23 14 53.0800000  0  4G 6G 8G 9G11
  20733939.307    20733941.664    -2090391.457 9   -306459.461 9
  21482418.824    21482419.267     1944201.273 9   2972045.307 7
  22730017.311    22730020.101    -3818037.092 9  -1443154.404 8
  20749491.520    20749495.485    -2189086.572 9   -265246.613 8
 86  6 19 23 14 59.0800000  0  4G 6G 8G 9G11
  20732684.319    20732685.263    -2096989.107 9   -311600.488 8
  21485236.203    21485236.062     1959003.763 9   2983579.718 7
  22726721.946    22726726.104    -3835348.666 9  -1456643.940 8
  20748170.969    20748174.341    -2196027.564 9   -270655.181 8
 86  6 19 23 15  5.0800000  0  4G 6G 8G 9G11
  20731431.153    20731432.433    -2103574.934 9   -316732.311 9
  21488056.745    21488056.831     1973825.647 9   2995129.229 7
  22723428.914    22723431.226    -3852658.606 8  -1470132.205 7
  20746853.615    20746858.181    -2202945.230 9   -276045.561 8
 86  6 19 23 15 11.0800000  0  4G 6G 8G 9G11
  20730180.289    20730182.160    -2110148.944 9   -321854.911 8
  21490881.165    21490880.149     1988666.930 9   3006693.869 7
  22720134.215    22720137.937    -3869966.840 9  -1483619.135 8
  20745542.198    20745546.590    -2209839.520 7   -281417.731 9
 86  6 19 23 15 17.0800000  0  4G 6G 8G 9G11
  20728930.892    20728932.935    -2116711.054 9   -326968.251 9
  21493708.790    21493710.421     2003527.537 9   3018273.560 8
  22716841.664    22716845.355    -3887273.395 9  -1497104.769 7
  20744233.890    20744239.578    -2216710.516 8   -286771.748 8
 86  6 19 23 15 23.0800000  0  4G 6G 8G 9G11
  20727684.916    20727686.697    -2123261.266 9   -332072.325 8
  21496540.851    21496540.406     2018407.483 8   3029868.312 8
  22713548.782    22713552.402    -3904578.250 9  -1510589.063 9
  20742931.399    20742936.279    -2223558.121 8   -292107.537 9
 86  6 19 23 15 29.0800000  0  4G 6G 8G 9G11
  20726440.388    20726443.047    -2129799.585 9   -337167.119 8
  21499375.143    21499375.917     2033306.793 9   3041478.168 8
  22710256.803    22710258.526    -3921881.426 9  -1524072.051 8
  20741632.832    20741637.605    -2230382.394 9   -297425.154 8
 86  6 19 23 15 35.0800000  0  4G 6G 8G 9G11
  20725198.751    20725199.918    -2136325.973 9   -342252.621 9
  21502213.429    21502216.147     2048225.369 9   3053103.015 8
  22706963.900    22706966.289    -3939182.912 9  -1537553.731 9
  20740339.006    20740344.247    -2237183.238 9   -302724.508 8
 86  6 19 23 15 41.0800000  0  4G 6G 8G 9G11
  20723958.935    20723961.029    -2142840.467 9   -347328.851 8
  21505056.350    21505057.696     2063163.144 9   3064742.852 8
  22703671.247    22703674.624    -3956482.719 9  -1551034.102 8
  20739049.308    20739053.375    -2243960.719 5   -308005.654 8
 86  6 19 23 15 47.0800000  0  4G 6G 8G 9G11
  20722721.156    20722722.774    -2149342.967 9   -352395.739 9
  21507901.576    21507904.252     2078120.194 9   3076397.690 8
  22700380.047    22700382.722    -3973780.638 9  -1564512.976 9
  20737764.542    20737767.472    -2250714.840 9   -313268.592 8
 86  6 19 23 15 53.0800000  0  4G 6G 8G 9G11
  20721486.720    20721488.016    -2155833.557 9   -357453.339 8
  21510751.981    21510753.412     2093096.446 8   3088067.481 8
  22697089.233    22697091.502    -3991076.865 8  -1577990.572 8
  20736482.782    20736487.468    -2257445.594 9   -318513.341 8
 86  6 19 23 15 59.0800000  0  4G 6G 8G 9G11
  20720253.039    20720256.176    -2162312.048 9   -362501.518 9
  21513604.991    21513606.893     2108091.907 9   3099752.256 8
  22693797.926    22693799.750    -4008371.319 9  -1591466.751 9
  20735207.146    20735210.580    -2264152.921 9   -323739.807 8
 86  6 19 23 16  5.0800000  0  4G 6G 8G 9G11
  20719022.459    20719024.334    -2168778.541 9   -367540.352 8
  21516461.921    21516464.496     2123106.553 9   3111451.970 8
  22690506.826    22690509.910    -4025663.963 9  -1604941.539 8
  20733934.920    20733939.326    -2270836.841 9   -328948.059 8
 86  6 19 23 16 11.0800000  0  4G 6G 8G 9G11
  20717794.187    20717795.589    -2175233.146 9   -372569.907 8
  21519323.101    21519326.306     2138140.206 8   3123166.499 7
  22687217.264    22687220.234    -4042954.898 8  -1618414.994 8
  20732667.847    20732670.803    -2277497.492 9   -334138.172 8
 86  6 19 23 16 17.0800000  0  4G 6G 8G 9G11
  20716567.656    20716570.837    -2181675.606 9   -377590.015 9
  21522187.472    21522190.519     2153193.061 8   3134895.986 8
  22683926.715    22683929.584    -4060243.879 9  -1631886.938 9
  20731404.935    20731408.452    -2284134.669 9   -339309.985 7
 86  6 19 23 16 23.0800000  0  4G 6G 8G 9G11
  20715344.345    20715345.719    -2188106.118 9   -382600.782 9
  21525054.992    21525057.795     2168264.890 9   3146640.259 8
  22680636.889    22680639.614    -4077531.136 9  -1645357.506 8
  20730146.542    20730147.936    -2290748.528 9   -344463.644 8
 86  6 19 23 16 29.0800000  0  4G 6G 8G 9G11
  20714122.966    20714124.626    -2194524.403 9   -387602.054 8
  21527926.617    21527930.165     2183355.881 9   3158399.488 8
  22677347.464    22677351.026    -4094816.494 9  -1658826.617 8
  20728892.895    20728894.581    -2297338.833 9   -349598.939 8
 86  6 19 23 16 35.0800000  0  4G 6G 8G 9G11
  20712904.223    20712905.169    -2200930.666 9   -392593.933 8
  21530802.764    21530806.484     2198465.871 8   3170173.479 9
  22674058.953    22674062.609    -4112100.015 9  -1672294.290 9
  20727643.615    20727646.089    -2303905.760 9   -354716.029 8
 86  6 19 23 16 41.0800000  0  4G 6G 8G 9G11
  20711687.402    20711687.946    -2207324.730 9   -397576.331 9
  21533680.858    21533684.521     2213594.965 8   3181962.400 7
  22670769.600    22670772.825    -4129381.602 9  -1685760.455 8
  20726397.876    20726399.987    -2310449.221 9   -359814.826 7
 86  6 19 23 16 47.0800000  0  4G 6G 8G 9G11
                  20710472.888    -2213706.716 9
  21536564.017    21536567.335     2228742.934 9   3193766.010 8
  22667482.062    22667484.588    -4146661.449 8  -1699225.262 8
  20725156.982    20725158.452    -2316969.331 9   -364895.432 7
 86  6 19 23 16 53.0800000  0  4G 6G 8G 9G11
  20709261.443    20709261.958    -2220076.643 9   -356435.383 2
  21539449.264    21539452.955     2243909.815 8   3205584.352 8
  22664193.802    22664195.499    -4163939.318 9  -1712688.543 9
  20723920.970    20723923.262    -2323466.040 9   -369957.803 7
 86  6 19 23 16 59.0800000  0  4G 6G 8G 9G11
  20708051.443    20708051.765    -2226434.186 9   -361389.305 8
  21542340.322    21542342.669     2259095.820 9   3217417.599 8
  22660906.531    22660909.499    -4181215.055 9  -1726150.145 8
  20722689.284    20722690.746    -2329939.111 9   -375001.744 7
 86  6 19 23 17  5.0800000  0  4G 6G 8G 9G11
  20706843.829    20706844.813    -2232779.613 9   -366334.295 8
  21545233.040    21545237.102     2274300.712 9   3229265.562 8
  22657619.730    22657621.885    -4198488.941 9  -1739610.311 9
  20721462.152    20721463.335    -2336388.750 9   -380027.441 7
 86  6 19 23 17 11.0800000  0  4G 6G 8G 9G11
  20705638.194    20705638.591    -2239113.027 9   -371269.425 9
  21548130.065    21548133.227     2289524.253 9   3241128.047 8
  22654332.995    22654335.685    -4215761.121 8  -1753069.147 9
  20720238.655    20720239.738    -2342815.143 9   -385035.016 8
 86  6 19 23 17 17.0800000  0  4G 6G 8G 9G11
  20704435.750    20704436.698    -2245434.060 9   -376194.905 8
  21551030.152    21551034.873     2304766.832 9   3253005.376 7
  22651046.588    22651048.313    -4233031.129 9  -1766526.304 8
  20719018.932    20719021.955    -2349217.854 8   -390024.136 7
 86  6 19 23 17 23.0800000  0  4G 6G 8G 9G11
  20703234.822    20703235.944    -2251743.065 9   -381111.009 8
  21553935.045    21553938.752     2320028.000 8   3264897.198 7
  22647760.955    22647763.852    -4250299.369 9  -1779982.056 9
  20717805.172    20717808.442    -2355597.326 9   -394995.146 7
 86  6 19 23 17 29.0800000  0  4G 6G 8G 9G11
  20702036.208    20702038.465    -2258039.576 9   -386017.384 9
  21556842.973    21556845.636     2335308.231 8   3276803.854 8
  22644475.363    22644477.524    -4267565.318 9  -1793436.041 8
  20716595.413    20716597.205    -2361953.045 8   -399947.638 7
 86  6 19 23 17 35.0800000  0  4G 6G 8G 9G11
  20700840.590    20700841.666    -2264323.971 9   -390914.309 8
  21559754.021    21559757.327     2350607.091 8   3288725.034 7
  22641190.388    22641192.270    -4284829.463 9  -1806888.603 8
                  20715390.368    -2368285.465 9
 86  6 19 23 17 41.0800000  0  4G 6G 8G 9G11
  20699646.309    20699648.978    -2270596.161 9   -395801.723 8
  21562668.503    21562672.596     2365924.594 9   3300660.753 8
  22637904.912    22637907.545    -4302091.626 9  -1820339.635 8
  20714189.304    20714190.773    -2374594.526 9   -358594.642 1
 86  6 19 23 17 47.0800000  0  4G 6G 8G 9G11
  20698455.091    20698457.987    -2276856.084 9   -400679.582 8
  21565586.977    21565590.526     2381260.823 8   3312611.048 7
  22634621.117    22634623.169    -4319351.790 9  -1833789.107 7
  20712993.341    20712996.696    -2380880.113 9   -363492.488 7
 86  6 19 23 17 53.0800000  0  4G 6G 8G 9G11
  20697266.519    20697268.386    -2283103.641 9   -405547.815 8
  21568509.042    21568512.806     2396615.779 9   3324575.933 7
  22631336.949    22631338.731    -4336609.825 9  -1847236.922 9
  20711800.720    20711803.291    -2387142.178 9   -368371.548 7
 86  6 19 23 17 59.0800000  0  4G 6G 8G 9G11
                  20696081.816                     -410406.193 8
  21571434.786    21571438.463     2411989.705 9   3336555.624 8
  22628053.897    22628055.064    -4353865.565 9  -1860682.954 8
  20710613.536    20710616.268    -2393380.495 8   -373232.547 7
 86  6 19 23 18  5.0800000  0  4G 6G 8G 9G11
  20694895.641    20694896.079    -2325626.192 1   -415255.010 9
  21574363.820    21574366.239     2427382.219 9   3348549.781 8
  22624770.676    22624771.748    -4371119.354 9  -1874127.450 9
  20709430.820    20709434.391    -2399595.373 8   -378075.323 6
 86  6 19 23 18 11.0800000  0  4G 6G 8G 9G11
  20693713.574    20693716.281    -2331836.694 9   -420094.330 8
  21577296.690    21577299.050     2442793.208 9   3360558.344 8
  22621487.804    22621489.728    -4388371.145 9  -1887570.401 8
                  20708255.488                     -382899.904 6
 86  6 19 23 18 17.0800000  0  4G 6G 8G 9G11
  20692533.424    20692536.818    -2338034.859 9   -424924.077 8
  21580232.034    21580235.783     2458222.672 9   3372581.302 7
  22618205.661    22618205.397    -4405620.984 9  -1901011.827 9
  20707078.128    20707081.082    -2442066.594 1   -387706.266 7
 86  6 19 23 18 23.0800000  0  4G 6G 8G 9G11
  20691357.287    20691359.471    -2344220.574 9   -429744.112 8
  21583172.244    21583174.920     2473670.742 9   3384618.753 8
  22614922.632    22614924.828    -4422868.669 9  -1914451.593 8
  20705909.262    20705912.490    -2448211.274 8   -392494.322 7
 86  6 19 23 18 29.0800000  0  4G 6G 8G 9G11
  20690183.124    20690185.071    -2350393.617 9   -434554.271 9
  21586115.673    21586118.263     2489137.650 8   3396670.883 9
  22611641.498    22611642.879    -4440113.890 9  -1927889.408 8
  20704744.151    20704749.256    -2454332.655 8   -397263.846 7
 86  6 19 23 18 35.0800000  0  4G 6G 8G 9G11
  20689010.653    20689012.210    -2356554.194 9   -439354.711 9
  21589062.693    21589065.671     2504623.059 9   3408737.435 8
  22608360.322    22608361.588    -4457356.931 9  -1941325.539 9
  20703584.766    20703588.916    -2460429.981 8   -402015.014 7
 86  6 19 23 18 41.0800000  0  4G 6G 8G 9G11
  20687840.788    20687843.481    -2362702.328 9   -444145.476 9
  21592012.305    21592014.222     2520126.954 9   3420818.389 8
  22605079.002    22605081.106    -4474597.785 9  -1954759.962 8
  20702428.866    20702431.892    -2466503.784 9   -406747.840 7
 86  6 19 23 18 47.0800000  0  4G 6G 8G 9G11
  20686673.675    20686675.500    -2368838.213 9   -448926.668 8
  21594966.352    21594968.840     2535649.078 8   3432913.557 9
  22601799.578    22601800.531    -4491836.636 9  -1968192.828 8
  20701278.220    20701281.227    -2472554.335 9   -411462.543 6
 86  6 19 23 18 53.0800000  0  4G 6G 8G 9G11
  20685508.335    20685510.023    -2374961.647 9   -453698.180 8
  21597923.732    21597925.922     2551189.628 8   3445023.050 8
  22598519.032    22598520.370    -4509073.425 9  -1981624.097 8
  20700131.643    20700132.569    -2478581.434 8   -416158.998 7
 86  6 19 23 18 59.0800000  0  4G 6G 8G 9G11
  20684345.642    20684347.084    -2381072.618 9   -458459.971 8
  21600883.874    21600887.524     2566748.565 9   3457146.889 8
  22595239.479    22595240.552    -4526308.043 9  -1995053.652 7
  20698989.114    20698990.480    -2484585.027 9   -420837.109 6
 86  6 19 23 19  5.0800000  0  4G 6G 8G 9G11
  20683185.088    20683187.429    -2387171.034 9   -463211.983 8
  21603849.783    21603851.329     2582325.927 9   3469285.094 8
  22591960.735    22591961.801    -4543540.376 9  -2008481.442 9
  20697850.403    20697853.004    -2490565.086 9   -425496.894 7
 86  6 19 23 19 11.0800000  0  4G 6G 8G 9G11
  20682027.270    20682028.887    -2393256.628 9   -467954.002 9
  21606818.053    21606819.743     2597921.877 9   3481437.770 8
  22588681.083    22588683.387    -4560770.187 9  -2021907.272 8
                  20696719.735                     -430148.491 5
 86  6 19 23 19 17.0800000  0  4G 6G 8G 9G11
  20680871.488    20680872.510    -2399329.565 9   -472686.167 8
  21609788.341    21609790.303     2613536.262 9   3493604.819 7
  22585403.161    22585404.571    -4577997.674 8  -2035331.279 9
                  20695591.377                     -434785.267 4
 86  6 19 23 19 23.0800000  0  4G 6G 8G 9G11
                  20679720.173                     -477412.610 8
  21612763.594    21612767.013     2629168.884 9   3505786.075 8
  22582124.618    22582125.785    -4595222.937 9  -2048753.569 9
                  20694465.403                     -439390.001 6
 86  6 19 23 19 29.0800000  0  4G 6G 8G 9G11
  20678495.993    20678569.266    -2460547.760 1   -482125.163 8
  21615742.553    21615742.983     2644819.888 9   3517981.657 8
  22578847.162    22578848.829    -4612445.833 9  -2062173.986 8
  20693345.123    20693343.829    -2613706.241 7   -443976.723 7
 86  6 19 23 19 35.0800000  0  4G 6G 8G 9G11
  20677418.858    20677420.868    -2466583.093 8   -486827.971 9
  21618724.560    21618724.646     2660489.053 9   3530191.392 8
  22575570.535    22575570.851    -4629666.517 9  -2075592.697 9
  20692228.071    20692230.022    -2619568.425 8   -448544.602 7
 86  6 19 23 19 41.0800000  0  4G 6G 8G 9G11
  20676272.945    20676274.459    -2472605.853 9   -491521.038 9
  21621710.345    21621710.774     2676176.336 9   3542415.254 8
  22572293.866    22572295.969    -4646884.956 8  -2089009.665 8
  20691116.085    20691119.518    -2625407.622 8   -453094.249 7
 86  6 19 23 19 47.0800000  0  4G 6G 8G 9G11
  20675128.897    20675131.604    -2478615.738 9   -496204.057 9
  21624698.833    21624698.676     2691882.101 9   3554653.503 8
  22569017.648    22569019.673    -4664100.815 9  -2102424.606 8
  20690010.112    20690013.189    -2631222.543 8   -457625.344 7
 86  6 19 23 19 53.0800000  0  4G 6G 8G 9G11
  20673988.179    20673989.778    -2484612.949 9   -500877.197 8
  21627691.343    21627690.643     2707605.968 9   3566905.884 8
  22565741.129    22565743.211    -4681314.356 9  -2115837.761 8
  20688907.951    20688910.679    -2637013.937 9   -462138.127 8
 86  6 19 23 19 59.0800000  0  4G 6G 8G 9G11
  20672848.938    20672851.675    -2490597.696 9   -505540.638 8
  21630687.273    21630687.759     2723347.788 9   3579172.224 7
  22562466.371    22562468.788    -4698525.777 9  -2129249.247 7
  20687811.472    20687813.923    -2642782.036 8   -466632.745 7
 86  6 19 23 20  5.0800000  0  4G 6G 8G 9G11
  20671711.761    20671714.058    -2496569.603 9   -510194.081 8
  21633686.121    21633686.107     2739107.964 9   3591452.877 8
  22559192.049    22559193.279    -4715734.616 9  -2142658.735 8
  20686717.573    20686720.628    -2648526.334 8   -471108.805 7
 86  6 19 23 20 11.0800000  0  4G 6G 8G 9G11
  20670578.230    20670580.884    -2502528.695 9   -514837.525 8
  21636688.376    21636688.462     2754886.316 9   3603747.693 8
  22555917.382    22555919.957    -4732941.028 9  -2156066.330 8
  20685628.139    20685632.185    -2654247.016 9   -475566.486 8
 86  6 19 23 20 17.0800000  0  4G 6G 8G 9G11
  20669446.215    20669448.180    -2508475.044 9   -519471.036 8
  21639694.537    21639694.937     2770682.738 9   3616056.580 7
  22552643.403    22552644.485    -4750145.027 9  -2169472.039 9
  20684544.218    20684547.068    -2659944.140 8   -480005.808 7
 86  6 19 23 20 23.0800000  0  4G 6G 8G 9G11
  20668317.950    20668320.063    -2514408.684 9   -524094.651 9
  21642702.944    21642703.446     2786497.224 9   3628379.552 7
  22549370.233    22549372.372    -4767346.589 9  -2182875.833 8
  20683464.250    20683467.519    -2665617.705 8   -484426.759 7
 86  6 19 23 20 29.0800000  0  4G 6G 8G 9G11
  20667191.251    20667191.312    -2520329.741 9   -528708.469 9
  21645715.544    21645717.132     2802329.528 9   3640716.410 9
  22546096.018    22546099.796    -4784545.950 9  -2196277.932 8
  20682389.074    20682392.670    -2671267.989 9   -488829.584 7
 86  6 19 23 20 35.0800000  0  4G 6G 8G 9G11
  20666066.080    20666068.120    -2526238.069 9   -533312.359 9
  21648731.593    21648733.568     2818179.801 8   3653067.262 9
  22542825.115    22542827.082    -4801742.828 8  -2209678.096 9
  20681317.878    20681322.148    -2676894.655 9   -493214.009 7
 86  6 19 23 20 41.0800000  0  4G 6G 8G 9G11
  20664944.561    20664946.414    -2532133.335 9   -537906.076 8
  21651751.534    21651751.719     2834048.332 9   3665432.332 8
  22539551.831    22539555.709    -4818936.983 9  -2223076.140 7
  20680252.343    20680256.465    -2682497.472 9   -497579.843 7
 86  6 19 23 20 47.0800000  0  4G 6G 8G 9G11
  20663824.913    20663827.460    -2538015.885 9   -542489.869 8
  21654774.450    21654776.853     2849934.692 9   3677811.318 8
  22536280.327    22536284.096    -4836128.776 9  -2236472.315 8
  20679189.625    20679196.558    -2688076.785 8   -501927.350 7
 86  6 19 23 20 53.0800000  0  4G 6G 8G 9G11
  20662708.428    20662710.695    -2543885.441 9   -547063.555 9
  21657800.372    21657803.362     2865839.065 9   3690204.320 8
  22533010.475    22533013.087    -4853317.897 9  -2249866.438 8
  20678132.892    20678137.737    -2693632.373 8   -506256.382 7
 86  6 19 23 20 59.0800000  0  4G 6G 8G 9G11
  20661593.702    20661593.735    -2549742.127 9   -551627.203 8
  21660830.801    21660832.618     2881761.396 9   3702611.335 9
  22529740.002    22529742.571    -4870504.505 9  -2263258.599 8
  20677080.413    20677085.546    -2699164.376 8   -510567.033 7
 86  6 19 23 21  5.0800000  0  4G 6G 8G 9G11
  20660481.737    20660482.879    -2555585.939 9   -556180.814 9
  21663863.420    21663865.593     2897701.592 9   3715032.256 9
  22526469.457    22526472.370    -4887688.561 9  -2276648.767 8
                  20676033.445    -2704672.772 8
 86  6 19 23 21 11.0800000  0  4G 6G 8G 9G11
  20659372.031    20659372.708    -2561416.900 9   -560724.428 9
  21666900.717    21666903.322     2913659.651 9   3727467.088 8
  22523199.393    22523203.542    -4904870.063 9  -2290036.957 8
  20674990.084    20674993.839    -2710157.601 9   -468744.688 1
 86  6 19 23 21 17.0800000  0  4G 6G 8G 9G11
  20658264.750    20658265.727    -2567234.909 9   -565257.946 8
  21669940.061    21669943.882     2929635.525 9   3739915.815 9
  22519931.394    22519933.513    -4922048.968 9  -2303423.106 8
  20673951.114    20673954.920    -2715618.811 8   -473000.170 7
 86  6 19 23 21 23.0800000  0  4G 6G 8G 9G11
  20657160.963    20657161.461    -2573039.960 9   -569781.360 8
  21672983.268    21672987.217     2945629.206 9   3752378.413 8
  22516663.497    22516667.281    -4939225.257 9  -2316807.221 8
  20672916.091    20672920.737    -2721056.400 8   -477236.746 8
 86  6 19 23 21 29.0800000  0  4G 6G 8G 9G11
  20656057.604    20656058.641    -2578832.223 9   -574294.809 8
  21676031.756    21676034.101     2961640.574 9   3764854.793 8
  22513394.906    22513397.767    -4956399.080 9  -2330189.416 8
  20671886.237    20671889.477    -2726470.493 9   -481455.514 8
 86  6 19 23 21 35.0800000  0  4G 6G 8G 9G11
  20654957.938    20654958.652    -2584611.403 9   -578798.077 9
  21679081.717    21679083.905     2977669.828 9   3777345.114 8
  22510127.788    22510128.833    -4973570.219 9  -2343569.520 8
  20670860.854    20670864.975    -2731860.870 8   -485655.806 7
 86  6 19 23 21 41.0800000  0  4G 6G 8G 9G11
  20653860.366    20653861.207    -2590377.589 7   -583291.211 8
  21682135.600    21682137.201     2993716.807 9   3789849.262 8
  22506861.064    22506862.360    -4990738.665 8  -2356947.519 9
  20669839.677    20669842.890    -2737227.660 8   -489837.705 7
 86  6 19 23 21 47.0800000  0  4G 6G 8G 9G11
                  20652765.842    -2596130.733 9
  21685192.757    21685194.245     3009781.470 8   3802367.168 9
  22503594.367    22503595.557    -5007904.433 8  -2370323.447 7
  20668823.608    20668826.288    -2742570.775 8   -494001.170 7
 86  6 19 23 21 53.0800000  0  4G 6G 8G 9G11
  20651672.534    20651767.873    -2601870.863 9   -541673.044 1
  21688252.378    21688255.897     3025863.833 9   3814898.867 7
  22500327.737    22500328.632    -5025067.603 9  -2383697.339 8
  20667810.613    20667813.742    -2747890.259 8   -498146.228 8
 86  6 19 23 21 59.0800000  0  4G 6G 8G 9G11
  20650583.039    20650583.829    -2607597.946 9   -546135.655 5
  21691316.748    21691317.607     3041963.833 9   3827444.315 8
  22497062.844    22497064.390    -5042228.150 9  -2397069.180 8
  20666802.261    20666805.457    -2753186.147 8   -502272.891 8
 86  6 19 23 22  5.0800000  0  4G 6G 8G 9G11
  20649495.540    20649498.383    -2613312.027 9   -550588.181 7
  21694384.166    21694386.670     3058081.466 9   3840003.506 8
  22493796.980    22493799.418    -5059386.049 9  -2410438.969 8
  20665799.355    20665802.009    -2758458.470 9   -506381.182 8
 86  6 19 23 22 11.0800000  0  4G 6G 8G 9G11
  20648409.937    20648412.299    -2619013.003 9   -555030.513 8
  21697454.060    21697456.392     3074216.689 9   3852576.423 8
  22490533.525    22490534.176    -5076541.081 9  -2423806.521 8
  20664800.104    20664804.221    -2763707.201 8   -510471.099 7
 86  6 19 23 22 17.0800000  0  4G 6G 8G 9G11
  20647327.371    20647330.161    -2624700.915 9   -559462.645 8
  21700527.603    21700530.980     3090369.532 9   3865163.040 7
  22487269.698    22487270.391    -5093693.344 9  -2437171.927 8
  20663805.254    20663809.115    -2768932.265 9   -514542.565 7
 86  6 19 23 22 23.0800000  0  4G 6G 8G 9G11
  20646248.104    20646250.444    -2630375.768 9   -563884.607 8
  21703604.923    21703606.340     3106539.815 9   3877763.250 9
  22484005.828    22484007.108    -5110842.932 9  -2450535.223 8
  20662816.609    20662819.310    -2774133.781 8   -518595.700 8
 86  6 19 23 22 29.0800000  0  4G 6G 8G 9G11
  20645171.061    20645173.526    -2636037.465 9   -568296.315 8
  21706685.435    21706687.710     3122727.647 9   3890377.144 8
  22480743.275    22480743.490    -5127989.752 9  -2463896.372 8
  20661831.172    20661834.692    -2779311.627 9   -522630.398 8
 86  6 19 23 22 35.0800000  0  4G 6G 8G 9G11
  20644095.884    20644098.859    -2641686.047 9   -572697.805 8
  21709768.851    21709771.685     3138932.908 9   3903004.624 9
  22477480.428    22477482.003    -5145133.822 9  -2477255.387 8
  20660850.441    20660853.961    -2784465.896 9   -526646.701 9
 86  6 19 23 22 41.0800000  0  4G 6G 8G 9G11
  20643023.967    20643026.601    -2647321.468 9   -577089.041 7
                  21712858.921                     3915645.684 8
  22474217.446    22474219.364    -5162275.069 9  -2490612.200 9
  20659873.613    20659877.062    -2789596.552 9   -530644.598 7
 86  6 19 23 22 47.0800000  0  4G 6G 8G 9G11
  20641954.187    20641956.318    -2652943.720 9   -581470.015 7
  21715946.487    21715948.591     3111858.811 9   3928300.384 8
  22470956.990    22470957.776    -5179413.450 9  -2503966.786 9
  20658902.114    20658905.361    -2794703.511 9   -534624.044 8
 86  6 19 23 22 53.0800000  0  4G 6G 8G 9G11
  20640887.122    20640890.023    -2658552.760 9   -585840.689 9
  21719040.491    21719042.753     3128116.441 9   3940968.657 7
  22467696.826    22467697.792    -5196549.107 9  -2517319.243 6
  20657935.283    20657938.362    -2799786.730 9   -538585.001 8
 86  6 19 23 22 59.0800000  0  4G 6G 8G 9G11
  20639822.238    20639824.019    -2664148.602 9   -590201.079 8
  21722137.186    21722140.348     3144391.425 9   3953650.459 9
  22464435.962    22464437.250    -5213681.911 9  -2530669.473 8
  20656971.494    20656975.257    -2804846.325 9   -542527.532 8
 86  6 19 23 23  5.0800000  0  4G 6G 8G 9G11
  20638761.409    20638762.095    -2669731.213 9   -594551.183 9
  21725237.602    21725240.292     3160683.829 9   3966345.825 8
  22461177.028    22461177.529    -5230811.835 9  -2544017.459 9
  20656012.806    20656016.023    -2809882.299 9   -546451.658 7
 86  6 19 23 23 11.0800000  0  4G 6G 8G 9G11
  20637700.733    20637703.419    -2675300.539 9   -598890.910 8
  21728341.552    21728343.783     3176993.559 9   3979054.716 8
  22457916.694    22457918.403    -5247938.855 9  -2557363.178 8
  20655059.280    20655063.297    -2814894.581 8   -550357.338 7
 86  6 19 23 23 17.0800000  0  4G 6G 8G 9G11
  20636643.891    20636646.199    -2680856.632 9   -603220.333 8
  21731448.349    21731450.968     3193320.593 9   3991777.068 8
  22454658.826    22454658.491    -5265062.973 9  -2570706.642 8
  20654110.195    20654112.388    -2819883.227 8   -554244.598 7
 86  6 19 23 23 23.0800000  0  4G 6G 8G 9G11
  20635589.017    20635590.742    -2686399.482 9   -607539.436 8
  21734558.137    21734560.498     3209664.888 9   4004512.874 9
  22451400.159    22451400.689    -5282184.218 9  -2584047.889 8
  20653165.016    20653168.049    -2824848.231 9   -558113.434 8
 86  6 19 23 23 29.0800000  0  4G 6G 8G 9G11
  20634537.012    20634539.509    -2691928.988 9   -611848.130 8
  21737671.545    21737673.949     3226026.515 9   4017262.189 9
  22448143.000    22448143.722    -5299302.460 9  -2597386.766 8
  20652223.963    20652228.284    -2829789.532 8   -561963.791 8
 86  6 19 23 23 35.0800000  0  4G 6G 8G 9G11
                  20633487.611    -2697445.173 9
  21740788.859    21740789.947     3242405.305 9   4030024.885 8
  22444885.770    22444886.357    -5316417.813 9  -2610723.396 8
  20651287.541    20651292.638    -2834707.217 8   -565795.740 7
 86  6 19 23 23 41.0800000  0  4G 6G 8G 9G11
  20632439.858    20632442.577    -2702948.024 9   -569876.925 2
  21743908.421    21743911.468     3258801.330 9   4042800.989 8
  22441629.413    22441629.699    -5333530.233 9  -2624057.733 8
  20650357.028    20650360.903    -2839601.293 9   -569609.304 7
 86  6 19 23 23 47.0800000  0  4G 6G 8G 9G11
  20631394.263    20631397.665    -2708437.617 9   -574154.508 7
  21747031.388    21747034.508     3275214.457 9   4055590.441 8
  22438373.736    22438375.860    -5350639.719 9  -2637389.811 8
  20649429.424    20649434.028    -2844471.709 9   -573404.449 7
 86  6 19 23 23 53.0800000  0  4G 6G 8G 9G11
  20630352.074    20630355.765    -2713913.826 9   -578421.193 8
  21750158.618    21750160.750     3291644.756 9   4068393.264 9
  22435118.300    22435119.139    -5367746.206 9  -2650719.535 8
  20648507.758    20648512.323    -2849318.501 8   -577181.160 8
 86  6 19 23 23 59.0800000  0  4G 6G 8G 9G11
  20629313.055    20629316.039    -2719376.706 9   -582677.973 8
  21753288.568    21753291.116     3308092.156 9   4081209.420 8
  22431863.360    22431864.361    -5384849.656 9  -2664046.888 9
  20647590.235    20647594.582    -2854141.581 9   -580939.397 7
 86  6 19 23 24  5.0800000  0  4G 6G 8G 9G11
  20628275.985    20628277.641    -2724826.154 9   -586924.308 9
  21756421.423    21756425.115     3324556.700 9   4094038.920 8
  22428609.064    22428609.437    -5401950.067 9  -2677371.887 8
  20646675.141    20646681.671    -2858941.022 8   -584679.215 7
 86  6 19 23 24 11.0800000  0  4G 6G 8G 9G11
                  20627241.545    -2730262.170 9
                  21759560.330                     4106881.742 8
  22425354.924    22425356.433    -5419047.464 9  -2690694.525 8
  20645768.331    20645772.272    -2863716.810 8   -588400.601 7
 86  6 19 23 24 17.0800000  0  4G 6G 8G 9G11
  20626210.010    20626211.029    -2735684.767 9   -538741.570 8
  21762697.149    21762700.308     3296304.464 9   4119737.814 9
  22422102.294    22422103.805    -5436141.798 9  -2704014.780 7
  20644863.292    20644867.410    -2868468.943 9   -592103.557 7
 86  6 19 23 24 23.0800000  0  4G 6G 8G 9G11
  20625180.917    20625182.237    -2741093.884 8   -542956.459 9
  21765840.634    21765842.379     3312820.134 9   4132607.173 8
  22418850.116    22418850.917    -5453233.069 9  -2717332.643 7
  20643963.110    20643968.237    -2873197.461 9   -595788.106 7
 86  6 19 23 24 29.0800000  0  4G 6G 8G 9G11
  20624152.888    20624154.834    -2746489.538 9   -547160.871 9
  21768985.823    21768990.001     3329352.326 9   4145489.783 8
  22415598.960    22415600.347    -5470321.183 9  -2730648.048 9
  20643068.748    20643072.572    -2877902.290 8   -599454.209 7
 86  6 19 23 24 35.0800000  0  4G 6G 8G 9G11
  20623129.404    20623131.068    -2751871.650 9   -551354.728 8
  21772135.319    21772138.310     3345901.991 9   4158385.624 9
  22412346.586    22412348.268    -5487406.230 9  -2743961.080 8
  20642178.193    20642181.230    -2882583.450 8   -603101.878 7
 86  6 19 23 24 41.0800000  0  4G 6G 8G 9G11
  20622107.992    20622109.513    -2757240.269 9   -555538.064 7
  21775288.334    21775289.737     3362468.602 9   4171294.673 9
  22409096.591    22409099.144    -5504488.169 9  -2757271.665 8
  20641291.603    20641293.630    -2887240.918 8   -606731.071 7
 86  6 19 23 24 47.0800000  0  4G 6G 8G 9G11
  20621088.570    20621089.808    -2762595.377 9   -559710.873 8
  21778444.098    21778445.429     3379052.144 9   4184216.914 8
  22405846.344    22405847.453    -5521567.001 9  -2770579.842 8
  20640411.647    20640413.547    -2891874.685 8   -610341.787 6
 86  6 19 23 24 53.0800000  0  4G 6G 8G 9G11
  20620072.481    20620073.287    -2767936.977 9   -563873.159 8
  21781602.567    21781605.928     3395652.586 9   4197152.312 7
  22402596.270    22402598.686    -5538642.696 9  -2783885.571 7
  20639534.028    20639535.122    -2896484.779 8   -613934.078 7
 86  6 19 23 24 59.0800000  0  4G 6G 8G 9G11
  20619057.928    20619059.745    -2773265.063 9   -568024.931 8
  21784763.996    21784767.515     3412269.806 9   4210100.791 8
  22399348.339    22399350.042    -5555715.292 9  -2797188.883 8
  20638660.641    20638663.500    -2901071.208 9   -617507.915 6
 86  6 19 23 25  5.0800000  0  4G 6G 8G 9G11
  20618047.329    20618048.103    -2778579.545 8   -572166.076 8
  21787930.563    21787932.537     3428903.931 9   4223062.445 8
  22396099.787    22396101.712    -5572784.695 9  -2810489.728 8
  20637793.004    20637795.072    -2905634.001 9   -621063.352 7
 86  6 19 23 25 11.0800000  0  4G 6G 8G 9G11
  20617038.474    20617039.440    -2783880.477 9   -576296.681 8
  21791097.645    21791101.651     3445554.829 8   4236037.149 8
  22392851.458    22392853.898    -5589850.911 9  -2823788.060 8
  20636929.175    20636930.295    -2910173.117 8   -624600.317 7
 86  6 19 23 25 17.0800000  0  4G 6G 8G 9G11
  20616031.790    20616033.143    -2789167.785 9   -580416.650 8
                  21794273.068                     4249024.945 8
  22389605.381    22389607.692    -5606913.889 9  -2837083.878 7
  20636069.010    20636073.245    -2914688.567 8   -628118.857 7
 86  6 19 23 25 23.0800000  0  4G 6G 8G 9G11
  20615028.762    20615030.115    -2794441.434 9   -584525.983 8
  21797446.390    21797448.221     3425535.465 1   4262025.817 9
  22386359.335    22386360.730    -5623973.579 9  -2850377.148 8
  20635215.789    20635217.051    -2919180.348 9   -631618.941 7
 86  6 19 23 25 29.0800000  0  4G 6G 8G 9G11
  20614027.699    20614028.496    -2799701.531 9   -588624.751 8
  21800623.345    21800626.006     3442236.628 8   4275039.704 8
  22383113.187    22383115.468    -5641030.067 9  -2863667.900 8
  20634364.634    20634366.773    -2923648.461 9   -635100.595 7
 86  6 19 23 25 35.0800000  0  4G 6G 8G 9G11
  20613028.337    20613031.031    -2804947.905 8   -592712.844 8
  21803804.193    21803807.111     3458955.033 9   4288066.624 8
  22379867.805    22379870.881    -5658083.300 9  -2876956.132 8
  20633519.087    20633520.121    -2928092.883 9   -638563.778 6
 86  6 19 23 25 41.0800000  0  4G 6G 8G 9G11
  20612032.456    20612034.625    -2810180.615 9   -596790.274 8
  21806989.004    21806991.106     3475689.590 9   4301106.538 8
  22376624.061    22376626.050    -5675133.281 9  -2890241.829 8
  20632678.067    20632679.124    -2932513.661 9   -642008.528 6
 86  6 19 23 25 47.0800000  0  4G 6G 8G 9G11
  20611039.606    20611042.297    -2815399.599 8   -600857.022 8
  21810176.090    21810178.481     3492440.839 9   4314159.454 8
                  22373379.494    -5692179.936 8
  20631840.914    20631842.455    -2936910.743 9   -645434.832 7
 86  6 19 23 25 53.0800000  0  4G 6G 8G 9G11
  20610048.784    20610051.889    -2820604.984 8   -604913.161 8
  21813366.839    21813369.429     3509208.643 9   4327225.268 8
  22370136.137    22370138.777    -5709223.320 9  -2857137.980 1
  20631008.291    20631008.671    -2941284.177 9   -648842.701 7
 86  6 19 23 25 59.0800000  0  4G 6G 8G 9G11
  20609061.274    20609062.394    -2825796.565 9   -608958.552 8
  21816561.453    21816563.355     3525993.066 9   4340304.033 8
  22366893.782    22366896.164    -5726263.331 9  -2870415.906 7
  20630181.031    20630180.148    -2945633.961 9   -652232.136 7
 86  6 19 23 26  5.0800000  0  4G 6G 8G 9G11
  20608075.635    20608078.481    -2830974.436 8   -612993.274 8
  21819758.241    21819759.829     3542794.097 9   4353395.746 8
  22363651.440    22363654.266    -5743299.978 9  -2883691.715 8
  20629357.604    20629357.962    -2949960.058 9   -655603.114 6
 86  6 19 23 26 11.0800000  0  4G 6G 8G 9G11
  20607092.677    20607094.343    -2836138.532 9   -617017.223 7
  21822959.248    21822960.165     3559611.661 9   4366500.344 8
  22360410.008    22360413.076    -5760333.320 9  -2896964.433 8
  20628539.557    20628538.751    -2954262.420 9   -658955.595 6
 86  6 19 23 26 17.0800000  0  4G 6G 8G 9G11
  20606112.676    20606113.978    -2841288.877 9   -621030.488 8
  21826161.918    21826163.191     3576445.687 8   4379617.769 8
  22357169.634    22357171.681    -5777363.295 9  -2910234.541 8
  20627725.081    20627723.556    -2958541.091 9   -662289.620 8
 86  6 19 23 26 23.0800000  0  4G 6G 8G 9G11
  20605135.243    20605137.579    -2846425.382 9   -625032.972 8
  21829368.565    21829369.767     3593296.284 9   4392748.099 8
  22353930.104    22353931.728    -5794389.865 9  -2923502.001 8
  20626915.597    20626915.540    -2962795.963 9   -665605.113 6
 86  6 19 23 26 29.0800000  0  4G 6G 8G 9G11
  20604161.069    20604163.673    -2851548.173 9   -629024.766 8
  21832577.616    21832579.605     3610163.281 9   4405891.203 9
  22350690.260    22350692.529    -5811413.042 9  -2936766.817 8
  20626110.972    20626110.523    -2967027.202 9   -668902.184 6
 86  6 19 23 26 35.0800000  0  4G 6G 8G 9G11
  20603188.645    20603191.328    -2856657.104 9   -633005.751 7
  21835791.017    21835793.192     3627046.740 9   4419047.143 8
  22347450.895    22347452.898    -5828432.793 9  -2950028.946 8
  20625309.268    20625309.002    -2971234.764 9   -672180.802 6
 86  6 19 23 26 41.0800000  0  4G 6G 8G 9G11
  20602219.563    20602221.948    -2861752.157 9   -636975.934 9
  21839007.923    21839009.010     3643946.646 9   4432215.894 8
  22344213.704    22344215.142    -5845449.058 9  -2963288.370 9
  20624513.494    20624514.677    -2975418.604 9   -675440.917 6
 86  6 19 23 26 47.0800000  0  4G 6G 8G 9G11
  20601252.160    20601255.837    -2866833.341 9   -640935.296 8
  21842225.431    21842228.550     3660862.927 8   4445397.410 9
  22340976.121    22340977.502    -5862461.871 9  -2976545.100 8
  20623721.619    20623722.718    -2979578.775 9   -678682.616 7
 86  6 19 23 26 53.0800000  0  4G 6G 8G 9G11
  20600287.943    20600291.187    -2871900.608 9   -644883.813 8
  21845447.245    21845450.408     3677795.583 9   4458591.679 8
  22337738.931    22337741.120    -5879471.160 9  -2989799.079 8
  20622934.477    20622935.569    -2983715.236 9   -681905.835 7
 86  6 19 23 26 59.0800000  0  4G 6G 8G 9G11
  20599325.747    20599329.412    -2876953.982 9   -648821.521 8
  21848673.796    21848676.787     3694744.585 9   4471798.691 8
  22334503.064    22334504.646    -5896476.935 9  -3003050.328 8
  20622152.054    20622153.117    -2987828.009 9   -685110.578 6
 86  6 19 23 27  5.0800000  0  4G 6G 8G 9G11
  20598367.262    20598369.329    -2881993.496 9   -652748.415 8
  21851902.164    21851905.512     3711709.841 8   4485018.361 9
  22331267.163    22331270.367    -5913479.237 9  -3016298.872 8
  20621373.613    20621375.058    -2991917.172 9   -688296.935 7
 86  6 19 23 27 11.0800000  0  4G 6G 8G 9G11
  20597411.386    20597413.790    -2887019.050 9   -656664.421 8
  21855133.823    21855135.812     3728691.427 9   4498250.774 8
  22328033.135    22328035.116    -5930478.027 9  -3029544.674 7
  20620600.436    20620601.166    -2995982.637 9   -691464.817 7
 86  6 19 23 27 17.0800000  0  4G 6G 8G 9G11
  20596457.425    20596461.173    -2892030.637 9   -660569.562 7
  21858367.545    21858370.262     3745689.285 9   4511495.841 8
  22324798.992    22324800.451    -5947473.245 9  -3042787.695 8
  20619831.431    20619832.229    -3000024.400 9   -694614.230 6
 86  6 19 23 27 23.0800000  0  4G 6G 8G 9G11
  20595507.154    20595507.967    -2897028.248 9   -664463.796 8
  21861606.772    21861609.119     3762703.418 9   4524753.602 8
  22321565.838    22321567.397    -5964464.841 8  -3056027.886 9
  20619066.531    20619067.933    -3004042.400 9   -697745.145 7
 86  6 19 23 27 29.0800000  0  4G 6G 8G 9G11
  20594558.955    20594561.116    -2902011.928 8   -668347.178 8
  21864847.390    21864849.178     3779733.661 9   4538023.912 8
  22318332.984    22318334.335    -5981452.929 9  -3069265.365 9
  20618306.443    20618308.250    -3008036.777 9   -700857.640 7
 86  6 19 23 27 35.0800000  0  4G 6G 8G 9G11
  20593613.451    20593615.615    -2906981.587 9   -672219.641 8
  21868091.512    21868093.301     3796780.097 9   4551306.854 9
  22315099.980    22315102.819    -5998437.368 9  -3082499.977 7
  20617552.091    20617551.283    -3012007.426 9   -703951.634 7
 86  6 19 23 27 41.0800000  0  4G 6G 8G 9G11
  20592670.837    20592672.157    -2911937.292 9   -676081.215 7
  21871338.468    21871340.572     3813842.609 9   4564602.311 9
  22311869.736    22311870.115    -6015418.295 9  -3095731.869 8
  20616799.653    20616802.427    -3015954.435 9   -707027.223 7
 86  6 19 23 27 47.0800000  0  4G 6G 8G 9G11
  20591730.697    20591731.649    -2916879.008 8   -679931.906 8
  21874588.056    21874590.104     3830921.263 9   4577910.341 8
  22308638.133    22308640.509    -6032395.660 8  -3108960.976 9
  20616054.219    20616055.477    -3019877.794 9   -710084.375 6
 86  6 19 23 27 53.0800000  0  4G 6G 8G 9G11
  20590793.013    20590794.129    -2921806.667 9   -683771.632 8
  21877842.124    21877842.725     3848015.929 9   4591230.867 8
  22305407.783    22305411.504    -6049369.368 9  -3122187.230 8
  20615312.300    20615313.408    -3023777.487 9   -713123.108 6
 86  6 19 23 27 59.0800000  0  4G 6G 8G 9G11
  20589857.531    20589857.656    -2926720.265 9   -687600.413 8
  21881097.336    21881099.240     3865126.725 9   4604563.951 8
  22302179.679    22302182.161    -6066339.487 9  -3135410.697 9
  20614573.954    20614576.619    -3027653.484 9   -716143.357 8
 86  6 19 23 28  5.0800000  0  4G 6G 8G 9G11
  20588925.945    20588925.673    -2931619.742 9   -691418.188 8
  21884356.841    21884358.272     3882253.555 9   4617909.528 8
  22298950.517    22298953.336    -6083305.889 9  -3148631.254 7
  20613841.151    20613842.686    -3031505.794 9   -719145.154 7
 86  6 19 23 28 11.0800000  0  4G 6G 8G 9G11
  20587995.257    20587995.490    -2936505.128 9   -695224.984 8
  21887618.607    21887621.683     3899396.432 9   4631267.610 8
  22295723.643    22295726.083    -6100268.568 9  -3161848.933 9
  20613112.781    20613114.176    -3035334.473 9   -722128.542 6
 86  6 19 23 28 17.0800000  0  4G 6G 8G 9G11
  20587067.503    20587069.152    -2941376.332 9   -699020.722 8
  21890883.879    21890885.840     3916555.313 9   4644638.152 9
  22292494.825    22292497.422    -6117227.513 9  -3175063.677 9
                  20612389.068    -3039139.363 9
 86  6 19 23 28 23.0800000  0  4G 6G 8G 9G11
  20586143.519    20586144.180    -2946233.456 9   -702805.500 8
  21894152.685    21894154.317     3933730.144 9   4658021.152 8
  22289268.144    22289272.117    -6134182.680 9  -3188275.497 9
  20611668.448    20611670.474    -3042920.560 9   -678833.275 1
 86  6 19 23 28 29.0800000  0  4G 6G 8G 9G11
  20585221.570    20585223.251    -2951076.419 8   -706579.228 9
  21897423.552    21897425.656     3950920.900 9   4671416.532 8
  22286043.961    22286046.422    -6151134.130 9  -3201484.411 9
  20610953.599    20610955.717    -3046678.075 9   -681761.214 7
 86  6 19 23 28 35.0800000  0  4G 6G 8G 9G11
                  20584303.831                     -710341.938 7
  21900696.780    21900700.000     3968127.590 9   4684824.332 7
  22282818.898    22282821.911    -6168081.855 9  -3214690.415 8
  20610243.164    20610244.966    -3050411.972 8   -684671.233 6
 86  6 19 23 28 41.0800000  0  4G 6G 8G 9G11
  20583438.755    20583387.471    -2992320.819 9   -714093.651 8
  21903974.028    21903977.634     3985350.096 9   4698244.452 9
  22279593.929    22279596.963    -6185025.894 9  -3227893.566 8
  20609537.153    20609538.523    -3054122.196 9   -687562.324 7
 86  6 19 23 28 47.0800000  0  4G 6G 8G 9G11
  20582473.110    20582474.631    -2997121.341 5   -717834.243 8
  21907255.369    21907257.072     4002588.503 9   4711676.983 8
  22276370.261    22276372.837    -6201966.050 8  -3241093.672 8
  20608835.190    20608837.115    -3057808.708 9   -690434.924 7
 86  6 19 23 28 53.0800000  0  4G 6G 8G 9G11
  20581561.647    20581564.834    -3001907.574 9   -721563.760 8
  21910538.598    21910541.030     4019842.726 9   4725121.823 8
  22273146.951    22273149.884    -6218902.417 9  -3254290.828 8
  20608138.901    20608141.942    -3061471.590 9   -693289.123 7
 86  6 19 23 28 59.0800000  0  4G 6G 8G 9G11
  20580654.033    20580657.027    -3006679.604 8   -725282.227 8
  21913824.675    21913828.195     4037112.742 9   4738578.963 9
  22269925.814    22269927.812    -6235834.917 9  -3267484.984 9
  20607446.351    20607447.349    -3065110.754 9   -696124.832 8
 86  6 19 23 29  5.0800000  0  4G 6G 8G 9G11
  20579747.702    20579750.841    -3011437.400 8   -728989.588 8
  21917113.515    21917116.562     4054398.485 9   4752048.361 8
  22266703.536    22266706.340    -6252763.619 9  -3280676.169 9
  20606757.838    20606760.803    -3068726.269 8   -698942.111 8
 86  6 19 23 29 11.0800000  0  4G 6G 8G 9G11
  20578845.078    20578848.723    -3016180.906 9   -732685.832 8
  21920405.802    21920408.679     4071699.972 9   4765530.032 9
  22263483.252    22263485.226    -6269688.446 9  -3293864.341 9
  20606074.431    20606077.291    -3072318.055 9   -701740.901 6
 86  6 19 23 29 17.0800000  0  4G 6G 8G 9G11
                  20577948.857                     -736370.959 7
  21923700.880    21923704.228     4089017.220 9   4779023.998 9
  22260263.677    22260266.931    -6286609.511 9  -3307049.579 8
  20605395.756    20605398.246    -3075886.157 9   -704521.255 6
 86  6 19 23 29 23.0800000  0  4G 6G 8G 9G11
  20577047.902    20577051.852    -3057317.548 1   -740044.879 8
  21926999.978    21927002.639     4106350.224 9   4792530.212 9
  22257043.722    22257046.491    -6303526.556 8  -3320231.686 9
  20604721.993    20604723.281    -3079430.569 9   -707283.141 7
 86  6 19 23 29 29.0800000  0  4G 6G 8G 9G11
  20576153.765    20576157.072    -3062018.117 7   -743707.659 8
  21930301.166    21930304.314     4123698.859 9   4806048.627 9
  22253825.556    22253828.117    -6320439.660 9  -3333410.713 9
  20604050.413    20604053.418    -3082951.283 9   -710026.542 7
 86  6 19 23 29 35.0800000  0  4G 6G 8G 9G11
  20575262.503    20575265.990    -3066703.786 8   -747359.239 8
  21933605.573    21933608.594     4141063.210 9   4819579.283 8
  22250607.540    22250610.631    -6337348.729 9  -3346586.603 9
  20603385.000    20603388.051    -3086448.261 9   -712751.458 7
 86  6 19 23 29 41.0800000  0  4G 6G 8G 9G11
  20574373.348    20574374.818    -3071375.556 4   -750999.582 8
  21936913.029    21936915.905     4158443.174 9   4833122.097 9
  22247391.142    22247393.674    -6354253.832 9  -3359759.409 8
  20602725.052    20602727.784    -3089921.579 9   -715457.939 8
 86  6 19 23 29 47.0800000  0  4G 6G 8G 9G11
  20573488.045    20573489.569    -3076033.115 9   -754628.833 9
  21940223.617    21940226.193     4175838.666 9   4846677.036 8
  22244175.573    22244177.318    -6371155.063 9  -3372929.194 8
  20602067.594    20602070.893    -3093371.301 9   -718146.037 8
 86  6 19 23 29 53.0800000  0  4G 6G 8G 9G11
  20572604.126    20572605.522    -3080676.216 9   -758246.841 8
  21943536.524    21943538.227     4193249.742 9   4860244.105 8
  22240959.303    22240962.557    -6388052.370 9  -3386095.917 8
  20601415.381    20601417.785    -3096797.293 9   -720815.650 7
 86  6 19 23 29 59.0800000  0  4G 6G 8G 9G11
  20571723.092    20571723.923    -3085304.884 9   -761853.589 7
  21946852.593    21946854.296     4210676.375 9   4873823.292 8
  22237745.465    22237746.790    -6404945.629 9  -3399259.483 8
  20600766.996    20600770.541    -3100199.602 9   -723466.797 8
 86  6 19 23 30  5.0800000  0  4G 6G 8G 9G11
                  20570848.052                     -765447.725 6
  21950171.639    21950173.829     4228118.522 9   4887414.569 9
  22234532.500    22234533.209    -6421834.842 8  -3412419.913 8
  20600124.105    20600127.278    -3103578.215 9   -726099.478 7
 86  6 19 23 30 11.0800000  0  4G 6G 8G 9G11
                  20569971.332                     -769032.383 7
  21953492.774    21953496.509     4245576.143 9   4901017.902 8
  22231318.420    22231320.675    -6438720.076 9  -3425577.237 8
  20599484.894    20599489.453    -3106933.212 8   -728713.768 8
 86  6 19 23 30 17.0800000  0  4G 6G 8G 9G11
  20569097.168    20569097.471    -3149966.848 4   -772605.409 8
  21956818.316    21956820.991     4263049.194 9   4914633.271 9
  22228106.413    22228108.559    -6455601.277 9  -3438731.404 9
  20598851.634    20598855.434    -3110264.532 9   -731309.604 8
 86  6 19 23 30 23.0800000  0  4G 6G 8G 9G11
  20568227.867    20568229.369    -3154537.754 9   -776167.164 8
  21960146.534    21960148.651     4280537.732 9   4928260.689 8
  22224893.521    22224895.832    -6472478.348 9  -3451882.364 8
  20598222.793    20598226.272    -3113572.123 9   -733886.940 7
 86  6 19 23 30 29.0800000  0  4G 6G 8G 9G11
  20567360.204    20567362.869    -3159093.598 9   -779717.565 9
  21963477.255    21963480.375     4298041.731 9   4941900.161 9
  22221683.719    22221685.364    -6489351.264 9  -3465030.085 8
  20597596.485    20597601.980    -3116855.989 9   -736445.796 8
 86  6 19 23 30 35.0800000  0  4G 6G 8G 9G11
  20566497.052    20566496.530    -3163635.482 9   -783256.699 8
  21966811.168    21966814.789     4315561.038 9   4955551.562 9
  22218473.294    22218475.519    -6506220.155 9  -3478174.679 8
  20596977.105    20596981.575    -3120116.226 9   -738986.242 8
 86  6 19 23 30 41.0800000  0  4G 6G 8G 9G11
  20565635.374    20565636.332    -3168162.800 9   -786784.476 7
  21970147.986    21970150.547     4333095.694 9   4969214.923 9
  22215264.279    22215266.397    -6523084.944 9  -3491316.063 8
  20596362.442    20596366.002    -3123352.827 8   -741508.256 8
 86  6 19 23 30 47.0800000  0  4G 6G 8G 9G11
  20564775.834    20564776.829    -3172675.688 9   -790301.010 7
  21973488.009    21973490.885     4350645.626 9   4982890.192 8
  22212055.915    22212058.018    -6539945.655 9  -3504454.276 8
  20595749.459    20595754.159    -3126565.849 8   -744011.906 7
 86  6 19 23 30 53.0800000  0  4G 6G 8G 9G11
  20563920.091    20563920.853    -3177173.959 9   -793806.160 8
  21976830.578    21976833.798     4368210.908 9   4996577.417 9
  22208848.444    22208850.483    -6556802.148 9  -3517589.195 8
  20595142.884    20595147.509    -3129755.135 9   -746497.071 8
 86  6 19 23 30 59.0800000  0  4G 6G 8G 9G11
  20563066.949    20563068.490    -3181657.739 9   -797300.023 8
  21980176.569    21980179.201     4385791.368 9   5010276.475 9
  22205641.275    22205643.814    -6573654.486 9  -3530720.884 8
  20594540.567    20594544.166    -3132920.822 9   -748963.822 7
 86  6 19 23 31  5.0800000  0  4G 6G 8G 9G11
  20562216.027    20562218.477    -3186126.851 9   -800782.446 8
  21983524.948    21983527.839     4403387.118 9   5023987.443 8
  22202434.772    22202437.576    -6590502.575 9  -3543849.276 9
  20593943.018    20593946.692    -3136062.789 9   -751412.105 8
 86  6 19 23 31 11.0800000  0  4G 6G 8G 9G11
  20561367.715    20561371.580    -3190581.393 9   -804253.502 8
  21986875.246    21986878.594     4420998.099 9   5037710.283 9
  22199230.142    22199231.057    -6607346.453 9  -3556974.366 8
  20593349.822    20593353.430    -3139181.078 9   -753841.941 8
 86  6 19 23 31 17.0800000  0  4G 6G 8G 9G11
  20560523.693    20560525.874    -3195021.253 9   -807713.155 8
  21990229.534    21990232.583     4438624.296 9   5051444.975 8
  22196025.484    22196026.715    -6624186.199 9  -3570096.235 7
  20592759.637    20592764.145    -3142275.719 9   -756253.344 7
 86  6 19 23 31 23.0800000  0  4G 6G 8G 9G11
  20559681.951    20559684.566    -3199446.525 9   -811161.411 7
  21993586.843    21993590.204     4456265.631 9   5065191.465 8
  22192821.970    22192824.196    -6641021.656 9  -3583214.775 8
  20592175.757    20592180.454    -3145346.688 8   -758646.304 7
 86  6 19 23 31 29.0800000  0  4G 6G 8G 9G11
  20558842.506    20558843.775    -3203857.106 9   -814598.230 8
  21996946.684    21996949.489     4473922.148 9   5078949.783 8
  22189618.657    22189620.437    -6657852.798 9  -3596329.946 8
  20591596.399    20591599.808    -3148394.010 6   -761020.813 7
 86  6 19 23 31 35.0800000  0  4G 6G 8G 9G11
  20558006.398    20558007.475    -3208253.039 8   -818023.642 8
  22000310.446    22000312.634     4491593.755 9   5092719.866 8
  22186417.276    22186418.743    -6674679.688 9  -3609441.807 8
  20591022.211    20591025.177    -3151417.699 9   -763376.939 7
 86  6 19 23 31 41.0800000  0  4G 6G 8G 9G11
  20557172.456    20557173.603    -3212634.288 9   -821437.593 7
  22003675.281    22003677.784     4509280.417 9   5106501.688 8
  22183216.352    22183216.496    -6691502.321 9  -3622550.344 8
  20590451.331    20590454.114    -3154417.679 9   -765714.575 8
 86  6 19 23 31 47.0800000  0  4G 6G 8G 9G11
  20556341.681    20556342.639    -3217000.841 9   -824840.107 8
  22007044.537    22007046.969     4526982.173 8   5120295.242 8
  22180014.843    22180016.603    -6708320.707 9  -3635655.574 9
  20589885.094    20589888.031    -3157393.997 9   -768033.782 7
 86  6 19 23 31 53.0800000  0  4G 6G 8G 9G11
  20555513.250    20555514.812    -3221352.628 9   -828231.102 7
  22010416.083    22010417.901     4544698.947 9   5134100.533 9
  22176814.907    22176816.953    -6725134.679 9  -3648757.366 8
  20589323.209    20589326.299    -3160346.662 9   -770334.555 6
 86  6 19 23 31 59.0800000  0  4G 6G 8G 9G11
  20554688.274    20554688.872    -3225689.666 9   -831610.622 8
  22013790.406    22013792.151     4562430.711 9   5147917.480 8
  22173616.716    22173619.099    -6741944.333 1  -3661855.847 8
  20588765.997    20588767.872    -3163275.743 9   -772616.952 8
 86  6 19 23 32  5.0800000  0  4G 6G 8G 9G11
  20553865.056    20553866.669    -3230012.019 9   -834978.678 7
  22017167.417    22017168.748     4580177.451 9   5161746.105 9
  22170418.955    22170420.973    -6758749.671 9  -3674950.865 9
                  20588213.476    -3166181.191 8
 86  6 19 23 32 11.0800000  0  4G 6G 8G 9G11
  20553045.200    20553046.855    -3234319.566 9   -838335.210 8
  22020547.120    22020548.350     4597939.104 9   5175586.361 8
  22167221.531    22167223.541    -6775550.552 9  -3688042.455 8
  20587666.256    20587667.664    -3169063.040 9   -728634.030 1
 86  6 19 23 32 17.0800000  0  4G 6G 8G 9G11
  20552228.080    20552230.252    -3238612.375 9   -841680.265 7
                  22023930.414     4615715.631 9
  22164024.421    22164027.983    -6792347.102 9  -3701130.685 7
  20587120.847    20587121.116    -3171921.247 9   -730861.206 7
 86  6 19 23 32 23.0800000  0  4G 6G 8G 9G11
  20551414.320    20551416.134    -3242890.421 9   -845013.800 8
  22027316.741    22027316.805     4633507.023 9   5235365.621 1
  22160829.522    22160831.295    -6809139.248 9  -3714215.464 8
  20586581.055    20586583.221    -3174755.863 9   -733069.492 9
 86  6 19 23 32 29.0800000  0  4G 6G 8G 9G11
  20550603.584    20550604.460    -3247153.568 9   -848335.735 7
  22030704.613    22030706.138     4651313.341 9   5249240.649 7
  22157635.022    22157638.377    -6825926.906 9  -3727296.770 9
  20586046.302    20586047.640    -3177566.859 9   -735259.866 7
 86  6 19 23 32 35.0800000  0  4G 6G 8G 9G11
  20549794.573    20549795.692    -3251401.879 9   -851646.092 8
  22034095.205    22034096.342     4669134.492 9   5263127.273 8
  22154441.346    22154442.657    -6842710.131 9  -3740374.593 8
  20585515.762    20585518.546    -3180354.192 9   -737431.816 7
 86  6 19 23 32 41.0800000  0  4G 6G 8G 9G11
  20548989.064    20548990.918    -3255635.399 9   -854944.938 7
                  22037488.330     4686970.452 9
  22151248.043    22151249.625    -6859488.955 9  -3753449.014 8
  20584989.886    20584990.935    -3183117.940 9   -739585.387 8
 86  6 19 23 32 47.0800000  0  4G 6G 8G 9G11
  20548186.384    20548188.656    -3259853.966 9   -858232.131 9
  22040885.576    22040888.004     4704821.161 9   5327067.599 7
  22148055.684    22148059.897    -6876263.330 9  -3766519.942 8
  20584468.448    20584471.156    -3185857.976 9   -741720.471 8
 86  6 19 23 32 53.0800000  0  4G 6G 8G 9G11
  20547386.268    20547387.932    -3264057.665 9   -861507.739 7
  22044284.695    22044286.970     4722686.696 9   5340988.745 8
  22144864.856    22144867.074    -6893033.188 9  -3779587.358 8
  20583952.501    20583952.538    -3188574.428 9   -743837.191 7
 86  6 19 23 32 59.0800000  0  4G 6G 8G 9G11
  20546589.549    20546592.704    -3268246.487 9   -864771.762 7
  22047687.735    22047689.424     4740566.922 9   5354921.883 7
  22141674.457    22141677.261    -6909798.492 9  -3792651.225 8
  20583438.980    20583441.083    -3191267.252 9   -745935.492 8
 86  6 19 23 33  5.0800000  0  4G 6G 8G 9G11
  20545794.495    20545796.534    -3272420.379 9   -868024.134 7
  22051093.466    22051094.696     4758461.861 8   5368865.994 8
  22138485.309    22138487.956    -6926559.171 9  -3805711.499 8
  20582931.149    20582931.117    -3193936.428 9   -748015.358 7
 86  6 19 23 33 11.0800000  0  4G 6G 8G 9G11
  20545003.516    20545006.655    -3276579.332 9   -871264.875 8
  22054501.114    22054502.602     4776371.492 9   5382821.539 9
  22135296.263    22135299.552    -6943315.271 9  -3818768.193 9
  20582427.984    20582429.372    -3196582.008 9   -750076.859 8
 86  6 19 23 33 17.0800000  0  4G 6G 8G 9G11
  20544215.272    20544216.585    -3280723.309 9   -874493.949 8
  22057911.652    22057913.283     4794295.777 9   5396788.521 8
  22132109.018    22132111.879    -6960066.868 9  -3831821.383 8
  20581928.197    20581929.914    -3199203.948 9   -752119.919 8
 86  6 19 23 33 23.0800000  0  4G 6G 8G 9G11
  20543429.836    20543430.455    -3284852.299 9   -877711.337 8
  22061325.969    22061328.716     4812234.730 8   5410766.913 7
  22128921.411    22128924.880    -6976813.836 9  -3844870.958 8
  20581433.749    20581435.363    -3201802.253 9   -754144.579 7
 86  6 19 23 33 29.0800000  0  4G 6G 8G 9G11
  20542647.341    20542648.929    -3288966.300 9   -880917.045 9
  22064742.775    22064743.921     4830188.234 8   5424756.667 8
  22125735.775    22125738.923    -6993556.200 9  -3857916.962 8
  20580943.280    20580944.653    -3204376.949 9   -756150.833 8
 86  6 19 23 33 35.0800000  0  4G 6G 8G 9G11
  20541866.721    20541868.860    -3293065.284 9   -884111.056 8
  22068161.327    22068163.959     4848156.327 9   5438757.758 7
  22122550.257    22122553.691    -7010293.979 9  -3870959.380 8
  20580458.610    20580459.536    -3206928.034 8   -758138.688 8
 86  6 19 23 33 41.0800000  0  4G 6G 8G 9G11
  20541089.814    20541091.234    -3297149.248 9   -887293.365 7
  22071583.398    22071585.831     4866138.975 9   5452770.222 8
  22119366.689    22119369.981    -7027027.039 8  -3883998.133 8
  20579976.440    20579978.947    -3209455.474 8   -760108.126 7
 86  6 19 23 33 47.0800000  0  4G 6G 8G 9G11
  20540315.028    20540317.243    -3301218.201 9   -890463.966 8
  22075007.874    22075010.621     4884136.171 9   5466794.004 7
  22116183.445    22116186.421    -7043755.378 9  -3897033.194 8
                  20579500.487    -3211959.289 7
 86  6 19 23 33 53.0800000  0  4G 6G 8G 9G11
  20539543.867    20539545.594    -3305272.029 9   -893622.803 8
  22078435.497    22078437.930     4902147.874 9   5480829.092 8
  22113001.447    22113005.044    -7060479.153 9  -3910064.702 7
  20579028.179    20579031.127    -3214439.488 9   -715807.759 7
 86  6 19 23 33 59.0800000  0  4G 6G 8G 9G11
  20538775.591    20538777.381    -3309310.812 9   -896769.888 7
  22081865.755    22081868.959     4920174.017 9   5494875.438 8
  22109820.133    22109822.122    -7077198.181 9  -3923092.527 8
  20578560.670    20578563.252    -3216896.135 8   -717722.050 7
 86  6 19 23 34  5.0800000  0  4G 6G 8G 9G11
  20538010.780    20538009.409    -3313334.451 9   -899905.199 8
  22085298.416    22085300.318     4938214.651 9   5508933.064 8
  22106638.634    22106642.261    -7093912.423 9  -3936116.602 8
  20578096.994    20578099.596    -3219329.169 8   -719617.904 7
 86  6 19 23 34 11.0800000  0  4G 6G 8G 9G11
  20537247.649    20537247.881    -3317342.983 9   -903028.729 8
  22088734.454    22088736.642     4956269.694 9   5523001.921 8
  22103459.561    22103462.616    -7110621.945 7  -3949137.004 9
  20577638.266    20577642.102    -3221738.602 9   -721495.377 7
 86  6 19 23 34 17.0800000  0  4G 6G 8G 9G11
  20536488.060    20536487.448    -3321336.350 9   -906140.449 7
  22092172.951    22092175.025     4974339.166 9   5537082.044 7
  22100280.624    22100283.385    -7127326.670 9  -3962153.672 9
  20577183.671    20577187.490    -3224124.375 8   -723354.426 7
 86  6 19 23 34 23.0800000  0  4G 6G 8G 9G11
  20535730.691    20535731.164    -3325314.598 9   -909240.378 8
  22095615.114    22095616.072     4992422.989 9   5551173.323 7
  22097102.038    22097105.357    -7144026.598 9  -3975166.616 8
                  20576738.000                     -725195.121 7
 86  6 19 23 34 29.0800000  0  4G 6G 8G 9G11
  20534977.101    20534977.537    -3329277.705 9   -912328.516 8
  22099059.336    22099059.680     5010521.129 8   5565275.778 8
  22093925.618    22093927.979    -7160721.712 9  -3988175.784 8
  20576289.498    20576293.929    -3262807.761 1   -727017.471 7
 86  6 19 23 34 35.0800000  0  4G 6G 8G 9G11
  20534226.485    20534225.650    -3333225.636 9   -915404.832 7
  22102505.676    22102506.278     5028633.560 9   5579389.355 8
  22090749.708    22090751.489    -7177412.146 9  -4001181.314 9
  20575849.105    20575851.638    -3265122.837 8   -728821.407 8
 86  6 19 23 34 41.0800000  0  4G 6G 8G 9G11
  20533477.115    20533477.451    -3337158.340 9   -918469.283 8
  22105954.849    22105957.053     5046760.320 9   5593514.105 8
  22087574.884    22087576.565    -7194097.675 9  -4014183.034 7
  20575413.580    20575416.516    -3267413.827 9   -730607.002 7
 86  6 19 23 34 47.0800000  0  4G 6G 8G 9G11
  20532730.611    20532731.880    -3341075.815 9   -921521.846 7
  22109406.169    22109408.615     5064901.381 9   5607649.987 7
  22084399.223    22084402.957    -7210778.300 9  -4027180.918 7
  20574981.771    20574986.195    -3269681.698 8   -732374.179 7
 86  6 19 23 34 53.0800000  0  4G 6G 8G 9G11
  20531988.772    20531990.155    -3344978.033 9   -924562.552 7
  22112860.951    22112862.183     5083056.633 9   5621796.937 7
  22081227.348    22081229.679    -7227454.036 9  -4040174.993 8
  20574555.342    20574558.194    -3271926.018 8   -734122.992 7
 86  6 19 23 34 59.0800000  0  4G 6G 8G 9G11
  20531249.123    20531250.149    -3348865.068 9   -927591.407 8
  22116318.911    22116320.600     5101226.121 9   5635954.975 9
  22078055.057    22078056.216    -7244124.928 9  -4053165.297 8
  20574134.058    20574135.914    -3274146.698 9   -735853.397 8
 86  6 19 23 35  5.0800000  0  4G 6G 8G 9G11
  20530512.442    20530514.064    -3352736.903 9   -930608.405 9
  22119779.446    22119780.748     5119409.722 9   5650124.035 8
  22074883.711    22074885.027    -7260790.965 9  -4066151.817 7
  20573714.945    20573718.315    -3276343.879 9   -737565.494 8
 86  6 19 23 35 11.0800000  0  4G 6G 8G 9G11
  20529778.493    20529780.010    -3356593.410 9   -933613.489 8
  22123241.984    22123242.543     5137607.482 9   5664304.082 8
  22071712.836    22071715.434    -7277452.070 9  -4079134.494 8
  20573301.081    20573305.205    -3278517.509 9   -739259.228 7
 86  6 19 23 35 17.0800000  0  4G 6G 8G 9G11
  20529047.500    20529048.912    -3360434.665 9   -936606.673 8
  22126707.155    22126709.816     5155819.366 9   5678495.162 8
  22068542.793    22068545.360    -7294108.279 9  -4092113.355 8
  20572892.239    20572896.570    -3280667.570 8   -740934.595 7
 86  6 19 23 35 23.0800000  0  4G 6G 8G 9G11
  20528319.462    20528319.473    -3364260.568 9   -939587.904 8
  22130176.562    22130178.794     5174045.306 9   5692697.191 8
  22065374.780    22065376.269    -7310759.502 9  -4105088.328 8
  20572488.600    20572491.712    -3282794.063 9   -742591.595 7
 86  6 19 23 35 29.0800000  0  4G 6G 8G 9G11
  20527593.629    20527594.959    -3368071.194 9   -942557.213 8
  22133647.399    22133649.918     5192285.308 9   5706910.177 8
  22062207.032    22062207.906    -7327405.806 9  -4118059.482 8
  20572088.312    20572091.251    -3284896.970 9   -744230.242 8
 86  6 19 23 35 35.0800000  0  4G 6G 8G 9G11
  20526872.069    20526873.010    -3371866.515 9   -945514.611 8
  22137121.041    22137121.386     5210539.358 9   5721134.105 8
  22059040.215    22059041.690    -7344047.128 9  -4131026.732 8
  20571692.187    20571696.039    -3286976.320 9   -745850.517 8
 86  6 19 23 35 41.0800000  0  4G 6G 8G 9G11
  20526152.946    20526153.469    -3375646.478 9   -948460.047 8
  22140596.400    22140597.532     5228807.372 9   5735368.920 9
  22055874.428    22055875.694    -7360683.338 9  -4143990.018 8
  20571301.263    20571304.946    -3289032.130 9   -747452.444 6
 86  6 19 23 35 47.0800000  0  4G 6G 8G 9G11
  20525436.825    20525436.979    -3379411.050 9   -951393.482 8
  22144075.424    22144077.769     5247089.457 9   5749614.704 8
  22052709.871    22052710.872    -7377314.456 9  -4156949.324 8
  20570915.232    20570918.670    -3291064.259 9   -749035.923 7
 86  6 19 23 35 53.0800000  0  4G 6G 8G 9G11
                  20524722.796                     -954314.844 7
  22147557.193    22147558.480     5265385.518 9   5763871.367 8
  22049546.352    22049547.877    -7393940.613 9  -4169904.774 8
  20570531.979    20570536.664    -3293072.893 9   -750601.082 9
 86  6 19 23 35 59.0800000  0  4G 6G 8G 9G11
  20523998.935    20524013.788    -3419588.131 1   -957224.297 7
  22151041.568    22151044.328     5283695.519 7   5778138.886 9
  22046382.798    22046384.636    -7410561.658 9  -4182856.231 7
  20570155.404    20570158.179    -3295057.983 8   -752147.909 8
 86  6 19 23 36  5.0800000  0  4G 6G 8G 9G11
  20523305.113    20523306.222    -3423306.301 7   -960121.750 7
  22154528.115    22154530.621     5302019.345 8   5792417.196 8
  22043220.967    22043222.598    -7427177.720 9  -4195803.819 8
                  20569781.499    -3297019.615 9
 86  6 19 23 36 11.0800000  0  4G 6G 8G 9G11
  20522600.105    20522601.988    -3427009.248 9   -963007.152 8
  22158017.928    22158020.889     5320357.057 9   5806706.321 7
  22040060.024    22040062.684    -7443788.654 9  -4208747.401 9
  20569413.307    20569415.907    -3298957.747 9   -707590.170 1
 86  6 19 23 36 17.0800000  0  4G 6G 8G 9G11
  20521898.522    20521899.686    -3430696.671 8   -965880.470 8
  22161510.000    22161512.791     5338708.672 9   5821006.268 8
  22036900.489    22036901.906    -7460394.439 9  -4221686.964 8
  20569048.404    20569052.164    -3300872.341 9   -709082.061 8
 86  6 19 23 36 23.0800000  0  4G 6G 8G 9G11
  20521198.789    20521201.697    -3434368.644 9   -968741.757 8
                  22165006.292                     5835317.010 8
  22033741.541    22033743.208    -7476995.054 9  -4234622.509 8
  20568688.281    20568691.401    -3302763.393 9   -710556.105 9
 86  6 19 23 36 29.0800000  0  4G 6G 8G 9G11
  20520503.193    20520505.208    -3438025.104 8   -971590.943 8
  22168497.707    22168505.048     5320531.872 9   5849638.498 8
  22030582.909    22030584.898    -7493590.593 9  -4247554.082 8
  20568333.059    20568337.176    -3304630.853 9   -712011.271 9
 86  6 19 23 36 35.0800000  0  4G 6G 8G 9G11
  20519809.633    20519812.230    -3441666.097 9   -974428.083 8
  22172003.059    22172003.759     5338924.843 6   5863970.682 8
  22027426.036    22027427.639    -7510180.884 9  -4260481.588 8
  20567981.771    20567985.573    -3306474.868 9   -713448.171 8
 86  6 19 23 36 41.0800000  0  4G 6G 8G 9G11
  20519120.374    20519122.216    -3445291.559 9   -977253.124 8
  22175505.792    22175507.166     5357331.055 9   5878313.582 8
  22024270.159    22024272.733    -7526766.060 9  -4273405.093 9
  20567635.749    20567638.998    -3308295.403 8   -714866.754 8
 86  6 19 23 36 47.0800000  0  4G 6G 8G 9G11
  20518433.179    20518435.289    -3448901.522 9   -980066.064 8
  22179010.342    22179014.034     5375751.472 9   5892667.143 8
  22021115.253    22021117.321    -7543346.030 9  -4286324.548 8
  20567292.210    20567296.854    -3310092.432 8   -716267.027 8
 86  6 19 23 36 53.0800000  0  4G 6G 8G 9G11
  20517749.607    20517752.072    -3452495.901 9   -982866.883 8
  22182517.939    22182520.358     5394185.655 9   5907031.440 9
  22017960.691    22017963.374    -7559920.681 9  -4299239.854 9
  20566954.757    20566958.938    -3311865.956 9   -717648.999 8
 86  6 19 23 36 59.0800000  0  4G 6G 8G 9G11
  20517068.007    20517071.153    -3456074.731 9   -985655.583 8
  22186028.457    22186031.805     5412633.488 9   5921406.366 9
  22014807.453    22014811.124    -7576490.067 9  -4312151.064 8
  20566620.830    20566627.709    -3313615.976 9   -719012.635 8
 86  6 19 23 37  5.0800000  0  4G 6G 8G 9G11
  20516390.097    20516392.286    -3459637.933 9   -988432.093 7
                  22189541.820     5431094.976 9
  22011656.383    22011658.329    -7593054.197 9  -4325058.175 9
  20566292.494    20566298.085    -3315342.414 8   -720357.900 8
 86  6 19 23 37 11.0800000  0  4G 6G 8G 9G11
  20515715.526    20515718.095    -3463185.563 9   -991196.487 9
  22193057.961    22193057.586     5449570.753 9   5981714.162 1
  22008504.234    22008507.902    -7609612.964 9  -4337961.106 8
  20565968.651    20565974.182    -3317045.327 8   -721684.852 8
 86  6 19 23 37 17.0800000  0  4G 6G 8G 9G11
  20515042.851    20515046.611    -3466717.536 9   -993948.679 8
                  22196575.890     5468059.715 9
  22005354.271    22005356.240    -7626166.486 9  -4350859.939 8
  20565649.303    20565653.389    -3318724.768 9   -722993.492 8
 86  6 19 23 37 23.0800000  0  4G 6G 8G 9G11
                  20514376.407                     -996688.693 7
  22200096.010    22200099.457     5486561.938 9   6046512.646 7
  22002204.954    22002207.937    -7642714.721 9  -4363754.658 8
  20565333.684    20565338.862    -3320380.704 8   -724283.829 8
 86  6 19 23 37 29.0800000  0  4G 6G 8G 9G11
  20513707.353    20513709.696    -3511420.653 9   -999416.552 8
  22203619.846    22203622.853     5505077.646 9   6060940.469 7
  21999057.754    21999060.566    -7659257.633 9  -4376645.242 8
  20565023.493    20565027.461    -3322013.197 9   -725555.892 8
 86  6 19 23 37 35.0800000  0  4G 6G 8G 9G11
  20513045.298    20513045.899    -3514905.693 9  -1002132.163 8
  22207145.747    22207148.924     5523606.901 9   6075378.348 8
  21995910.419    21995913.202    -7675795.229 9  -4389531.665 9
  20564717.734    20564720.286    -3323622.185 9   -726809.651 8
 86  6 19 23 37 41.0800000  0  4G 6G 8G 9G11
  20512385.004    20512387.339    -3518375.044 9  -1004835.553 7
  22210674.594    22210677.628     5542149.623 9   6089827.216 8
  21992763.942    21992767.148    -7692327.365 9  -4402413.858 8
  20564416.427    20564418.100    -3325207.711 9   -728045.107 7
 86  6 19 23 37 47.0800000  0  4G 6G 8G 9G11
  20511728.544    20511729.982    -3521828.724 9  -1007526.729 8
  22214206.331    22214208.049     5560705.793 8   6104286.572 8
  21989618.975    21989622.309    -7708854.110 9  -4415291.823 9
  20564119.345    20564122.614    -3326769.703 9   -729262.249 8
 86  6 19 23 37 53.0800000  0  4G 6G 8G 9G11
  20511074.735    20511074.433    -3525266.761 9  -1010205.722 8
  22217739.328    22217742.347     5579275.353 9   6118756.349 7
  21986474.630    21986477.778    -7725375.462 9  -4428165.606 9
  20563826.987    20563828.950    -3328308.280 8   -730461.140 8
 86  6 19 23 37 59.0800000  0  4G 6G 8G 9G11
  20510422.859    20510423.455    -3528689.072 9  -1012872.450 8
  22221275.873    22221277.876     5597858.317 8   6133236.583 8
  21983332.124    21983335.085    -7741891.434 9  -4441035.177 8
  20563538.964    20563541.304    -3329823.433 9   -731641.783 8
 86  6 19 23 38  5.0800000  0  4G 6G 8G 9G11
  20509775.661    20509776.255    -3532095.647 9  -1015526.921 7
                  22224813.935     5616454.577 8
  21980189.711    21980193.181    -7758401.932 9  -4453900.497 8
  20563254.576    20563257.263    -3331315.144 9   -732804.154 7
 86  6 19 23 38 11.0800000  0  4G 6G 8G 9G11
  20509130.066    20509130.956    -3535486.460 9  -1018169.120 8
  22228354.803    22228357.904     5635064.190 9   6193751.168 1
  21977049.479    21977051.970    -7774906.982 9  -4466761.564 8
  20562976.050    20562978.562    -3332783.434 9   -733948.270 8
 86  6 19 23 38 17.0800000  0  4G 6G 8G 9G11
  20508488.138    20508488.327    -3538861.517 9  -1020799.027 9
  22231899.361    22231901.646     5653687.135 9   6208262.543 9
  21973909.879    21973912.204    -7791406.484 9  -4479618.318 9
  20562700.423    20562702.777    -3334228.255 9   -735074.109 7
 86  6 19 23 38 23.0800000  0  4G 6G 8G 9G11
  20507848.094    20507849.114    -3542220.756 9  -1023416.620 8
  22235446.322    22235448.379     5672323.429 9   6222784.325 8
  21970770.821    21970774.012    -7807900.493 9  -4492470.775 9
  20562431.168    20562432.183    -3335649.665 9   -736181.696 8
 86  6 19 23 38 29.0800000  0  4G 6G 8G 9G11
  20507212.469    20507212.166    -3545564.185 9  -1026021.888 9
  22238995.575    22238996.659     5690972.899 9   6237316.381 8
  21967633.795    21967634.725    -7824389.056 8  -4505318.998 9
  20562164.136    20562167.645    -3337047.628 9   -737271.024 7
 86  6 19 23 38 35.0800000  0  4G 6G 8G 9G11
  20506579.098    20506579.306    -3548891.755 9  -1028614.798 8
  22242546.459    22242548.458     5709635.626 9   6251858.760 7
  21964496.755    21964499.416    -7840872.011 8  -4518162.858 8
  20561903.143    20561905.956    -3338422.070 9   -738342.018 9
 86  6 19 23 38 41.0800000  0  4G 6G 8G 9G11
  20505948.212    20505950.427    -3552203.505 9  -1031195.377 8
  22246100.146    22246102.488     5728311.604 9   6266411.459 8
  21961360.996    21961362.634    -7857349.430 9  -4531002.397 8
  20561645.051    20561648.578    -3339773.099 9   -739394.759 8
 86  6 19 23 38 47.0800000  0  4G 6G 8G 9G11
  20505320.807    20505322.393    -3555499.390 9  -1033763.603 8
  22249656.723    22249658.052     5747000.784 9   6280974.455 9
  21958226.309    21958228.156    -7873821.203 9  -4543837.534 9
  20561392.473    20561395.212    -3341100.685 9   -740429.250 7
 86  6 19 23 38 53.0800000  0  4G 6G 8G 9G11
  20504696.684    20504698.122    -3558779.395 9  -1036319.451 9
  22253216.508    22253217.848     5765703.105 9   6295547.698 8
  21955093.748    21955095.759    -7890287.400 9  -4556668.332 9
  20561144.974    20561147.577    -3342404.861 8   -741445.483 8
 86  6 19 23 38 59.0800000  0  4G 6G 8G 9G11
  20504076.319    20504075.844    -3562043.515 9  -1038862.926 9
  22256777.093    22256779.521     5784418.558 9   6310131.165 8
  21951961.251    21951961.631    -7906748.004 9  -4569494.761 9
  20560901.492    20560903.056    -3343685.682 9   -742443.532 9
 86  6 19 23 39  5.0800000  0  4G 6G 8G 9G11
  20503457.303    20503458.266    -3565291.767 9  -1041394.034 8
  22260341.626    22260344.156     5803147.050 9   6324724.785 7
  21948829.942    21948832.195    -7923202.893 9  -4582316.748 8
  20560662.228    20560664.134    -3344943.117 9   -743423.342 8
 86  6 19 23 39 11.0800000  0  4G 6G 8G 9G11
  20502842.513    20502842.642    -3568524.044 9  -1043912.681 7
  22263908.336    22263909.634     5821888.647 9   6339328.628 8
  21945700.500    21945701.467    -7939652.107 9  -4595134.294 9
  20560427.652    20560430.625    -3346177.138 9   -744384.929 8
 86  6 19 23 39 17.0800000  0  4G 6G 8G 9G11
  20502230.458    20502230.904    -3571740.435 9  -1046418.951 8
  22267476.017    22267477.432     5840643.255 8   6353942.610 9
  21942570.915    21942572.897    -7956095.722 9  -4607947.503 8
  20560196.721    20560198.430    -3347387.701 9   -745328.210 8
 86  6 19 23 39 23.0800000  0  4G 6G 8G 9G11
  20501621.447    20501621.871    -3574940.844 9  -1048912.788 8
  22271047.249    22271049.477     5859410.936 9   6368566.772 8
  21939443.299    21939444.192    -7972533.614 9  -4620756.236 8
  20559970.702    20559972.961    -3348574.891 9   -746253.305 8
 86  6 19 23 39 29.0800000  0  4G 6G 8G 9G11
  20501015.872    20501016.383    -3578125.313 9  -1051394.187 9
  22274621.170    22274622.968     5878191.611 9   6383201.062 7
  21936316.603    21936316.389    -7988965.735 9  -4633560.480 9
  20559748.982    20559751.378    -3349738.682 9   -747160.148 8
 86  6 19 23 39 35.0800000  0  4G 6G 8G 9G11
  20500412.657    20500411.874    -3581293.728 9  -1053863.092 9
  22278197.895    22278200.181     5896985.246 9   6397845.453 8
  21933190.153    21933191.991    -8005392.127 9  -4646360.259 8
  20559532.738    20559535.080    -3350879.082 9   -748048.781 8
 86  6 19 23 39 41.0800000  0  4G 6G 8G 9G11
  20499812.026    20499813.394    -3584446.242 9  -1056319.590 9
  22281776.309    22281779.210     5915791.788 9   6412499.897 7
  21930064.974    21930067.049    -8021812.856 9  -4659155.619 8
  20559319.462    20559323.447    -3351996.117 9   -748919.182 8
 86  6 19 23 39 47.0800000  0  4G 6G 8G 9G11
  20499215.289    20499216.834    -3587582.620 9  -1058763.519 8
  22285357.757    22285359.614     5934611.290 9   6427164.445 8
  21926942.350    21926943.188    -8038227.701 9  -4671946.403 9
  20559110.995    20559114.158    -3353089.698 9   -749771.330 8
 86  6 19 23 39 53.0800000  0  4G 6G 8G 9G11
  20498621.457    20498621.686    -3590703.035 9  -1061195.018 8
  22288941.523    22288943.865     5953443.668 9   6441839.011 8
  21923819.463    21923820.694    -8054636.867 9  -4684732.755 8
  20558907.350    20558910.960    -3354159.995 9   -750605.323 8
 86  6 19 23 39 59.0800000  0  4G 6G 8G 9G11
  20498030.739    20498031.267    -3593807.406 8  -1063614.008 8
  22292527.921    22292529.206     5972288.880 9   6456523.597 8
  21920697.655    21920697.827    -8071040.204 9  -4697514.556 9
  20558707.672    20558711.932    -3355206.904 9   -751421.091 7
 86  6 19 23 40  5.0800000  0  4G 6G 8G 9G11
  20497442.433    20497443.514    -3596895.695 9  -1066020.465 7
  22296116.495    22296118.966     5991146.922 8   6471218.167 8
                  21917577.764    -8087437.718 9
  20558512.676    20558516.701    -3356230.463 8   -752218.660 8
 86  6 19 23 40 11.0800000  0  4G 6G 8G 9G11
  20496858.393    20496860.142    -3599967.904 8  -1068414.390 7
  22299706.699    22299709.757     6010017.787 9   6485922.726 8
  21914459.155    21914460.330    -8103829.398 9  -4654960.087 7
  20558323.058    20558326.217    -3357230.616 9   -752997.996 9
 86  6 19 23 40 17.0800000  0  4G 6G 8G 9G11
  20496276.548    20496278.134    -3603023.996 9  -1070795.771 9
  22303300.910    22303302.094     6028901.423 9   6500637.241 7
  21911339.922    21911341.189    -8120215.169 9  -4667728.191 8
  20558136.327    20558139.401    -3358207.458 8   -753759.169 8
 86  6 19 23 40 23.0800000  0  4G 6G 8G 9G11
  20495697.502    20495698.700    -3606064.027 8  -1073164.622 8
  22306896.581    22306898.080     6047797.824 8   6515361.709 9
  21908223.588    21908223.580    -8136595.069 9  -4680491.223 9
  20557955.304    20557958.367    -3359160.954 9   -754502.144 8
 86  6 19 23 40 29.0800000  0  4G 6G 8G 9G11
  20495122.962    20495124.203    -3609087.912 9  -1075520.897 8
  22310495.658    22310498.231     6066706.888 9   6530096.039 8
  21905107.275    21905107.940    -8152969.034 9  -4693250.164 9
  20557778.886    20557781.469    -3360091.120 8   -755226.940 7
 86  6 19 23 40 35.0800000  0  4G 6G 8G 9G11
  20494549.711    20494552.315    -3612095.658 9  -1077864.592 9
  22314096.423    22314097.921     6085628.682 9   6544840.296 8
  21901991.669    21901993.215    -8169337.110 9  -4706004.503 8
  20557604.964    20557608.567    -3360998.004 9   -755933.603 8
 86  6 19 23 40 41.0800000  0  4G 6G 8G 9G11
  20493980.628    20493982.305    -3615087.208 9  -1080195.677 8
  22317699.706    22317701.578     6104563.176 9   6559594.441 8
  21898878.169    21898880.315    -8185699.224 9  -4718754.186 9
                  20557437.065    -3361881.981 8
 86  6 19 23 40 47.0800000  0  4G 6G 8G 9G11
  20493414.677    20493416.824    -3618062.590 8  -1082514.148 9
  22321304.364    22321306.078     6123510.376 9   6574358.481 8
  21895765.705    21895767.708    -8202055.312 9  -4731499.187 7
  20557275.117    20557276.234    -3362742.542 8   -686942.691 1
 86  6 19 23 40 53.0800000  0  4G 6G 8G 9G11
  20492851.772    20492853.977    -3621021.835 9  -1084820.053 8
  22324913.542    22324914.612     6142470.162 9   6589132.336 8
  21892654.700    21892656.381    -8218405.466 9  -4744239.545 8
  20557114.950    20557117.723    -3363579.341 9   -687594.745 7
 86  6 19 23 40 59.0800000  0  4G 6G 8G 9G11
  20492291.333    20492293.409    -3623964.791 8  -1087113.269 8
  22328523.779    22328525.222     6161442.583 9   6603916.039 8
  21889544.346    21889544.948    -8234749.639 9  -4756975.261 8
  20556959.302    20556963.283    -3364392.802 8   -688229.112 8
 86  6 19 23 41  5.0800000  0  4G 6G 8G 9G11
  20491733.834    20491737.682    -3626891.582 9  -1089393.881 8
  22332136.337    22332137.706     6180427.446 9   6618709.432 8
  21886435.060    21886436.454    -8251087.813 9  -4769706.316 8
  20556809.519    20556813.461    -3365183.011 8   -688844.848 8
 86  6 19 23 41 11.0800000  0  4G 6G 8G 9G11
  20491179.817    20491182.561    -3629802.140 9  -1091661.839 9
  22335750.867    22335752.724     6199424.912 9   6633512.635 9
  21883327.489    21883329.778    -8267419.906 9  -4782432.612 8
  20556663.880    20556666.325    -3365949.926 9   -689442.426 8
 86  6 19 23 41 17.0800000  0  4G 6G 8G 9G11
                  20490632.322                    -1093917.148 8
  22339369.089    22339370.416     6218434.833 9   6648325.563 8
  21880221.178    21880220.914    -8283745.975 9  -4795154.199 8
  20556521.851    20556526.634    -3366693.547 9   -690021.869 7
 86  6 19 23 41 23.0800000  0  4G 6G 8G 9G11
  20490083.422    20490085.048    -3669124.998 1  -1096159.790 8
  22342990.201    22342990.627     6237457.259 9   6663148.221 9
  21877115.696    21877116.898    -8300065.880 9  -4807871.015 7
  20556385.506    20556387.820    -3367413.877 9   -690583.149 7
 86  6 19 23 41 29.0800000  0  4G 6G 8G 9G11
  20489538.015    20489540.571    -3671986.768 9  -1098389.737 9
  22346610.999    22346612.870     6256492.153 9   6677980.595 8
  21874010.510    21874010.796    -8316379.839 9  -4820583.177 7
  20556253.485    20556256.232    -3368110.930 8   -691126.314 7
 86  6 19 23 41 35.0800000  0  4G 6G 8G 9G11
  20488996.727    20488998.933    -3674832.690 9  -1100606.942 9
  22350235.861    22350237.116     6275539.515 9   6692822.691 9
  21870907.124    21870907.712    -8332687.588 9  -4833290.509 8
                  20556125.474    -3368784.727 8
 86  6 19 23 41 41.0800000  0  4G 6G 8G 9G11
  20488458.272    20488460.214    -3677661.798 9  -1102811.444 8
  22353862.440    22353864.110     6294599.266 8   6707674.442 9
  21867804.469    21867806.744    -8348989.262 9  -4845993.112 7
  20556001.543    20556001.771    -3369435.192 9   -645419.699 2
 86  6 19 23 41 47.0800000  0  4G 6G 8G 9G11
  20487923.487    20487925.101    -3680474.591 9  -1105003.221 8
  22357492.224    22357493.079     6313671.379 9   6722535.817 8
  21864704.339    21864705.585    -8365284.762 9  -4858690.898 7
  20555882.201    20555882.128    -3370062.377 9   -645908.403 8
 86  6 19 23 41 53.0800000  0  4G 6G 8G 9G11
  20487391.511    20487393.342    -3683271.049 9  -1107182.281 9
  22361123.439    22361125.309     6332755.813 9   6737406.801 9
  21861604.396    21861605.728    -8381574.122 9  -4871383.902 8
  20555767.548    20555768.284    -3370666.301 9   -646378.498 7
 86  6 19 23 41 59.0800000  0  4G 6G 8G 9G11
  20486861.963    20486863.896    -3686051.173 9  -1109348.603 9
  22364758.202    22364760.130     6351852.595 9   6752287.398 9
  21858505.255    21858507.944    -8397857.265 9  -4884072.061 7
  20555657.457    20555657.388    -3371247.026 8   -646831.014 6
 86  6 19 23 42  5.0800000  0  4G 6G 8G 9G11
  20486335.395    20486338.137    -3688814.886 9  -1111502.154 9
  22368393.824    22368395.939     6370961.666 9   6767177.573 9
  21855408.309    21855410.439    -8414134.186 9  -4896755.361 8
  20555551.599    20555551.786    -3371804.468 9   -647265.393 7
 86  6 19 23 42 11.0800000  0  4G 6G 8G 9G11
  20485812.963    20485815.567    -3691562.211 9  -1113642.928 8
  22372032.995    22372035.052     6390082.993 9   6782077.318 9
  21852312.743    21852313.637    -8430404.914 9  -4909433.854 8
  20555449.063    20555450.043    -3372338.670 8   -647681.653 8
 86  6 19 23 42 17.0800000  0  4G 6G 8G 9G11
  20485293.449    20485295.199    -3694293.120 9  -1115770.913 8
                  22375673.440     6409216.590 9
  21849217.143    21849218.667    -8446669.342 9  -4922107.408 8
  20555351.570    20555353.693    -3372849.581 8   -648079.761 7
 86  6 19 23 42 23.0800000  0  4G 6G 8G 9G11
  20484776.101    20484779.041    -3697007.496 9  -1117885.995 9
  22379316.990    22379319.636     6428362.459 9   6843004.443 2
  21846122.937    21846124.591    -8462927.442 9  -4934776.052 7
  20555258.368    20555260.558    -3373337.270 9   -648459.779 7
 86  6 19 23 42 29.0800000  0  4G 6G 8G 9G11
  20484263.158    20484264.797    -3699705.463 9  -1119988.309 8
  22382962.742    22382965.461     6447520.508 9   6857932.794 9
  21843030.034    21843033.274    -8479179.271 9  -4947439.806 8
  20555168.882    20555171.711    -3373801.760 9   -648821.712 7
 86  6 19 23 42 35.0800000  0  4G 6G 8G 9G11
  20483753.945    20483754.328    -3702386.977 9  -1122077.799 9
  22386610.098    22386613.460     6466690.720 9   6872870.611 9
  21839939.742    21839939.836    -8495424.873 9  -4960098.723 8
  20555085.656    20555088.320    -3374243.050 9   -649165.591 7
 86  6 19 23 42 41.0800000  0  4G 6G 8G 9G11
  20483246.497    20483247.220    -3705052.059 9  -1124154.477 8
  22390261.117    22390262.706     6485873.083 9   6887817.899 9
  21836849.336    21836850.160    -8511664.051 9  -4972752.631 8
  20555006.801    20555009.097    -3374661.128 9   -649491.370 6
 86  6 19 23 42 47.0800000  0  4G 6G 8G 9G11
  20482742.846    20482743.057    -3707700.571 9  -1126218.255 8
  22393913.653    22393916.071     6505067.606 9   6902774.666 9
  21833759.581    21833760.904    -8527896.865 9  -4985401.559 8
  20554931.792    20554932.948    -3375055.929 8   -649798.983 8
 86  6 19 23 42 53.0800000  0  4G 6G 8G 9G11
  20482241.659    20482242.622    -3710332.579 9  -1128269.179 8
  22397567.705    22397570.224     6524274.196 9   6917740.833 9
  21830672.072    21830674.024    -8544123.248 9  -4998045.475 8
  20554860.624    20554861.645    -3375427.501 8   -650088.506 7
 86  6 19 23 42 59.0800000  0  4G 6G 8G 9G11
  20481744.043    20481745.127    -3712948.104 9  -1130307.246 8
  22401224.820    22401227.381     6543492.782 9   6932716.342 9
  21827585.980    21827586.931    -8560343.364 9  -5010684.528 8
  20554794.846    20554795.376    -3375775.931 9   -650360.035 6
 86  6 19 23 43  5.0800000  0  4G 6G 8G 9G11
  20481249.088    20481250.990    -3715547.136 9  -1132332.466 9
  22404884.196    22404886.685     6562723.441 8   6947701.266 9
  21824500.939    21824503.672    -8576557.152 9  -5023318.647 8
  20554732.522    20554734.611    -3376101.237 9   -650613.506 8
 86  6 19 23 43 11.0800000  0  4G 6G 8G 9G11
  20480757.585    20480760.178    -3718129.572 9  -1134344.748 8
  22408545.345    22408548.765     6581966.100 9   6962695.544 8
  21821415.477    21821418.782    -8592764.468 8  -5035947.710 8
  20554674.822    20554677.374    -3376403.271 8   -650848.852 8
 86  6 19 23 43 17.0800000  0  4G 6G 8G 9G11
  20480269.452    20480271.541    -3720695.478 9  -1136344.159 8
  22412210.386    22412212.162     6601220.678 9   6977699.093 9
  21818333.190    21818334.972    -8608965.365 9  -5048571.795 8
  20554621.908    20554625.247    -3376682.093 8   -651066.130 7
 86  6 19 23 43 23.0800000  0  4G 6G 8G 9G11
  20479784.155    20479786.613    -3723245.143 9  -1138330.909 8
  22415875.772    22415878.577     6620486.915 9   6992711.743 9
  21815251.391    21815254.381    -8625160.094 9  -5061191.042 7
  20554573.267    20554575.760    -3376938.089 8   -651265.602 7
 86  6 19 23 43 29.0800000  0  4G 6G 8G 9G11
  20479301.512    20479304.864    -3725778.026 9  -1140304.585 9
  22419544.449    22419546.953     6639765.280 9   7007733.825 8
  21812170.859    21812173.163    -8641348.184 9  -5073805.139 9
  20554528.771    20554531.119    -3377170.712 8   -651446.869 8
 86  6 19 23 43 35.0800000  0  4G 6G 8G 9G11
  20478822.304    20478825.456    -3728294.143 9  -1142265.195 9
                  22423215.787     6659055.681 9
  21809091.491    21809093.923    -8657529.570 9  -5086414.002 7
  20554488.610    20554491.220    -3377380.050 9   -651609.954 7
 86  6 19 23 43 41.0800000  0  4G 6G 8G 9G11
  20478347.365    20478349.894    -3730793.885 9  -1144213.037 8
  22426889.558    22426889.355     6678357.726 9   7073871.856 9
  21806013.141    21806015.573    -8673704.727 9  -5099018.012 8
  20554452.436    20554454.848    -3377566.502 9   -651755.252 7
 86  6 19 23 43 47.0800000  0  4G 6G 8G 9G11
  20477873.799    20477877.443    -3733277.005 9  -1146147.928 9
  22430564.443    22430565.732     6697671.572 8   7088921.597 9
  21802937.050    21802938.575    -8689873.315 9  -5111616.908 8
  20554420.483    20554425.660    -3377729.850 8   -651882.547 8
 86  6 19 23 43 53.0800000  0  4G 6G 8G 9G11
  20477405.111    20477407.694    -3735743.367 9  -1148069.764 8
  22434241.963    22434242.964     6716997.347 9   7103980.625 9
                  21799863.264                    -5124210.619 7
  20554393.864    20554396.870    -3377870.010 8   -651991.747 8
 86  6 19 23 43 59.0800000  0  4G 6G 8G 9G11
  20476939.796    20476940.915    -3738192.887 9  -1149978.479 9
  22437920.971    22437923.289     6736335.082 9   7119048.982 9
  21796787.103    21796790.479    -8742227.406 4  -5136799.048 7
  20554371.599    20554376.605    -3377986.872 9   -652082.809 6
 86  6 19 23 44  5.0800000  0  4G 6G 8G 9G11
  20476475.841    20476478.551    -3740625.665 9  -1151874.143 8
  22441603.527    22441604.774     6755684.630 8   7134126.537 9
  21793714.325    21793715.398    -8758375.957 9  -5149382.325 8
  20554354.806    20554358.434    -3378080.548 8   -652155.796 7
 86  6 19 23 44 11.0800000  0  4G 6G 8G 9G11
  20476016.873    20476018.164    -3743042.077 9  -1153757.071 8
  22445288.945    22445289.461     6775045.536 8   7149212.957 9
  21790642.649    21790645.834    -8774518.216 9  -5161960.705 8
  20554341.145    20554344.212    -3378151.440 9   -652211.041 7
 86  6 19 23 44 17.0800000  0  4G 6G 8G 9G11
  20475559.769    20475561.472    -3745441.679 9  -1155626.887 8
  22448974.364    22448975.953     6794418.265 9   7164308.574 9
  21787571.768    21787574.079    -8790653.678 9  -5174533.791 8
  20554332.634    20554335.307    -3378199.088 9   -652248.176 8
 86  6 19 23 44 23.0800000  0  4G 6G 8G 9G11
  20475106.421    20475108.507    -3747824.634 9  -1157483.736 8
  22452663.559    22452664.590     6813802.622 8   7179413.274 9
  21784503.448    21784505.345    -8806782.632 9  -5187101.803 8
  20554328.173    20554330.377    -3378223.739 9   -652267.371 7
 86  6 19 23 44 29.0800000  0  4G 6G 8G 9G11
  20474656.196    20474659.055    -3750190.568 9  -1159327.301 8
  22456354.072    22456355.746     6833198.881 9   7194527.235 8
                  21781437.546                    -5199665.414 8
  20554328.534    20554330.570    -3378225.051 9   -652268.389 8
 86  6 19 23 44 35.0800000  0  4G 6G 8G 9G11
  20474209.320    20474210.738    -3752539.706 9  -1161157.812 8
  22460046.873    22460047.933     6852606.792 9   7209650.272 8
  21778311.374    21778369.999    -8868842.299 9  -5212222.742 7
  20554332.179    20554334.808    -3378203.284 9   -652251.414 7
 86  6 19 23 44 41.0800000  0  4G 6G 8G 9G11
  20473765.184    20473767.596    -3754872.329 8  -1162975.431 8
  22463741.822    22463743.582     6872026.072 9   7224782.167 8
  21775303.553    21775304.855    -8884951.233 9  -5224775.073 9
  20554340.464    20554343.049    -3378158.694 8   -652216.669 6
 86  6 19 23 44 47.0800000  0  4G 6G 8G 9G11
                  20473324.814    -3757188.178 9
  22467440.004    22467440.089     6891456.879 8   7239923.067 9
  21772238.180    21772241.315    -8901052.874 9  -5237322.175 8
  20554352.799    20554355.239    -3378091.073 8   -652163.973 8
 86  6 19 23 44 53.0800000  0  4G 6G 8G 9G11
  20472887.755    20472851.002    -3759486.870 9  -1118701.956 1
  22471139.072    22471140.534     6910899.583 9   7255073.191 8
  21769175.613    21769179.111    -8917147.855 9  -5249863.726 8
  20554369.426    20554372.431    -3378000.011 9   -652093.019 7
 86  6 19 23 44 59.0800000  0  4G 6G 8G 9G11
  20472453.865    20472454.516    -3761768.945 9  -1120480.432 5
  22474841.205    22474842.664     6930353.633 9   7270232.195 9
  21766114.691    21766116.308    -8933236.295 9  -5262400.154 9
  20554391.806    20554394.059    -3377886.094 9   -652004.245 8
 86  6 19 23 45  5.0800000  0  4G 6G 8G 9G11
  20472022.000    20472023.924    -3764034.324 9  -1122245.643 8
  22478545.052    22478546.013     6949819.038 8   7285400.037 8
  21763054.391    21763056.608    -8949318.109 9  -5274931.434 9
  20554418.528    20554421.034    -3377749.239 8   -651897.611 8
 86  6 19 23 45 11.0800000  0  4G 6G 8G 9G11
  20471594.340    20471595.674    -3766282.795 9  -1123997.695 8
  22482251.534    22482253.480     6969295.929 9   7300576.819 8
  21759995.328    21759996.988    -8965393.109 9  -5287457.396 8
  20554449.266    20554451.918    -3377589.311 9   -651772.987 8
 86  6 19 23 45 17.0800000  0  4G 6G 8G 9G11
  20471169.053    20471171.664    -3768514.209 9  -1125736.472 8
  22485959.160    22485962.480     6988784.484 8   7315762.711 7
  21756937.647    21756939.486    -8981460.975 9  -5299977.819 8
  20554482.641    20554486.593    -3377406.094 8   -651630.219 8
 86  6 19 23 45 23.0800000  0  4G 6G 8G 9G11
  20470748.674    20470749.038    -3770728.707 9  -1127462.048 8
  22489670.220    22489672.925     7008284.543 9   7330957.557 8
  21753882.148    21753883.335    -8997521.963 9  -5312492.871 8
  20554522.668    20554526.431    -3377199.810 9   -651469.472 8
 86  6 19 23 45 29.0800000  0  4G 6G 8G 9G11
  20470329.210    20470330.684    -3772926.271 9  -1129174.442 8
  22493383.341    22493386.503     7027795.956 9   7346161.252 8
  21750826.391    21750828.602    -9013576.097 9  -5325002.580 8
  20554568.183    20554570.672    -3376970.509 9   -651290.789 7
 86  6 19 23 45 35.0800000  0  4G 6G 8G 9G11
  20469914.518    20469916.268    -3775106.839 8  -1130873.580 9
  22497098.665    22497101.384     7047318.775 9   7361373.825 7
  21747772.995    21747774.806    -9029623.245 9  -5337506.856 8
  20554615.052    20554617.330    -3376718.133 9   -651094.142 8
 86  6 19 23 45 41.0800000  0  4G 6G 8G 9G11
  20469502.808    20469504.245    -3777270.842 9  -1132559.812 8
  22500815.764    22500818.082     7066852.610 9   7376594.997 8
  21744720.787    21744722.489    -9045663.829 9  -5350005.999 8
  20554667.252    20554670.564    -3376443.147 8   -650879.863 8
 86  6 19 23 45 47.0800000  0  4G 6G 8G 9G11
  20469094.125    20469095.574    -3779417.810 9  -1134232.784 8
  22504535.352    22504536.611     7086397.795 8   7391825.007 8
  21741669.073    21741670.556    -9061697.467 9  -5362499.729 8
  20554723.500    20554726.769    -3376145.160 9   -650647.648 7
 86  6 19 23 45 53.0800000  0  4G 6G 8G 9G11
                  20468688.954    -3781547.763 9
  22508256.314    22508259.392     7105954.382 9   7407063.894 7
  21738619.842    21738622.003    -9077724.079 9  -5374988.016 8
  20554784.572    20554786.587    -3375824.065 9   -650397.458 7
 86  6 19 23 45 59.0800000  0  4G 6G 8G 9G11
  20468286.204    20468288.408    -3783660.493 9  -1089650.769 3
  22511980.139    22511982.314     7125522.493 9   7422311.790 8
  21735571.326    21735572.913    -9093743.373 9  -5387470.566 8
  20554850.452    20554854.372    -3375479.739 9   -650129.130 7
 86  6 19 23 46  5.0800000  0  4G 6G 8G 9G11
  20467888.390    20467889.985    -3785756.231 9  -1091283.830 9
  22515705.279    22515707.940     7145101.801 9   7437568.376 8
  21732524.513    21732526.121    -9109755.704 9  -5399947.709 8
  20554920.813    20554922.202    -3375112.402 8   -649842.910 8
 86  6 19 23 46 11.0800000  0  4G 6G 8G 9G11
  20467492.865    20467495.206    -3787834.953 9  -1092903.611 8
  22519434.541    22519435.314     7164692.340 9   7452833.729 7
  21729478.200    21729479.667    -9125761.015 7  -5412419.369 8
  20554994.069    20554995.948    -3374722.047 9   -649538.728 7
 86  6 19 23 46 17.0800000  0  4G 6G 8G 9G11
  20467100.214    20467102.022    -3789896.654 9  -1094510.123 8
  22523164.376    22523166.936     7184294.046 8   7468107.788 8
  21726433.727    21726436.380    -9141759.266 9  -5424885.527 8
  20555072.930    20555075.188    -3374308.731 8   -649216.665 8
 86  6 19 23 46 23.0800000  0  4G 6G 8G 9G11
  20466711.157    20466713.125    -3791941.354 9  -1096103.395 8
  22526896.327    22526897.973     7203906.840 9   7483390.477 8
  21723391.284    21723392.764    -9157750.502 9  -5437346.220 9
  20555156.438    20555159.186    -3373872.429 9   -648876.695 8
 86  6 19 23 46 29.0800000  0  4G 6G 8G 9G11
  20466325.407    20466327.704    -3793969.008 9  -1097683.386 8
  22530631.083    22530632.013     7223530.828 9   7498681.902 7
  21720350.194    21720351.168    -9173734.608 9  -5449801.372 8
  20555242.312    20555245.877    -3373413.183 9   -648518.845 7
 86  6 19 23 46 35.0800000  0  4G 6G 8G 9G11
  20465942.993    20465945.941    -3795979.538 9  -1099250.041 8
  22534367.442    22534369.015     7243165.895 9   7513981.942 8
  21717309.011    21717310.965    -9189711.672 9  -5462251.040 8
  20555334.345    20555337.854    -3372930.955 9   -648143.084 7
 86  6 19 23 46 41.0800000  0  4G 6G 8G 9G11
  20465563.596    20465566.620    -3797973.023 9  -1100803.409 8
  22538106.606    22538107.794     7262812.076 9   7529290.670 8
  21714270.154    21714271.728    -9205681.619 9  -5474695.123 9
  20555432.258    20555433.642    -3372425.781 8   -647749.445 7
 86  6 19 23 46 47.0800000  0  4G 6G 8G 9G11
  20465186.678    20465189.933    -3799949.403 9  -1102343.441 9
  22541846.771    22541848.102     7282469.321 8   7544607.994 8
  21711232.648    21711233.907    -9221644.417 9  -5487133.677 8
  20555531.835    20555534.207    -3371897.691 9   -647337.949 7
 86  6 19 23 46 53.0800000  0  4G 6G 8G 9G11
  20464814.567    20464816.409    -3801908.683 9  -1103870.153 9
  22545589.797    22545591.930     7302137.570 9   7559933.893 8
  21708196.968    21708198.040    -9237600.059 9  -5499566.652 9
  20555635.367    20555640.642    -3371346.725 9   -646908.629 7
 86  6 19 23 46 59.0800000  0  4G 6G 8G 9G11
  20464445.257    20464447.346    -3803850.812 9  -1105383.498 8
  22549333.913    22549335.329     7321816.816 9   7575268.375 8
  21705161.880    21705162.976    -9253548.516 9  -5511993.997 7
  20555745.135    20555748.775    -3370772.772 9   -646461.393 8
 86  6 19 23 47  5.0800000  0  4G 6G 8G 9G11
  20464079.936    20464080.870    -3805775.775 8  -1106883.473 8
  22553081.748    22553083.994     7341506.992 9   7590611.360 9
  21702128.931    21702129.218    -9269489.776 9  -5524415.767 8
  20555858.460    20555862.370    -3370175.870 8   -645996.253 7
 86  6 19 23 47 11.0800000  0  4G 6G 8G 9G11
  20463716.547    20463717.351    -3807683.594 9  -1108370.088 9
  22556830.355    22556832.258     7361208.153 9   7605962.918 9
  21699096.227    21699097.823    -9285423.795 9  -5536831.873 8
  20555976.483    20555981.037    -3369556.091 7   -645513.319 7
 86  6 19 23 47 17.0800000  0  4G 6G 8G 9G11
                  20463355.064    -3809574.256 8
  22560581.710    22560583.699     7380920.229 9   7621322.958 8
  21696064.676    21696066.020    -9301350.609 9  -5549242.370 8
  20556097.878    20556101.861    -3368913.401 8   -645012.518 8
 86  6 19 23 47 23.0800000  0  4G 6G 8G 9G11
  20463000.207    20463001.147    -3811447.726 9  -1063608.163 1
  22564334.210    22564337.242     7400643.204 9   7636691.500 8
  21693035.513    21693037.494    -9317270.185 9  -5561647.231 8
  20556224.646    20556229.640    -3368247.874 8   -644493.918 8
 86  6 19 23 47 29.0800000  0  4G 6G 8G 9G11
  20462646.061    20462648.121    -3813303.966 9  -1065054.591 7
  22568089.800    22568092.433     7420377.025 9   7652068.507 8
  21690008.023    21690008.589    -9333182.444 9  -5574046.392 8
  20556357.016    20556360.329    -3367559.449 9   -643957.486 8
 86  6 19 23 47 35.0800000  0  4G 6G 8G 9G11
  20462295.883    20462298.211    -3815143.031 9  -1066487.633 7
  22571847.337    22571849.484     7440121.643 9   7667453.915 8
  21686981.215    21686981.964    -9349087.416 9  -5586439.877 8
  20556491.909    20556495.297    -3366848.203 8   -643403.279 7
 86  6 19 23 47 41.0800000  0  4G 6G 8G 9G11
  20461949.572    20461951.081    -3816964.875 9  -1067907.257 8
  22575607.104    22575609.438     7459877.134 9   7682847.802 8
  21683956.751    21683957.810    -9364985.066 9  -5598827.647 8
  20556631.878    20556635.251    -3366114.142 8   -642831.274 8
 86  6 19 23 47 47.0800000  0  4G 6G 8G 9G11
  20461606.202    20461607.850    -3818769.711 9  -1069313.606 8
  22579368.019    22579371.582     7479643.134 9   7698249.873 8
  21680931.737    21680932.096    -9380875.620 9  -5611209.891 7
  20556775.711    20556779.197    -3365357.533 9   -642241.717 7
 86  6 19 23 47 53.0800000  0  4G 6G 8G 9G11
  20461265.975    20461268.235    -3820557.071 9  -1070706.364 8
  22583131.337    22583135.303     7499420.117 9   7713660.498 8
                  21677884.063   -19247886.687 1
  20556923.606    20556927.807    -3364577.904 8   -641634.199 6
 86  6 19 23 47 59.0800000  0  4G 6G 8G 9G11
  20460929.194    20460931.412    -3822327.147 9  -1072085.647 9
  22586897.018    22586900.015     7519207.837 9   7729079.506 7
                  21674888.301   -19263825.686 9
  20557075.788    20557080.632    -3363775.343 8   -641008.836 8
 86  6 19 23 48  5.0800000  0  4G 6G 8G 9G11
  20460594.558    20460597.406    -3824080.187 9  -1073451.642 8
  22590664.177    22590666.710     7539005.981 9   7744506.627 9
  21671868.875    21671839.677   -19279694.618 9  24462081.350 9
  20557234.068    20557238.003    -3362950.239 8   -640365.898 8
 86  6 19 23 48 11.0800000  0  4G 6G 8G 9G11
  20460265.447    20460267.350    -3825815.909 8  -1074804.149 9
  22594433.434    22594436.760     7558814.842 9   7759942.109 9
  21668849.663    21668852.325   -19295555.689 9  24449721.905 7
  20557395.787    20557398.288    -3362102.259 9   -639705.134 7
 86  6 19 23 48 17.0800000  0  4G 6G 8G 9G11
  20459937.194    20459940.313    -3827534.111 9  -1076143.010 9
                  22598208.842                     7775386.033 8
  21665833.180    21665834.554   -19311409.011 9  24437368.653 8
  20557561.365    20557564.199    -3361231.236 9   -639026.406 6
 86  6 19 23 48 23.0800000  0  4G 6G 8G 9G11
  20459614.436    20459616.368    -3829234.890 9  -1077468.293 9
  22601978.684    22601983.358     7542082.504 1   7790838.312 9
  21662817.052    21662818.805   -19327254.793 9  24425021.309 8
  20557732.125    20557733.824    -3360337.315 9   -638329.848 7
 86  6 19 23 48 29.0800000  0  4G 6G 8G 9G11
  20459294.082    20459297.301    -3830918.313 9  -1078780.050 9
  22605754.730    22605757.456     7561923.515 9   7806298.849 8
  21659804.444    21659805.854   -19343093.149 9  24412679.743 8
  20557907.197    20557910.316    -3359420.666 9   -637615.569 7
 86  6 19 23 48 35.0800000  0  4G 6G 8G 9G11
  20458976.961    20458980.696    -3832584.398 9  -1080078.290 9
                  22609534.971                     7821767.639 8
  21656791.159    21656793.440   -19358923.955 9  24400344.057 8
  20558086.595    20558088.858    -3358481.254 9   -636883.556 8
 86  6 19 23 48 41.0800000  0  4G 6G 8G 9G11
  20458663.647    20458665.979    -3834233.082 9  -1081362.983 8
  22613312.397    22613313.549     7545037.796 1   7837244.653 8
  21653780.159    21653781.448   -19374747.182 9  24388014.270 8
  20558269.062    20558272.744    -3357519.062 9   -636133.787 7
 86  6 19 23 48 47.0800000  0  4G 6G 8G 9G11
  20458352.678    20458356.243    -3835864.414 9  -1082634.140 8
  22617094.299    22617097.290     7564910.495 9   7852729.857 8
  21650770.186    21650771.681   -19390562.905 9  24375690.335 8
  20558457.138    20558459.051    -3356534.069 9   -635366.250 8
 86  6 19 23 48 53.0800000  0  4G 6G 8G 9G11
  20458046.262    20458048.695    -3837478.322 9  -1083891.731 9
  22620877.635    22620880.595     7584793.630 9   7868223.197 9
  21647762.300    21647764.360   -19406371.210 9  24363372.191 7
  20558649.183    20558650.219    -3355526.362 9   -634581.033 8
 86  6 19 23 48 59.0800000  0  4G 6G 8G 9G11
  20457741.562    20457744.638    -3839074.799 9  -1085135.735 8
  22624663.662    22624667.371     7604687.265 9   7883724.727 8
  21644755.788    21644757.270   -19422171.816 8  24351060.024 8
  20558845.070    20558846.452    -3354495.905 9   -633778.068 8
 86  6 19 23 49  5.0800000  0  4G 6G 8G 9G11
  20457441.412    20457445.333    -3840653.830 9  -1086366.159 9
  22628450.669    22628454.162     7624591.373 9   7899234.420 8
  21641750.214    21641751.954   -19437964.855 9  24338753.780 8
  20559044.773    20559047.736    -3353442.684 9   -632957.371 7
 86  6 19 23 49 11.0800000  0  4G 6G 8G 9G11
  20457143.867    20457147.114    -3842215.442 9  -1087582.990 9
  22632240.707    22632242.521     7644505.865 9   7914752.215 7
  21638746.271    21638748.460   -19453750.291 9  24326453.429 8
                  20559249.316    -3352366.766 9
 86  6 19 23 49 17.0800000  0  4G 6G 8G 9G11
  20456850.442    20456853.504    -3843759.517 9  -1088786.169 8
  22636032.396    22636035.263     7664430.747 9   7930278.083 8
  21635743.881    21635745.498   -19469528.087 8  24314159.060 8
  20559459.131    20559460.658    -3351268.072 9   -585907.875 2
 86  6 19 23 49 23.0800000  0  4G 6G 8G 9G11
  20456560.367    20456562.999    -3845286.136 9  -1089975.740 9
  22639825.997    22639828.543     7684366.043 9   7945812.081 9
  21632742.935    21632745.482   -19485298.180 9  24301870.684 8
  20559672.280    20559675.186    -3350146.697 9   -585034.071 8
 86  6 19 23 49 29.0800000  0  4G 6G 8G 9G11
  20456272.751    20456275.485    -3846795.247 9  -1091151.673 9
  22643620.887    22643623.480     7704311.675 9   7961354.120 9
  21629743.156    21629746.003   -19501060.585 9  24289588.301 8
  20559889.190    20559892.710    -3349002.557 9   -584142.528 8
 86  6 19 23 49 35.0800000  0  4G 6G 8G 9G11
  20455989.686    20455991.589    -3848286.889 9  -1092313.993 8
  22647418.375    22647421.412     7724267.622 9   7976904.216 8
  21626744.364    21626747.355   -19516815.265 9  24277311.931 7
  20560111.351    20560114.138    -3347835.753 9   -583233.336 8
 86  6 19 23 49 41.0800000  0  4G 6G 8G 9G11
  20455708.110    20455711.630    -3849760.963 9  -1093462.605 9
  22651217.355    22651220.459     7744233.845 9   7992462.302 8
  21623748.771    21623751.361   -19532562.217 9  24265041.588 8
  20560337.467    20560341.103    -3346646.284 9   -582306.467 8
 86  6 19 23 49 47.0800000  0  4G 6G 8G 9G11
  20455430.884    20455434.045    -3851217.525 9  -1094597.583 8
  22655019.021    22655021.565     7764210.362 9   8008028.421 8
  21620753.635    21620755.896   -19548301.400 9  24252777.295 8
  20560568.311    20560572.046    -3345434.119 9   -581361.911 9
 86  6 19 23 49 53.0800000  0  4G 6G 8G 9G11
  20455157.807    20455160.140    -3852656.557 9  -1095718.908 9
  22658822.660    22658826.135     7784197.048 8   8023602.448 8
  21617759.401    21617761.383   -19564032.892 9  24240518.996 8
  20560802.932    20560805.972    -3344199.329 9   -580399.730 8
 86  6 19 23 49 59.0800000  0  4G 6G 8G 9G11
  20454885.875    20454888.951    -3854077.974 9  -1096826.512 8
  22662627.336    22662629.686     7804193.986 9   8039184.487 8
  21614767.849    21614770.504   -19579756.629 9  24228266.740 8
  20561043.000    20561045.365    -3342941.866 9   -579419.893 8
 86  6 19 23 50  5.0800000  0  4G 6G 8G 9G11
  20454620.124    20454623.400    -3855481.850 9  -1097920.436 9
  22666435.208    22666438.349     7824201.072 9   8054774.412 7
  21611777.107    21611779.160   -19595472.551 9  24216020.583 8
  20561286.035    20561288.585    -3341661.767 9   -578422.400 9
 86  6 19 23 50 11.0800000  0  4G 6G 8G 9G11
  20454356.177    20454359.454    -3856868.167 9  -1099000.686 8
  22670244.226    22670246.909     7844218.302 9   8070372.263 8
  21608788.016    21608790.641   -19611180.564 9  24203780.571 8
  20561534.031    20561537.279    -3340359.063 9   -577407.310 9
 86  6 19 23 50 17.0800000  0  4G 6G 8G 9G11
  20454095.865    20454098.324    -3858236.875 9  -1100067.207 8
  22674054.285    22674058.026     7864245.632 9   8085977.959 9
  21605800.836    21605804.170   -19626880.825 9  24191546.601 8
  20561786.401    20561789.774    -3339033.731 9   -576374.584 8
 86  6 19 23 50 23.0800000  0  4G 6G 8G 9G11
  20453838.156    20453840.759    -3859587.902 9  -1101119.959 8
  22677868.195    22677871.207     7884283.087 8   8101591.557 8
  21602814.544    21602816.461   -19642573.248 9  24179318.758 8
  20562043.047    20562045.068    -3337685.774 9   -575324.225 8
 86  6 19 23 50 29.0800000  0  4G 6G 8G 9G11
  20453585.941    20453587.100    -3860921.338 9  -1102158.994 8
  22681683.444    22681685.662     7904330.592 8   8117212.983 8
  21599830.053    21599831.564   -19658257.778 9  24167097.049 8
  20562303.470    20562305.074    -3336315.230 8   -574256.261 8
 86  6 19 23 50 35.0800000  0  4G 6G 8G 9G11
  20453333.555    20453336.731    -3862237.096 9  -1103184.259 9
  22685498.966    22685502.816     7924388.167 8   8132842.255 8
                  21596849.192                    24154881.537 8
  20562568.824    20562570.330    -3334922.040 9   -573170.669 8
 86  6 19 23 50 41.0800000  0  4G 6G 8G 9G11
  20453087.580    20453089.999    -3863535.230 9  -1104195.809 8
  22689318.078    22689321.444     7944455.771 9   8148479.323 8
  21593865.477    21593866.233   -19710131.959 1  24142672.228 7
  20562837.432    20562838.516    -3333506.283 9   -572067.459 8
 86  6 19 23 50 47.0800000  0  4G 6G 8G 9G11
  20452843.637    20452847.243    -3864815.644 9  -1105193.532 8
  22693138.743    22693142.889     7964533.348 9   8164124.195 8
  21590884.837    21590886.765   -19725792.646 9  24130469.131 8
  20563112.140    20563114.590    -3332067.844 8   -570946.608 8
 86  6 19 23 50 53.0800000  0  4G 6G 8G 9G11
  20452603.271    20452605.803    -3866078.418 9  -1106177.510 8
  22696961.397    22696965.017     7984620.903 8   8179776.816 8
  21587907.017    21587907.993   -19741445.333 9  24118272.240 8
  20563388.378    20563392.056    -3330606.794 9   -569808.130 8
 86  6 19 23 50 59.0800000  0  4G 6G 8G 9G11
  20452366.568    20452368.113    -3867323.421 9  -1107147.652 8
  22700785.839    22700788.898     8004718.404 8   8195437.205 7
  21584929.473    21584930.400   -19757089.932 9  24106081.651 8
  20563671.368    20563674.727    -3329123.164 9   -568652.048 7
 86  6 19 23 51  5.0800000  0  4G 6G 8G 9G11
                  20452132.784    -3868550.685 9
  22704611.822    22704615.859     8024825.836 9   8211105.319 8
  21581954.184    21581955.683   -19772726.555 9  24093897.274 9
  20563958.792    20563960.310    -3327616.913 9   -567478.343 8
 86  6 19 23 51 11.0800000  0  4G 6G 8G 9G11
  20451901.605    20451904.949    -3869760.267 9  -1055974.488 8
  22708440.438    22708443.984     8044943.184 8   8226781.174 9
  21578980.247    21578982.189   -19788355.257 9  24081719.081 8
  20564249.322    20564251.307    -3326088.121 9   -566287.081 7
 86  6 19 23 51 17.0800000  0  4G 6G 8G 9G11
  20451675.348    20451678.678    -3870952.085 9  -1056903.188 7
  22712269.050    22712275.345     8065070.382 8   8242464.691 8
  21576007.284    21576007.839   -19803975.896 9  24069547.156 7
  20564545.118    20564547.258    -3324536.809 9   -565078.256 7
 86  6 19 23 51 23.0800000  0  4G 6G 8G 9G11
  20451452.267    20451455.497    -3872126.095 9  -1057818.002 8
  22716101.767    22716107.114     8085207.424 9   8258155.891 8
  21573036.775    21573037.900   -19819588.406 9  24057381.570 8
  20564844.592    20564847.314    -3322962.958 9   -563851.884 7
 86  6 19 23 51 29.0800000  0  4G 6G 8G 9G11
  20451232.450    20451235.378    -3873282.317 9  -1058718.959 9
  22719935.391    22719939.399     8105354.292 8   8273854.742 7
                  21570069.216                    24045222.229 8
  20565147.568    20565150.468    -3321366.606 9   -562607.959 8
 86  6 19 23 51 35.0800000  0  4G 6G 8G 9G11
  20451015.406    20451018.351    -3874420.769 9  -1059606.060 8
  22723770.888    22723776.186     8125510.941 9   8289561.214 8
  21567099.378    21567099.285   -19874041.221 9  24033069.288 8
  20565455.973    20565458.148    -3319747.776 9   -561346.523 8
 86  6 19 23 51 41.0800000  0  4G 6G 8G 9G11
  20450802.143    20450805.287    -3875541.433 9  -1060479.312 8
  22727608.825    22727613.553     8145677.343 8   8305275.297 9
  21564133.484    21564134.284   -19889629.435 9  24020922.614 8
                  20565768.052    -3318106.433 8
 86  6 19 23 51 47.0800000  0  4G 6G 8G 9G11
  20450591.484    20450595.329    -3876644.280 9  -1061338.672 8
  22731448.325    22731452.874     8165853.476 8   8320996.955 7
  21561168.518    21561168.784   -19905209.509 9  24008782.310 8
  20566084.379    20566087.860    -3316442.592 9   -513860.560 1
 86  6 19 23 51 53.0800000  0  4G 6G 8G 9G11
  20450385.889    20450389.275    -3877729.285 9  -1062184.132 8
  22735290.073    22735293.472     8186039.330 8   8336726.188 8
  21558205.343    21558204.856   -19920781.387 9  23996648.382 8
  20566404.426    20566408.646    -3314756.295 9   -512546.557 8
 86  6 19 23 51 59.0800000  0  4G 6G 8G 9G11
                  20450441.683    -3877322.195 1
  22739133.029    22739136.910     8206234.857 9   8352462.977 8
  21555243.654    21555244.812   -19936345.042 9  23984520.864 8
  20566730.964    20566733.507    -3313047.554 9   -511215.577 7
 86  6 19 23 52  5.0800000  0  4G 6G 8G 9G11
                  20449982.165   -20734096.320 8
  22742979.114    22742981.386     8226439.985 8   8368207.220 7
  21552283.197    21552284.141   -19951900.555 9  23972399.707 8
  20567060.734    20567062.551    -3311316.357 9   -509866.586 8
 86  6 19 23 52 11.0800000  0  4G 6G 8G 9G11
  20449786.473    20449874.413   -20735127.288 9  26345155.754 8
  22746825.296    22746828.716     8246654.762 9   8383958.986 8
  21549325.258    21549325.395   -19967447.725 9  23960285.035 8
  20567394.012    20567396.835    -3309562.713 9   -508500.111 7
 86  6 19 23 52 17.0800000  0  4G 6G 8G 9G11
  20449593.842    20449597.343   -20736140.925 9  26344366.039 8
  22750673.660    22750676.951     8266879.083 9   8399718.201 8
  21546367.856    21546369.286   -19982986.677 9  23948176.774 9
  20567732.395    20567734.534    -3307786.626 8   -507116.144 8
 86  6 19 23 52 23.0800000  0  4G 6G 8G 9G11
  20449404.473    20449407.819   -20737136.599 9  26343590.201 8
  22754523.663    22754526.837     8287112.994 9   8415484.871 8
  21543412.700    21543413.722   -19998517.384 9  23936074.921 8
  20568075.545    20568078.059    -3305988.095 9   -505714.693 7
 86  6 19 23 52 29.0800000  0  4G 6G 8G 9G11
  20449218.626    20449220.840   -20738114.311 9  26342828.341 9
  22758376.138    22758380.158     8307356.538 9   8431259.075 8
  21540458.953    21540459.777   -20014039.798 9  23923979.548 8
  20568420.618    20568425.206    -3304167.134 8   -504295.762 8
 86  6 19 23 52 35.0800000  0  4G 6G 8G 9G11
  20449036.469    20449038.670   -20739074.148 9  26342080.418 8
  22762230.572    22762234.313     8327609.554 9   8447040.650 7
  21537506.408    21537508.154   -20029553.889 9  23911890.662 8
  20568771.750    20568774.588    -3302323.796 9   -502859.398 7
 86  6 19 23 52 41.0800000  0  4G 6G 8G 9G11
  20448856.660    20448859.261   -20740016.035 9  26341346.484 8
  22766086.774    22766089.665     8347872.075 9   8462829.615 8
  21534556.304    21534556.218   -20045059.647 6  23899808.255 8
  20569127.742    20569129.108    -3300458.054 8   -501405.581 8
 86  6 19 23 52 47.0800000  0  4G 6G 8G 9G11
  20448681.544    20448684.287   -20740939.971 9  26340626.533 7
  22769944.096    22769947.773     8368144.118 9   8478626.008 7
  21531606.342    21531608.467   -20060556.985 9  23887732.412 8
  20569486.087    20569488.956    -3298569.929 9   -499934.315 8
 86  6 19 23 52 53.0800000  0  4G 6G 8G 9G11
  20448508.889    20448511.175   -20741845.952 9  26339920.589 8
  22773803.289    22773807.295     8388425.570 8   8494429.733 7
  21528658.434    21528659.858   -20076046.044 9  23875663.037 8
  20569849.376    20569852.144    -3296659.490 8   -498445.668 8
 86  6 19 23 52 59.0800000  0  4G 6G 8G 9G11
  20448339.840    20448341.954   -20742733.910 9  26339228.671 8
  22777665.887    22777668.148     8408716.434 9   8510240.787 8
  21525713.037    21525713.945   -20091526.606 9  23863600.262 8
  20570216.351    20570221.972    -3294726.647 9   -496939.555 7
 86  6 19 23 53  5.0800000  0  4G 6G 8G 9G11
  20448174.368    20448177.326   -20743603.850 9  26338550.796 8
  22781528.110    22781530.377     8429016.712 9   8526059.187 8
  21522769.342    21522770.001   -20106998.770 9  23851544.051 8
  20570588.520    20570593.589    -3292771.408 9   -495416.001 8
 86  6 19 23 53 11.0800000  0  4G 6G 8G 9G11
  20448012.789    20448014.974   -20744455.840 9  26337886.910 8
  22785392.536    22785394.800     8449326.355 9   8541884.890 8
  21519825.827    21519827.371   -20122462.495 9  23839494.396 8
  20570965.409    20570969.698    -3290793.813 9   -493875.018 7
 86  6 19 23 53 17.0800000  0  4G 6G 8G 9G11
  20447854.414    20447855.971   -20745289.744 9  26337237.118 9
  22789259.033    22789262.310     8469645.343 8   8557717.860 8
  21516884.116    21516886.727   -20137917.727 9  23827451.365 8
  20571345.780    20571349.714    -3288793.902 9   -492316.652 8
 86  6 19 23 53 23.0800000  0  4G 6G 8G 9G11
  20447698.215    20447700.415   -20746105.639 9  26336601.365 8
  22793127.949    22793131.243     8489973.583 9   8573558.058 8
  21513945.786    21513947.131   -20153364.522 9  23815414.906 9
  20571729.548    20571735.011    -3286771.668 9   -490740.885 7
 86  6 19 23 53 29.0800000  0  4G 6G 8G 9G11
  20447547.396    20447548.866   -20746903.521 9  26335979.640 8
  22796997.920    22797000.371     8510311.169 9   8589405.497 8
  21511007.615    21511009.083   -20168802.760 9  23803385.117 8
  20572120.107    20572122.653    -3284727.130 9   -489147.742 8
 86  6 19 23 53 35.0800000  0  4G 6G 8G 9G11
  20447397.894    20447400.595   -20747683.302 9  26335372.013 8
  22800869.662    22800872.481     8530658.023 9   8605260.202 8
  21508070.969    21508073.444   -20184232.486 9  23791361.948 8
  20572512.984    20572516.207    -3282660.250 9   -487537.166 8
 86  6 19 23 53 41.0800000  0  4G 6G 8G 9G11
  20447253.685    20447255.400   -20748444.986 9  26334778.502 9
  22804743.220    22804746.498     8551014.140 8   8621122.097 8
  21505136.411    21505138.829   -20199653.688 9  23779345.446 8
  20572909.996    20572912.142    -3280571.018 8   -485909.191 7
 86  6 19 23 53 47.0800000  0  4G 6G 8G 9G11
  20447111.681    20447114.082   -20749188.519 9  26334199.120 8
  22808618.715    22808620.635     8571379.516 8   8636991.229 8
  21502204.013    21502206.347   -20215066.216 9  23767335.688 8
  20573312.334    20573314.777    -3278459.465 9   -484263.834 8
 86  6 19 23 53 53.0800000  0  4G 6G 8G 9G11
  20446974.370    20446976.640   -20749913.946 9  26333633.857 8
  22812495.286    22812497.657     8591754.108 9   8652867.538 9
  21499273.240    21499274.958   -20230470.074 9  23755332.696 9
  20573718.875    20573719.534    -3276325.630 9   -482601.095 7
 86  6 19 23 53 59.0800000  0  4G 6G 8G 9G11
  20446840.092    20446841.348   -20750621.285 9  26333082.682 8
  22816374.808    22816377.645     8612137.789 9   8668750.910 9
  21496342.539    21496344.613   -20245865.430 9  23743336.317 9
  20574128.580    20574131.135    -3274169.560 8   -480921.040 7
 86  6 19 23 54  5.0800000  0  4G 6G 8G 9G11
  20446708.504    20446710.089   -20751310.479 9  26332545.649 8
  22820256.388    22820259.147     8632530.617 8   8684641.415 8
  21493414.864    21493416.667   -20261252.160 9  23731346.659 8
  20574543.342    20574545.503    -3271991.239 9   -479223.629 7
 86  6 19 23 54 11.0800000  0  4G 6G 8G 9G11
  20446580.609    20446582.364   -20751981.515 9  26332022.765 8
  22824138.643    22824140.769     8652932.550 8   8700539.020 8
  21490488.656    21490490.781   -20276630.259 9  23719363.725 8
  20574961.789    20574964.833    -3269790.664 9   -477508.900 6
 86  6 19 23 54 17.0800000  0  4G 6G 8G 9G11
  20446456.433    20446458.348   -20752634.431 9  26331513.996 8
  22828021.281    22828025.220     8673343.538 9   8716443.683 9
  21487564.508    21487567.304   -20291999.717 9  23707387.531 8
  20575386.028    20575386.106    -3267567.852 9   -475776.832 7
 86  6 19 23 54 23.0800000  0  4G 6G 8G 9G11
  20446335.034    20446337.191   -20753269.189 9  26331019.379 8
  22831908.438    22831910.118     8693763.571 8   8732355.389 8
  21484640.918    21484642.878   -20307360.464 7  23695418.129 9
  20575812.499    20575814.732    -3265322.815 9   -474027.459 7
 86  6 19 23 54 29.0800000  0  4G 6G 8G 9G11
  20446218.300    20446219.656   -20753885.743 9  26330538.946 8
  22835794.493    22835797.852     8714192.633 8   8748274.123 8
  21481719.131    21481722.158   -20322712.511 9  23683455.500 8
  20576243.187    20576246.414    -3263055.561 9   -472260.759 7
 86  6 19 23 54 35.0800000  0  4G 6G 8G 9G11
  20446106.259    20446105.554   -20754484.121 9  26330072.673 8
  22839683.993    22839686.900     8734630.699 9   8764199.896 9
  21478799.977    21478802.660   -20338055.799 9  23671499.691 9
  20576679.618    20576681.918    -3260766.129 9   -470476.782 7
 86  6 19 23 54 41.0800000  0  4G 6G 8G 9G11
  20445994.103    20445995.130   -20755064.303 9  26329620.598 9
  22843575.748    22843578.632     8755077.741 7   8780132.645 8
  21475882.154    21475884.513   -20353390.296 9  23659550.748 7
  20577119.543    20577121.463    -3258454.474 9   -468675.486 7
 86  6 19 23 54 47.0800000  0  4G 6G 8G 9G11
  20445886.125    20445888.382   -20755626.190 9  26329182.736 8
  22847468.773    22847471.387     8775533.809 8   8796072.426 9
  21472966.591    21472967.435   -20368715.987 9  23647608.657 9
  20577562.989    20577565.145    -3256120.668 8   -466856.928 7
 86  6 19 23 54 53.0800000  0  4G 6G 8G 9G11
  20445783.527    20445785.027   -20756169.903 9  26328759.073 8
  22851363.237    22851365.201     8795998.751 8   8812019.130 9
  21470050.764    21470052.954   -20384032.922 9  23635673.379 8
  20578011.500    20578013.579    -3253764.630 8   -465021.048 7
 86  6 19 23 54 59.0800000  0  4G 6G 8G 9G11
  20445683.192    20445684.806   -20756695.323 9  26328349.656 8
  22855258.926    22855261.890     8816472.630 8   8827972.787 8
  21467138.100    21467140.339   -20399341.037 9  23623744.994 8
  20578464.872    20578465.627    -3251386.370 9   -463167.849 7
 86  6 19 23 55  5.0800000  0  4G 6G 8G 9G11
  20445586.434    20445588.117   -20757202.487 9  26327954.465 8
  22859156.915    22859158.963     8836955.390 8   8843933.375 9
  21464227.223    21464229.083   -20414640.309 9  23611823.489 8
  20578919.689    20578921.882    -3248985.986 8   -461297.436 8
 86  6 19 23 55 11.0800000  0  4G 6G 8G 9G11
  20445493.566    20445495.136   -20757691.336 9  26327573.548 8
  22863056.069    22863057.878     8857447.005 8   8859900.864 9
  21461317.557    21461318.909   -20429930.685 9  23599908.910 9
                  20579382.001    -3246563.494 8
 86  6 19 23 55 17.0800000  0  4G 6G 8G 9G11
  20445403.848    20445405.360   -20758161.840 9  26327206.908 8
  22866958.159    22866960.167     8877947.472 7   8875875.236 9
  21458409.271    21458411.832   -20445212.142 9  23588001.287 8
                  20579846.227    -3244118.837 7
 86  6 19 23 55 23.0800000  0  4G 6G 8G 9G11
  20445317.820    20445319.907   -20758614.096 9  26326854.500 9
  22870859.468    22870862.469     8898456.683 8   8891856.445 9
  21455502.744    21455504.033   -20460484.665 9  23576100.623 8
  20580315.010    20580316.493    -3241652.131 8   -364400.205 7
 86  6 19 23 55 29.0800000  0  4G 6G 8G 9G11
  20445235.686    20445237.099   -20759047.997 9  26326516.382 8
  22874762.661    22874766.721     8918974.728 8   8907844.521 8
  21452598.450    21452600.282   -20475748.319 9  23564206.876 8
  20580789.091    20580792.800    -3239163.279 8   -362460.840 7
 86  6 19 23 55 35.0800000  0  4G 6G 8G 9G11
  20445155.840    20445158.526   -20759463.538 9  26326192.584 8
  22878670.330    22878672.831     8939501.524 8   8923839.427 9
  21449695.687    21449697.647   -20491002.943 9  23552320.158 8
  20581266.846    20581271.005    -3236652.271 8   -360503.720 7
 86  6 19 23 55 41.0800000  0  4G 6G 8G 9G11
  20445080.859    20445082.158   -20759860.764 9  26325883.049 7
  22882578.993    22882581.074     8960037.032 8   8939841.109 9
  21446794.748    21446796.079   -20506248.605 9  23540440.426 8
  20581747.831    20581752.241    -3234119.171 7   -358529.903 7
 86  6 19 23 55 47.0800000  0  4G 6G 8G 9G11
  20445008.856    20445010.554   -20760239.645 9  26325587.818 7
  22886488.732    22886490.962     8980581.233 9   8955849.571 8
  21443894.784    21443896.730   -20521485.351 9  23528567.634 9
  20582234.369    20582238.347    -3231563.986 8   -356538.839 7
 86  6 19 23 55 53.0800000  0  4G 6G 8G 9G11
  20444940.857    20444941.313   -20760600.159 9  26325306.893 7
  22890398.676    22890401.721     9001134.098 8   8971864.782 9
  21440996.743    21440999.053   -20536713.095 9  23516701.872 8
  20582724.491    20582728.841    -3228986.812 8   -354530.633 7
 86  6 19 23 55 59.0800000  0  4G 6G 8G 9G11
  20444875.979    20444877.221   -20760942.311 9  26325040.283 7
  22894311.043    22894313.986     9021695.592 9   8987886.724 9
  21438100.777    21438104.211   -20551931.750 9  23504843.188 8
  20583219.513    20583222.612    -3226387.520 9   -352505.236 7
 86  6 19 23 56  5.0800000  0  4G 6G 8G 9G11
  20444814.022    20444814.991   -20761266.033 9  26324788.024 8
  22898225.426    22898228.957     9042265.689 9   9003915.346 9
  21435206.450    21435208.346   -20567141.424 9  23492991.500 8
  20583719.026    20583721.598    -3223766.292 8   -350462.701 8
 86  6 19 23 56 11.0800000  0  4G 6G 8G 9G11
  20444756.126    20444757.566   -20761571.327 9  26324550.146 8
  22902142.081    22902144.188     9062844.390 8   9019950.697 8
  21432314.461    21432315.886   -20582341.900 9  23481146.974 9
  20584221.750    20584223.975    -3221122.926 8   -348402.936 7
 86  6 19 23 56 17.0800000  0  4G 6G 8G 9G11
  20444702.811    20444703.064   -20761858.176 9  26324326.626 8
  22906058.573    22906063.203     9083431.722 7   9035992.757 9
  21429423.045    21429424.863   -20597533.324 9  23469309.498 9
  20584726.807    20584731.132    -3218457.564 8   -346326.051 8
 86  6 19 23 56 23.0800000  0  4G 6G 8G 9G11
  20444650.953    20444652.351   -20762126.595 9  26324117.469 8
  22909978.065    22909981.497     9104027.570 8   9052041.460 9
  21426534.235    21426535.672   -20612715.643 9  23457479.124 8
  20585241.530    20585243.032    -3215770.214 8   -344232.011 7
 86  6 19 23 56 29.0800000  0  4G 6G 8G 9G11
  20444602.559    20444604.116   -20762376.528 9  26323922.717 8
  22913898.344    22913902.522     9124631.985 8   9068096.842 9
  21423646.861    21423648.264   -20627888.744 9  23445655.937 8
  20585758.214    20585759.475    -3213060.774 8   -342120.750 7
 86  6 19 23 56 35.0800000  0  4G 6G 8G 9G11
  20444558.487    20444559.985   -20762608.032 9  26323742.326 8
                  22917825.921                     9084158.815 9
  21420760.762    21420762.164   -20643052.683 9  23433839.884 8
  20586277.111    20586277.847    -3210329.379 8   -339992.387 7
 86  6 19 23 56 41.0800000  0  4G 6G 8G 9G11
  20444519.308    20444519.934   -20762821.019 9  26323576.365 8
  22921746.161    22921748.599     9100568.194 8   9100227.386 9
  21417877.095    21417879.004   -20658207.456 9  23422030.968 7
  20586802.193    20586802.336    -3207575.979 9   -337846.880 8
 86  6 19 23 56 47.0800000  0  4G 6G 8G 9G11
  20444481.418    20444482.286   -20763015.520 1  26323424.804 8
  22925671.121    22925674.673     9121198.001 8   9116302.542 9
  21414994.880    21414996.290   -20673352.975 9  23410229.279 8
  20587329.458    20587331.085    -3204800.650 9   -335684.288 7
 86  6 19 23 56 53.0800000  0  4G 6G 8G 9G11
  20444448.392    20444448.244   -20763191.569 9  26323287.628 8
  22929599.326    22929602.349     9141836.142 8   9132384.211 9
  21412114.889    21412116.062   -20688489.319 9  23398434.725 8
  20587862.566    20587863.277    -3202003.407 9   -333504.611 7
 86  6 19 23 56 59.0800000  0  4G 6G 8G 9G11
  20444418.943    20444419.240   -20763349.056 9  26323164.913 7
  22933527.644    22933531.278     9162482.751 9   9148472.468 9
  21409235.400    21409237.482   -20703616.384 9  23386647.396 8
  20588398.851    20588401.006    -3199184.182 8   -331307.808 8
 86  6 19 23 57  5.0800000  0  4G 6G 8G 9G11
  20444392.528    20444392.724   -20763488.010 9  26323056.634 7
  22937459.663    22937461.609     9183137.670 9   9164567.220 9
  21406358.667    21406361.034   -20718734.242 9  23374867.250 8
  20588938.789    20588940.601    -3196343.013 9   -329093.914 7
 86  6 19 23 57 11.0800000  0  4G 6G 8G 9G11
  20444369.089    20444370.401   -20763608.464 9  26322962.783 8
  22941390.609    22941394.128     9203800.974 9   9180668.479 8
  21403483.885    21403485.372   -20733842.808 9  23363094.340 8
  20589484.726    20589486.751    -3193479.896 9   -326862.915 8
 86  6 19 23 57 17.0800000  0  4G 6G 8G 9G11
  20444349.342    20444351.371   -20763710.350 9  26322883.378 7
  22945324.827    22945326.968     9224472.562 9   9196776.208 9
  21400610.335    21400612.688   -20748942.039 9  23351328.712 7
  20590032.699    20590035.876    -3190594.889 9   -324614.852 7
 86  6 19 23 57 23.0800000  0  4G 6G 8G 9G11
  20444333.058    20444335.058   -20763793.722 9  26322818.419 7
  22949260.403    22949263.137     9245152.385 9   9212890.349 8
  21397738.136    21397740.798   -20764032.008 9  23339570.297 7
  20590585.989    20590588.905    -3187688.029 9   -322349.767 8
 86  6 19 23 57 29.0800000  0  4G 6G 8G 9G11
  20444320.667    20444322.823   -20763858.397 9  26322768.025 8
  22953196.897    22953198.973     9265840.625 9   9229011.053 9
  21394869.565    21394871.439   -20779112.499 9  23327819.267 9
  20591143.021    20591145.611    -3184759.147 9   -320067.519 8
 86  6 19 23 57 35.0800000  0  4G 6G 8G 9G11
  20444312.710    20444314.152   -20763904.506 9  26322732.097 8
  22957135.134    22957137.967     9286537.012 9   9245138.114 9
  21392000.995    21392002.569   -20794183.655 9  23316075.509 8
  20591705.093    20591707.999    -3181808.464 9   -317768.285 7
 86  6 19 23 57 41.0800000  0  4G 6G 8G 9G11
  20444306.271    20444309.315   -20763932.108 9  26322710.592 9
  22961074.662    22961077.757     9307241.514 9   9261271.488 9
  21389134.726    21389136.544   -20809245.523 9  23304339.005 7
  20592270.249    20592273.511    -3178836.010 8   -315452.068 8
 86  6 19 23 57 47.0800000  0  4G 6G 8G 9G11
  20444305.527    20444307.111   -20763941.136 9  26322703.551 9
  22965015.325    22965019.162     9327954.209 9   9277411.237 9
  21386270.112    21386272.774   -20824298.032 9  23292609.780 8
  20592840.045    20592843.585    -3175841.719 9   -313118.861 7
 86  6 19 23 57 53.0800000  0  4G 6G 8G 9G11
                  20444306.427   -20763931.489 9
  22968959.595    22968961.506     9348675.054 9   9293557.365 9
  21383407.838    21383410.835   -20839340.979 9  23280888.001 7
  20593414.416    20593416.923    -3172825.570 9   -310768.615 8
 86  6 19 23 57 59.0800000  0  4G 6G 8G 9G11
  20444309.979    20444316.028   -20763903.199 9  26374698.574 7
  22972903.460    22972907.330     9369404.042 9   9309709.806 9
  21380547.029    21380549.526   -20854374.536 9  23269173.541 8
  20593992.031    20593995.951    -3169787.652 9   -308401.395 8
 86  6 19 23 58  5.0800000  0  4G 6G 8G 9G11
  20444320.937    20444323.284   -20763856.264 9  26374735.188 8
  22976848.957    22976852.987     9390141.172 9   9325868.603 9
  21377687.687    21377691.594   -20869398.561 9  23257466.498 8
  20594574.075    20594578.715    -3166727.898 9   -306017.177 8
 86  6 19 23 58 11.0800000  0  4G 6G 8G 9G11
  20444332.126    20444335.403   -20763790.547 8  26374785.902 8
  22980798.013    22980800.146     9410886.451 9   9342033.754 8
  21374830.242    21374832.918   -20884412.964 9  23245766.971 8
  20595160.336    20595165.241    -3163646.263 9   -303615.893 8
 86  6 19 23 58 17.0800000  0  4G 6G 8G 9G11
  20444348.640    20444351.487   -20763706.176 8  26374851.642 8
  22984746.645    22984749.435     9431639.739 9   9358205.138 8
  21371975.415    21371979.313   -20899417.954 9  23234074.776 8
  20595751.162    20595755.447    -3160542.872 9   -301197.682 7
 86  6 19 23 58 23.0800000  0  4G 6G 8G 9G11
                  20444368.029   -20763603.044 8
  22988697.356    22988699.813     9452401.185 9   9374382.881 9
  21369121.704    21369124.079   -20914413.259 9  23222390.122 8
  20596345.681    20596350.056    -3157417.560 9   -298762.371 8
 86  6 19 23 58 29.0800000  0  4G 6G 8G 9G11
  20444391.938    20444394.298   -20763481.279 9  26421148.394 1
  22992649.625    22992652.520     9473170.566 9   9390566.823 9
  21366269.833    21366272.687   -20929399.043 9  23210712.898 9
  20596945.833    20596948.555    -3154270.519 9   -296310.125 8
 86  6 19 23 58 35.0800000  0  4G 6G 8G 9G11
  20444416.751    20444421.513   -20763340.780 9  26421257.870 9
  22996603.805    22996606.503     9493947.900 9   9406756.953 9
  21363419.927    21363422.747   -20944375.217 9  23199043.151 8
                  20597547.885    -3151101.712 8
 86  6 19 23 58 41.0800000  0  4G 6G 8G 9G11
  20444447.716    20444451.104   -20763181.529 9  26421382.448 9
  23000559.368    23000561.736     9514733.190 9   9422953.279 8
  21360571.804    21360573.257   -20959341.819 9  23187380.870 8
  20598153.616    20598158.320    -3147911.199 9   -241902.320 8
 86  6 19 23 58 47.0800000  0  4G 6G 8G 9G11
  20444481.314    20444485.416   -20763003.555 9  26421521.139 9
  23004515.855    23004517.992     9535526.433 9   9439155.802 9
  21357725.763    21357729.083   -20974298.825 9  23175726.052 8
  20598765.969    20598768.967    -3144699.023 9   -239399.310 7
 86  6 19 23 58 53.0800000  0  4G 6G 8G 9G11
  20444520.176    20444523.363   -20762806.839 9  26421674.415 9
  23008473.228    23008476.325     9556327.546 9   9455364.459 8
  21354881.459    21354884.730   -20989246.131 9  23164078.815 8
  20599380.791    20599385.063    -3141465.126 9   -236879.889 7
 86  6 19 23 58 59.0800000  0  4G 6G 8G 9G11
  20444560.615    20444563.687   -20762591.316 9  26421842.362 8
  23012434.516    23012435.908     9577136.582 9   9471579.294 9
  21352038.767    21352041.537   -21004183.715 9  23152439.142 8
  20600000.799    20600004.154    -3138209.441 9   -234342.996 8
 86  6 19 23 59  5.0800000  0  4G 6G 8G 9G11
  20444605.859    20444607.688   -20762356.915 8  26422025.016 8
  23016395.411    23016397.948     9597953.547 9   9487800.303 9
  21349198.507    21349201.219   -21019111.535 9  23140807.070 7
  20600624.256    20600628.189    -3134931.996 9   -231789.145 8
 86  6 19 23 59 11.0800000  0  4G 6G 8G 9G11
  20444653.366    20444655.037   -20762103.785 9  26422222.272 8
  23020357.872    23020360.141     9618778.318 9   9504027.400 8
  21346359.663    21346362.525   -21034029.654 9  23129182.569 8
  20601252.216    20601254.791    -3131632.904 9   -229218.413 8
 86  6 19 23 59 17.0800000  0  4G 6G 8G 9G11
  20444705.537    20444707.866   -20761831.877 9  26422434.147 8
  23024322.170    23024324.487     9639610.867 9   9520260.532 8
  21343521.922    21343524.662   -21048938.077 9  23117565.627 8
  20601884.656    20601888.226    -3128312.162 9   -226630.820 7
 86  6 19 23 59 23.0800000  0  4G 6G 8G 9G11
  20444760.942    20444763.685   -20761541.106 9  26422660.714 9
  23028287.540    23028291.122     9660451.190 9   9536499.754 6
  21340687.614    21340690.462   -21063836.748 9  23105956.264 7
  20602521.093    20602521.816    -3124969.748 8   -224026.335 7
 86  6 19 23 59 29.0800000  0  4G 6G 8G 9G11
  20444819.267    20444822.296   -20761231.527 9  26422901.939 9
  23032255.144    23032257.010     9681299.312 8   9552745.043 9
  21337854.522    21337856.605   -21078725.627 9  23094354.544 8
  20603160.578    20603163.518    -3121605.674 9   -221404.974 7
 86  6 19 23 59 35.0800000  0  4G 6G 8G 9G11
  20444881.769    20444884.341   -20760903.144 9  26423157.840 9
  23036224.048    23036225.677     9702155.133 9   9568996.326 9
  21335022.598    21335024.681   -21093604.654 9  23082760.505 8
  20603805.171    20603807.958    -3118220.005 9   -218766.791 8
 86  6 19 23 59 41.0800000  0  4G 6G 8G 9G11
  20444948.249    20444949.848   -20760555.907 9  26423428.411 9
  23040193.458    23040196.430     9723018.667 9   9585253.625 8
  21332192.840    21332193.820   -21108473.909 9  23071174.081 8
  20604454.354    20604456.075    -3114812.712 8   -216111.741 8
 86  6 19 23 59 47.0800000  0  4G 6G 8G 9G11
  20445018.450    20445020.406   -20760189.778 9  26423713.709 9
  23044165.826    23044168.329     9743889.858 9   9601516.891 8
  21329365.709    21329367.589   -21123333.262 9  23059595.369 8
  20605106.319    20605108.567    -3111383.816 9   -213439.885 7
 86  6 19 23 59 53.0800000  0  4G 6G 8G 9G11
  20445090.912    20445092.997   -20759804.777 8  26424013.716 9
  23048138.300    23048142.056     9764768.718 9   9617786.131 8
  21326540.780    21326541.368   -21138182.700 9  23048024.375 8
  20605763.037    20605764.969    -3107933.353 8   -210751.198 8
 86  6 19 23 59 59.0800000  0  4G 6G 8G 9G11
  20445168.152    20445169.594   -20759400.832 8  26424328.477 9
  23052112.557    23052115.648     9785655.235 9   9634061.335 9
  21323717.140    21323717.262   -21153022.337 9  23036461.029 8
  20606422.748    20606425.645    -3104461.247 9   -208045.663 7
 86  6 20  0  0  5.0800000  0  4G 6G 8G 9G11
  20445248.571    20445250.055   -20758977.972 8  26424657.973 8
  23056089.042    23056091.714     9806549.387 9   9650342.499 9
  21320893.994    21320895.540   -21167852.019 9  23024905.433 7
  20607088.461    20607090.088    -3100967.596 9   -205323.333 8
 86  6 20  0  0 11.0800000  0  4G 6G 8G 9G11
  20445331.306    20445334.878   -20758536.172 9  26425002.230 8
  23060066.654    23060069.164     9827451.117 9   9666629.561 9
  21318074.218    21318076.107   -21182671.769 9  23013357.585 9
  20607757.404    20607759.390    -3097452.351 9   -202584.184 7
 86  6 20  0  0 17.0800000  0  4G 6G 8G 9G11
  20445419.536    20445421.707   -20758075.439 9  26425361.256 8
  23064045.578    23064048.541     9848360.392 9   9682922.496 8
  21315255.650    21315257.696   -21197481.441 9  23001817.579 8
                  20608430.759    -3093915.521 8
 86  6 20  0  0 23.0800000  0  4G 6G 8G 9G11
  20445510.571    20445513.471   -20757595.697 8  26425735.071 8
  23068025.129    23068028.713     9869277.282 9   9699221.365 8
  21312439.765    21312441.725   -21212281.120 9  22990285.357 8
  20609107.438    20609109.278    -3090357.073 9   -148217.857 7
 86  6 20  0  0 29.0800000  0  4G 6G 8G 9G11
  20445605.554    20445608.528   -20757097.054 9  26426123.629 8
  23072007.824    23072010.933     9890201.604 9   9715526.033 9
  21309625.633    21309627.486   -21227070.902 9  22978760.870 8
  20609788.255    20609790.712    -3086777.081 9   -145428.295 8
 86  6 20  0  0 35.0800000  0  4G 6G 8G 9G11
  20445704.175    20445706.832   -20756579.478 9  26426526.936 8
  23075990.859    23075993.979     9911133.398 9   9731836.506 9
  21306813.283    21306813.285   -21241850.663 9  22967244.181 7
  20610474.519    20610476.212    -3083175.597 8   -142621.427 7
 86  6 20  0  0 41.0800000  0  4G 6G 8G 9G11
  20445806.770    20445809.099   -20756042.802 9  26426945.126 8
  23079975.423    23079978.688     9932072.716 9   9748152.864 9
  21304002.449    21304003.422   -21256620.249 9  22955735.411 8
  20611163.439    20611165.096    -3079552.528 8   -139798.253 7
 86  6 20  0  0 47.0800000  0  4G 6G 8G 9G11
  20445912.887    20445914.015   -20755487.177 8  26427378.076 8
  23083960.962    23083964.785     9953019.461 9   9764474.999 9
  21301193.342    21301195.502   -21271379.821 9  22944234.456 8
  20611857.570    20611859.932    -3075907.984 9   -136958.329 7
 86  6 20  0  0 53.0800000  0  4G 6G 8G 9G11
  20446022.039    20446023.466   -20754912.553 9  26427825.844 8
  23087949.126    23087951.838     9973973.595 9   9780802.891 8
  21298387.073    21298388.238   -21286129.337 9  22932741.326 8
  20612554.996    20612557.004    -3072241.960 9   -134101.707 7
 86  6 20  0  0 59.0800000  0  4G 6G 8G 9G11
  20446135.051    20446136.737   -20754318.899 9  26428288.429 9
  23091937.088    23091940.604     9994935.144 9   9797136.570 9
  21295582.613    21295583.249   -21300868.652 9  22921256.153 9
  20613256.833    20613258.608    -3068554.442 9   -131228.312 8
 86  6 20  0  1  5.0800000  0  4G 6G 8G 9G11
  20446250.727    20446253.313   -20753706.178 9  26428765.883 8
  23095927.821    23095931.978    10015904.020 9   9813475.957 9
  21292779.464    21292781.011   -21315597.836 9  22909778.872 8
  20613961.987    20613963.929    -3064845.497 9   -128338.221 8
 86  6 20  0  1 11.0800000  0  4G 6G 8G 9G11
  20446371.381    20446374.139   -20753074.452 9  26429258.136 9
  23099919.123    23099922.840    10036880.242 9   9829821.051 8
  21289978.425    21289979.891   -21330316.875 9  22898309.497 8
  20614672.009    20614672.874    -3061115.115 9   -125431.440 8
 86  6 20  0  1 17.0800000  0  4G 6G 8G 9G11
  20446495.700    20446497.799   -20752423.765 9  26429765.160 8
  23103912.583    23103915.792    10057863.712 9   9846171.800 9
  21287179.225    21287181.114   -21345025.815 9  22886847.976 8
  20615386.946    20615387.772    -3057363.322 8   -122507.958 7
 86  6 20  0  1 23.0800000  0  4G 6G 8G 9G11
  20446622.737    20446624.593   -20751753.955 9  26430287.083 8
  23107907.036    23107910.245    10078854.446 9   9862528.216 9
  21284382.823    21284383.745   -21359724.571 9  22875394.415 8
  20616103.747    20616105.813    -3053590.097 9   -119567.783 8
 86  6 20  0  1 29.0800000  0  4G 6G 8G 9G11
  20446753.951    20446755.722   -20751065.106 9  26430823.866 8
  23111903.057    23111906.520    10099852.431 9   9878890.271 9
  21281587.171    21281589.166   -21374413.014 9  22863948.881 8
  20616826.311    20616828.032    -3049795.481 9   -116610.940 7
 86  6 20  0  1 35.0800000  0  4G 6G 8G 9G11
  20446888.201    20446889.885   -20750357.159 9  26431375.503 9
  23115900.094    23115903.653    10120857.701 9   9895258.013 9
  21278794.382    21278795.347   -21389091.276 9  22852511.277 8
  20617552.295    20617554.685    -3045979.475 9   -113637.435 8
 86  6 20  0  1 41.0800000  0  4G 6G 8G 9G11
  20447027.257    20447029.715   -20749630.117 9  26431942.027 8
  23119898.558    23119901.452    10141870.143 9   9911631.349 9
  21276002.944    21276004.196   -21403759.249 9  22841081.688 8
  20618282.380    20618283.877    -3042142.133 8   -110647.285 8
 86  6 20  0  1 47.0800000  0  4G 6G 8G 9G11
  20447169.491    20447170.745   -20748883.991 9  26432523.426 8
  23123899.225    23123901.647    10162889.710 9   9928010.220 9
  21273213.689    21273215.656   -21418416.947 9  22829660.116 8
  20619017.115    20619018.797    -3038283.507 9   -107640.576 8
 86  6 20  0  1 53.0800000  0  4G 6G 8G 9G11
  20447315.044    20447316.685   -20748118.666 9  26433119.791 9
  23127899.789    23127903.192    10183916.488 9   9944394.720 8
  21270426.308    21270427.360   -21433064.331 9  22818246.585 9
  20619755.287    20619757.555    -3034403.558 9   -104617.239 8
 86  6 20  0  1 59.0800000  0  4G 6G 8G 9G11
  20447463.801    20447466.788   -20747334.248 9  26433731.022 8
  23131902.432    23131905.612    10204950.376 9   9960784.763 8
  21267641.096    21267642.542   -21447701.369 9  22806841.105 7
  20620497.243    20620500.560    -3030502.261 9   -101577.260 8
 86  6 20  0  2  5.0800000  0  4G 6G 8G 9G11
  20447616.796    20447619.024   -20746530.693 9  26434357.155 8
  23135906.870    23135910.282    10225991.359 9   9977180.319 9
  21264857.893    21264859.847   -21462328.053 9  22795443.677 8
  20621244.044    20621247.121    -3026579.565 9    -98520.603 8
 86  6 20  0  2 11.0800000  0  4G 6G 8G 9G11
  20447772.822    20447775.881   -20745707.995 9  26434998.219 8
  23139912.339    23139915.196    10247039.387 9   9993581.383 9
  21262076.301    21262078.376   -21476944.409 9  22784054.318 7
  20621994.504    20621998.159    -3022635.587 9    -95447.383 8
 86  6 20  0  2 17.0800000  0  4G 6G 8G 9G11
  20447932.885    20447935.371   -20744866.220 9  26435654.153 8
  23143918.371    23143922.689    10268094.474 9  10009987.941 8
  21259297.313    21259297.713   -21491550.332 9  22772673.084 8
  20622748.762    20622752.142    -3018670.366 9    -92357.597 7
 86  6 20  0  2 23.0800000  0  4G 6G 8G 9G11
  20448097.412    20448099.970   -20744005.221 9  26436325.066 9
  23147926.358    23147929.167    10289156.595 9  10026399.982 9
  21256519.212    21256521.594   -21506145.960 9  22761299.873 8
  20623508.057    20623510.947    -3014683.883 8    -89251.239 8
 86  6 20  0  2 29.0800000  0  4G 6G 8G 9G11
  20448264.000    20448267.473   -20743124.927 9  26437010.999 8
  23151935.912    23151938.673    10310225.762 9  10042817.502 9
  21253743.664    21253745.467   -21520731.036 9  22749934.879 8
  20624270.111    20624274.272    -3010676.055 9    -86128.270 8
 86  6 20  0  2 35.0800000  0  4G 6G 8G 9G11
  20448436.910    20448439.283   -20742225.443 9  26437711.895 9
  23155947.072    23155949.343    10331301.874 9  10059240.439 8
  21250970.851    21250972.768   -21535305.686 9  22738578.015 8
  20625037.281    20625039.216    -3006646.967 9    -82988.707 8
 86  6 20  0  2 41.0800000  0  4G 6G 8G 9G11
  20448611.083    20448614.140   -20741306.826 9  26438427.695 7
  23159958.460    23159961.529    10352384.938 9  10075668.794 9
  21248198.465    21248200.775   -21549869.789 9  22727229.373 7
  20625807.787    20625810.242    -3002596.596 9    -79832.570 8
 86  6 20  0  2 47.0800000  0  4G 6G 8G 9G11
  20448789.889    20448792.677   -20740368.950 9  26439158.514 9
  23163972.164    23163974.586    10373474.944 9  10092102.559 9
  21245429.372    21245430.796   -21564423.391 9  22715888.906 8
  20626581.754    20626584.021    -2998524.961 9    -76659.864 8
 86  6 20  0  2 53.0800000  0  4G 6G 8G 9G11
  20448972.075    20448974.661   -20739411.807 9  26439904.333 9
  23167986.787    23167988.851    10394571.841 9  10108541.704 9
  21242661.495    21242664.398   -21578966.491 9  22704556.623 7
  20627361.790    20627364.201    -2994432.146 9    -73470.662 7
 86  6 20  0  2 59.0800000  0  4G 6G 8G 9G11
  20449158.151    20449160.580   -20738435.400 9  26440665.165 8
  23172002.633    23172005.792    10415675.687 9  10124986.241 9
  21239896.651    21239899.026   -21593499.043 9  22693232.567 9
  20628145.297    20628147.011    -2990318.098 9    -70264.919 8
 86  6 20  0  3  5.0800000  0  4G 6G 8G 9G11
  20449347.720    20449350.520   -20737439.789 9  26441440.963 8
  23176019.355    23176022.382    10436786.317 9  10141436.078 9
  21237132.709    21237135.264   -21608020.983 9  22681916.777 9
  20628930.978    20628933.437    -2986182.863 9    -67042.664 7
 86  6 20  0  3 11.0800000  0  4G 6G 8G 9G11
  20449541.036    20449543.236   -20736424.863 9  26442231.814 8
  23180038.922    23180041.265    10457903.830 9  10157891.281 9
  21234371.499    21234374.004   -21622532.278 9  22670609.268 8
  20629721.466    20629723.937    -2982026.492 9    -63803.932 7
 86  6 20  0  3 17.0800000  0  4G 6G 8G 9G11
  20449737.616    20449740.231   -20735390.659 9  26443037.675 8
  23184058.224    23184061.347    10479028.136 9  10174351.777 9
  21231612.265    21231613.812   -21637032.964 9  22659310.043 8
  20630516.658    20630519.164    -2977848.925 9    -60548.691 8
 86  6 20  0  3 23.0800000  0  4G 6G 8G 9G11
  20449937.916    20449940.701   -20734337.118 9  26443858.621 9
  23188079.497    23188081.954    10500159.288 9  10190817.603 9
  21228855.142    21228856.351   -21651523.053 9  22648019.067 8
  20631315.015    20631317.061    -2973650.173 9    -57276.930 7
 86  6 20  0  3 29.0800000  0  4G 6G 8G 9G11
  20450142.250    20450144.250   -20733264.228 9  26444694.634 9
                  23192104.318                    10207288.683 9
  21226099.749    21226103.082   -21666002.513 9  22636736.379 9
  20632117.538    20632120.855    -2969430.281 8    -53988.711 8
 86  6 20  0  3 35.0800000  0  4G 6G 8G 9G11
  20450350.793    20450351.704   -20732172.131 9  26445545.619 8
  23196125.973    23196128.270    10476160.701 9  10223764.950 8
  21223346.017    21223348.370   -21680471.289 9  22625462.005 8
  20632924.416    20632929.230    -2965189.362 9    -50684.091 7
 86  6 20  0  3 41.0800000  0  4G 6G 8G 9G11
  20450563.112    20450563.095   -20731060.702 9  26446411.671 9
  23200150.810    23200152.523    10497311.971 9  10240246.445 8
  21220594.294    21220596.420   -21694929.388 9  22614195.959 8
  20633736.656    20633739.911    -2960927.325 8    -47363.033 7
 86  6 20  0  3 47.0800000  0  4G 6G 8G 9G11
  20450777.464    20450778.920   -20729929.929 9  26447292.782 8
  23204177.026    23204179.315    10518469.910 9  10256733.137 8
  21217845.949    21217847.652   -21709376.743 9  22602938.288 8
  20634550.576    20634553.434    -2956644.199 8    -44025.537 6
 86  6 20  0  3 53.0800000  0  4G 6G 8G 9G11
  20450995.651    20450998.737   -20728779.788 9  26448188.999 8
  23208204.939    23208207.050    10539634.563 9  10273225.076 9
  21215098.091    21215100.967   -21723813.337 9  22591689.004 8
  20635370.304    20635372.590    -2952340.000 8    -40671.618 7
 86  6 20  0  3 59.0800000  0  4G 6G 8G 9G11
  20451217.729    20451220.602   -20727610.284 9  26449100.300 9
  23212233.394    23212235.269    10560805.821 9  10289722.149 9
                  21212352.515   -21738239.163 9
  20636194.101    20636196.493    -2948014.810 8    -37301.340 7
 86  6 20  0  4  5.0800000  0  4G 6G 8G 9G11
  20451444.042    20451446.143   -20726421.425 9  26450026.684 8
  23216263.114    23216265.081    10581983.645 9  10306224.353 8
  21209610.236    21209612.303   -21752654.238 9  22626620.620 1
  20637020.567    20637023.910    -2943668.603 9    -33914.686 8
 86  6 20  0  4 11.0800000  0  4G 6G 8G 9G11
  20451673.447    20451676.290   -20725213.187 9  26450968.166 9
  23220293.888    23220296.321    10603168.050 9  10322731.679 8
  21206868.258    21206871.671   -21767058.476 9  22615396.503 8
  20637852.058    20637853.851    -2939301.334 9    -30511.625 7
 86  6 20  0  4 17.0800000  0  4G 6G 8G 9G11
  20451906.543    20451909.731   -20723985.553 9  26451924.760 8
  23224326.654    23224327.767    10624359.023 9  10339244.115 8
  21204129.680    21204133.113   -21781451.891 9  22604180.869 9
  20638686.451    20638690.067    -2934913.047 9    -27092.178 7
 86  6 20  0  4 23.0800000  0  4G 6G 8G 9G11
  20452144.992    20452148.180   -20722738.503 9  26452896.477 8
  23228360.869    23228361.771    10645556.532 9  10355761.661 9
  21201392.783    21201394.941   -21795834.491 9  22592973.647 9
  20639525.974    20639527.413    -2930503.689 9    -23656.306 8
 86  6 20  0  4 29.0800000  0  4G 6G 8G 9G11
  20452385.901    20452388.617   -20721472.127 9  26453883.261 8
  23232395.780    23232397.020    10666760.489 9  10372284.216 9
  21198657.429    21198660.563   -21810206.149 9  22581774.955 8
                  20640370.153                      -20204.104 7
 86  6 20  0  4 35.0800000  0  4G 6G 8G 9G11
  20452630.961    20452632.230   -20720186.432 8  26454885.102 8
  23236432.284    23236433.856    10687970.814 9  10388811.730 8
  21195925.068    21195927.952   -21824567.107 9  22570584.616 8
  20641216.899    20641220.421    -2962463.233 1    -16735.692 8
 86  6 20  0  4 41.0800000  0  4G 6G 8G 9G11
  20452879.740    20452880.452   -20718881.251 9  26455902.132 7
  23240469.030    23240471.526    10709187.674 9  10405344.347 9
  21193194.579    21193197.670   -21838917.100 9  22559402.796 8
  20642067.190    20642068.951    -2957991.055 8    -13250.872 7
 86  6 20  0  4 47.0800000  0  4G 6G 8G 9G11
                  20453131.667   -20717556.432 9
  23244507.591    23244510.110    10730411.138 9  10421882.120 8
  21190466.798    21190468.593   -21853255.971 9  22548229.667 7
  20642922.014    20642924.743    -2953497.759 8     -9749.626 7
 86  6 20  0  4 53.0800000  0  4G 6G 8G 9G11
  20453387.516    20453388.416   -20716212.191 9  26503140.413 1
  23248547.842    23248550.585    10751640.982 9  10438424.839 9
  21187739.737    21187741.462   -21867583.850 9  22537065.081 8
  20643780.107    20643783.394    -2948983.533 9     -6232.042 8
 86  6 20  0  4 59.0800000  0  4G 6G 8G 9G11
  20453646.826    20453647.729   -20714848.555 9  26504202.980 8
  23252588.947    23252590.821    10772877.087 9  10454972.452 8
  21185015.352    21185017.807   -21881900.823 9  22525908.997 8
  20644644.224    20644646.578    -2944448.457 9     -2698.215 8
 86  6 20  0  5  5.0800000  0  4G 6G 8G 9G11
  20453910.487    20453911.233   -20713465.243 9  26505280.391 8
  23256631.994    23256634.019    10794119.734 9  10471525.167 8
  21182293.265    21182294.960   -21896206.773 9  22514761.514 8
  20645510.378    20645514.795    -2939892.339 7       852.004 6
 86  6 20  0  5 11.0800000  0  4G 6G 8G 9G11
  20454177.068    20454178.098   -20712062.579 9  26506373.366 8
  23260674.979    23260677.075    10815368.629 9  10488082.745 9
  21179572.951    21179575.012   -21910501.650 9  22503622.652 8
  20646380.506    20646384.718    -2935315.402 8      4418.467 7
 86  6 20  0  5 17.0800000  0  4G 6G 8G 9G11
                  20454446.825   -20710640.625 1
  23264719.937    23264721.142    10836623.595 9  10504645.046 9
  21176855.413    21176856.345   -21924785.715 9  22492492.224 9
  20647256.932    20647260.112    -2930717.789 8      8001.009 8
 86  6 20  0  5 23.0800000  0  4G 6G 8G 9G11
  20454721.589    20454706.868   -20709199.040 9  26553678.382 8
  23268765.414    23268767.931    10857884.997 9  10521212.376 8
  21174139.099    21174139.951   -21939058.633 9  22481370.478 9
  20648134.015    20648138.200    -2926099.178 8     11599.918 6
 86  6 20  0  5 29.0800000  0  4G 6G 8G 9G11
  20454999.902    20455000.607   -20707737.895 9  26554816.751 7
  23272812.793    23272814.736    10879152.728 9  10537784.634 8
  21171424.596    21171427.114   -21953320.321 9  22470257.475 8
  20649016.283    20649020.032    -2921459.650 9     15215.146 7
 86  6 20  0  5 35.0800000  0  4G 6G 8G 9G11
  20455281.222    20455283.185   -20706257.356 9  26555970.922 7
  23276860.553    23276862.244    10900426.478 9  10554361.576 9
  21168713.862    21168715.328   -21967571.135 9  22459152.940 8
  20649903.990    20649907.179    -2916799.471 8     18846.478 6
 86  6 20  0  5 41.0800000  0  4G 6G 8G 9G11
  20455566.775    20455568.682   -20704757.020 9  26557140.021 8
  23280910.605    23280911.968    10921706.708 9  10570943.571 8
  21166003.723    21166005.519   -21981810.482 9  22448057.343 8
  20650795.759    20650797.148    -2912118.162 8     22494.245 7
 86  6 20  0  5 47.0800000  0  4G 6G 8G 9G11
  20455855.535    20455858.516   -20703237.147 9  26558324.329 8
  23284961.308    23284962.563    10942993.132 9  10587530.381 8
                  21163296.938                    22436970.491 8
  20651690.084    20651692.001    -2907416.057 9     26158.226 7
 86  6 20  0  5 53.0800000  0  4G 6G 8G 9G11
  20456148.673    20456150.508   -20701697.684 9  26559523.905 7
  23289012.888    23289014.920    10964285.710 9  10604122.006 7
  21160592.212    21160594.173   -22032248.639 1  22425892.303 7
  20652588.165    20652591.061    -2902693.149 8     29838.404 6
 86  6 20  0  5 59.0800000  0  4G 6G 8G 9G11
  20456444.702    20456447.723   -20700138.767 9  26560738.640 8
  23293066.096    23293068.670    10985584.337 9  10620718.337 8
  21157887.455    21157887.656   -22046454.586 9  22414822.743 7
  20653490.959    20653494.067    -2897949.587 9     33534.707 7
 86  6 20  0  6  5.0800000  0  4G 6G 8G 9G11
  20456744.851    20456747.159   -20698560.403 7  26561968.540 8
  23297120.468    23297122.816    11006888.958 9  10637319.336 8
  21155185.580    21155187.139   -22060649.406 9  22403761.857 9
  20654398.245    20654401.374    -2893185.387 8     37247.060 6
 86  6 20  0  6 11.0800000  0  4G 6G 8G 9G11
  20457049.264    20457050.541   -20696962.156 9  26563213.920 7
  23301176.274    23301176.582    11028199.926 9  10653925.279 7
  21152488.003    21152487.925   -22074832.652 9  22392709.987 9
  20655308.762    20655312.036    -2888400.143 8     40975.837 6
 86  6 20  0  6 17.0800000  0  4G 6G 8G 9G11
  20457356.540    20457359.348   -20695344.319 9  26564474.570 8
  23305232.256    23305233.091    11049516.907 9  10670535.917 7
  21149790.428    21149791.751   -22089004.708 9  22381666.826 9
  20656222.831    20656228.969    -2883594.158 8     44720.756 7
 86  6 20  0  6 23.0800000  0  4G 6G 8G 9G11
  20457668.736    20457670.442   -20693706.867 9  26565750.503 7
  23309289.507    23309292.525    11070839.988 9  10687151.298 8
  21147095.798    21147097.159   -22103165.476 9  22370632.475 8
  20657141.341    20657145.219    -2878767.390 8     48481.867 8
 86  6 20  0  6 29.0800000  0  4G 6G 8G 9G11
                  20457985.403                    26567041.510 8
  23313348.258    23313350.251    11092168.782 9  10703771.130 8
  21144403.953    21144404.826   -22117315.200 9  22359606.717 8
  20658063.711    20658068.190    -2873920.206 9     52258.915 8
 86  6 20  0  6 35.0800000  0  4G 6G 8G 9G11
  20458303.354    20458305.269   -20728410.938 9  26568348.012 8
  23317408.749    23317409.423    11113503.767 9  10720395.788 8
  21141712.780    21141713.966   -22131453.354 9  22348589.988 8
  20658990.281    20658994.537    -2869052.098 8     56052.230 8
 86  6 20  0  6 41.0800000  0  4G 6G 8G 9G11
  20458625.667    20458627.342   -20726714.509 8  26569669.867 8
  23321469.130    23321471.955    11134844.813 9  10737025.167 8
  21139025.185    21139025.728   -22145580.011 9  22337582.207 8
  20659921.066    20659924.711    -2864163.187 9     59861.781 7
 86  6 20  0  6 47.0800000  0  4G 6G 8G 9G11
  20458951.917    20458954.994   -20724998.919 8  26571007.085 8
  23325531.430    23325533.892    11156191.829 9  10753659.223 7
  21136338.899    21136339.265   -22159695.303 9  22326583.277 6
  20660855.401    20660859.456    -2859253.596 8     63687.438 7
 86  6 20  0  6 53.0800000  0  4G 6G 8G 9G11
  20459282.260    20459284.162   -20723263.250 9  26572359.559 8
  23329594.972    23329595.875    11177544.662 9  10770297.781 8
  21133654.752    21133655.045   -22173799.203 9  22315593.230 8
  20661793.502    20661798.374    -2854323.459 8     67529.097 8
 86  6 20  0  6 59.0800000  0  4G 6G 8G 9G11
  20459617.495    20459618.940   -20721507.959 9  26573727.308 8
  23333659.170    23333661.460    11198903.369 9  10786940.924 8
  21130973.037    21130973.825   -22187891.785 9  22304612.010 8
  20662736.285    20662739.089    -2849372.787 9     71386.767 8
 86  6 20  0  7  5.0800000  0  4G 6G 8G 9G11
  20459954.905    20459957.151   -20719732.781 9  26575110.573 8
  23337725.270    23337725.900    11220268.098 9  10803588.770 8
  21128293.741    21128294.828   -22201972.722 9  22293639.848 8
  20663681.550    20663685.472    -2844401.316 7     75260.645 7
 86  6 20  0  7 11.0800000  0  4G 6G 8G 9G11
                  20460298.296                    26576509.167 7
  23341791.423    23341792.933    11241638.673 9  10820241.158 9
  21125616.334    21125616.913   -22216042.166 9  22282676.644 9
  20664632.427    20664635.503    -2839409.181 9     79150.624 8
 86  6 20  0  7 17.0800000  0  4G 6G 8G 9G11
  20460641.402    20460642.919   -20761480.885 9  26577923.072 8
  23345859.319    23345861.169    11263015.029 9  10836898.047 7
  21122941.166    21122941.760   -22230100.146 9  22271722.385 8
  20665585.201    20665588.230    -2834396.476 9     83056.633 7
 86  6 20  0  7 23.0800000  0  4G 6G 8G 9G11
  20460990.346    20460992.091   -20759646.803 9  26579352.228 7
  23349927.623    23349930.223    11284397.064 9  10853559.381 8
  21120268.459    21120268.738   -22244146.863 9  22260776.906 9
  20666543.548    20666546.847    -2829363.291 8     86978.580 8
 86  6 20  0  7 29.0800000  0  4G 6G 8G 9G11
  20461343.369    20461344.756   -20757792.585 9  26580796.684 7
  23353997.653    23354000.651    11305784.732 9  10870225.084 8
  21117596.768    21117598.049   -22258182.101 9  22249840.366 9
  20667506.005    20667507.589    -2824309.685 8     90916.480 8
 86  6 20  0  7 35.0800000  0  4G 6G 8G 9G11
                  20461701.857                    26582256.536 7
  23358069.028    23358070.418    11327178.138 9  10886895.276 8
  21114927.896    21114929.091   -22272205.772 9  22238912.826 6
  20668470.366    20668474.234    -2819235.537 9     94870.363 7
 86  6 20  0  7 41.0800000  0  4G 6G 8G 9G11
  20462060.894    20462062.073   -20792410.148 1  26583731.972 8
  23362140.579    23362142.967    11348577.547 9  10903570.135 7
  21112261.793    21112264.462   -22286217.595 9  22227994.534 8
  20669440.987    20669443.358    -2814140.636 8     98840.408 8
 86  6 20  0  7 47.0800000  0  4G 6G 8G 9G11
  20462425.406    20462425.043   -20790496.858 9  26585222.814 8
  23366213.694    23366216.208    11369982.733 9  10920249.493 8
                  21109599.002                    22217085.301 8
  20670413.503    20670417.489    -2809025.087 9    102826.544 7
 86  6 20  0  7 53.0800000  0  4G 6G 8G 9G11
  20462793.211    20462793.846   -20788564.260 8  26586729.112 8
  23370288.318    23370290.598    11391393.531 9  10936933.225 7
  21106934.955    21106936.493   -22336502.275 1  22206185.188 8
  20671391.068    20671392.609    -2803889.069 8    106828.621 8
 86  6 20  0  7 59.0800000  0  4G 6G 8G 9G11
  20463164.448    20463165.112   -20786611.409 8  26588250.803 8
  23374363.277    23374366.499    11412810.008 8  10953621.378 7
  21104275.124    21104277.299   -22350479.205 9  22195294.076 9
  20672372.525    20672375.697    -2798732.592 9    110846.663 8
 86  6 20  0  8  5.0800000  0  4G 6G 8G 9G11
  20463540.092    20463540.472   -20784638.949 9  26589787.788 7
  23378440.459    23378441.625    11434231.906 8  10970313.764 7
  21101619.058    21101620.126   -22364444.706 9  22184411.878 9
  20673357.760    20673360.678    -2793555.795 9    114880.533 8
 86  6 20  0  8 11.0800000  0  4G 6G 8G 9G11
  20463919.600    20463919.951   -20782646.722 9  26591340.161 8
  23382517.898    23382520.245    11455659.358 8  10987010.474 8
  21098962.528    21098965.470   -22378398.426 9  22173538.848 8
  20674346.978    20674349.826    -2788358.565 9    118930.320 8
 86  6 20  0  8 17.0800000  0  4G 6G 8G 9G11
  20464301.899    20464303.037   -20780634.754 9  26592907.907 9
  23386595.936    23386598.311    11477092.389 8  11003711.533 8
  21096309.698    21096312.366   -22392340.577 9  22162674.838 8
  20675340.902    20675342.668    -2783140.892 8    122996.029 8
 86  6 20  0  8 23.0800000  0  4G 6G 8G 9G11
  20464688.906    20464689.414   -20778602.929 8  26594491.146 8
  23390676.324    23390678.012    11498530.967 8  11020416.906 8
  21093658.976    21093660.522   -22406270.990 9  22151819.981 8
  20676337.301    20676338.622    -2777902.797 9    127077.677 8
 86  6 20  0  8 29.0800000  0  4G 6G 8G 9G11
  20465078.444    20465080.799   -20776551.300 9  26596089.818 9
  23394757.352    23394760.020    11519975.067 8  11037126.593 8
  21091009.794    21091012.714   -22420189.501 9  22140974.382 8
  20677338.565    20677339.445    -2772644.295 9    131175.209 9
 86  6 20  0  8 35.0800000  0  4G 6G 8G 9G11
  20465472.819    20465474.473   -20774479.551 8  26597704.169 8
  23398838.173    23398841.391    11541424.954 8  11053840.774 7
  21088363.766    21088365.548   -22434096.035 9  22130138.126 8
  20678342.358    20678345.368    -2767365.079 9    135288.889 8
 86  6 20  0  8 41.0800000  0  4G 6G 8G 9G11
  20465871.431    20465872.440   -20772388.174 9  26599333.802 9
  23402921.979    23402922.616    11562880.109 8  11070559.077 8
  21085719.171    21085721.110   -22447991.052 9  22119310.845 8
  20679351.135    20679352.727    -2762065.698 9    139418.281 7
 86  6 20  0  8 47.0800000  0  4G 6G 8G 9G11
  20466271.773    20466274.614   -20770276.971 9  26600978.918 8
  23407005.340    23407008.364    11584340.667 8  11087281.584 7
  21083077.937    21083080.226   -22461874.187 9  22108492.822 8
  20680363.320    20680365.385    -2756745.992 8    143563.514 7
 86  6 20  0  8 53.0800000  0  4G 6G 8G 9G11
  20466677.969    20466679.907   -20768145.914 8  26602639.461 8
  23411089.534    23411091.971    11605806.648 8  11104008.305 8
  21080438.120    21080439.329   -22475745.507 9  22097684.009 9
  20681379.398    20681382.423    -2751405.972 9    147724.562 7
 86  6 20  0  8 59.0800000  0  4G 6G 8G 9G11
  20467086.724    20467089.150   -20765994.955 9  26604315.536 9
  23415174.742    23415176.444    11627278.087 8  11120739.292 8
  21077799.977    21077801.995   -22489604.905 9  22086884.482 9
  20682399.851    20682401.818    -2746045.577 9    151901.508 7
 86  6 20  0  9  5.0800000  0  4G 6G 8G 9G11
  20467499.816    20467502.113   -20763823.848 8  26606007.307 8
  23419262.154    23419264.648    11648755.148 8  11137474.671 8
  21075165.847    21075166.743   -22503452.133 9  22076094.443 9
  20683423.599    20683426.276    -2740664.597 9    156094.479 7
 86  6 20  0  9 11.0800000  0  4G 6G 8G 9G11
  20467917.959    20467919.140   -20761632.786 9  26607714.631 8
  23423350.352    23423350.970    11670237.678 8  11154214.284 7
  21072532.191    21072534.773   -22517287.439 9  22065313.685 8
  20684452.071    20684453.212    -2735263.254 9    160303.325 7
 86  6 20  0  9 17.0800000  0  4G 6G 8G 9G11
  20468338.850    20468341.031   -20759421.790 9  26609437.480 8
  23427439.422    23427441.121    11691725.503 9  11170958.044 7
  21069901.295    21069904.072   -22531110.775 9  22054542.270 8
  20685483.850    20685483.928    -2729841.556 9    164528.012 8
 86  6 20  0  9 23.0800000  0  4G 6G 8G 9G11
  20468762.703    20468766.014   -20757190.882 9  26611175.851 8
  23431529.460    23431530.823    11713218.696 9  11187705.976 8
  21067274.199    21067275.150   -22544922.082 9  22043780.211 9
  20686519.216    20686520.982    -2724399.567 9    168768.544 7
 86  6 20  0  9 29.0800000  0  4G 6G 8G 9G11
  20469191.548    20469194.031   -20754940.030 9  26612929.761 8
  23435619.871    23435622.774    11734717.170 9  11204458.048 7
  21064648.026    21064650.222   -22558721.488 9  22033027.429 8
  20687559.276    20687559.894    -2718937.290 9    173024.856 7
 86  6 20  0  9 35.0800000  0  4G 6G 8G 9G11
  20469624.731    20469625.196   -20752669.201 8  26614699.230 9
  23439712.022    23439713.940    11756220.882 8  11221214.183 6
  21062023.913    21062026.825   -22572508.842 9  22022284.048 8
  20688601.672    20688604.576    -2713454.715 9    177296.990 7
 86  6 20  0  9 41.0800000  0  4G 6G 8G 9G11
  20470059.444    20470062.198   -20750378.440 9  26616484.237 8
  23443805.120    23443807.266    11777729.881 8  11237974.434 6
  21059403.913    21059404.948   -22586284.125 9  22011550.056 8
                  20689650.198                      181585.428 7
 86  6 20  0  9 47.0800000  0  4G 6G 8G 9G11
  20470498.878    20470502.778   -20748067.725 9  26618284.794 8
  23447899.194    23447902.363    11799244.134 9  11254738.778 7
  21056784.466    21056786.036   -22600047.402 9  22000825.437 8
  20690699.005    20690702.737    -2752240.801 7    185888.604 7
 86  6 20  0  9 53.0800000  0  4G 6G 8G 9G11
  20470943.064    20470944.674   -20745736.987 9  26620100.961 8
  23451994.571    23451995.566    11820763.569 8  11271507.170 7
  21054166.710    21054169.497   -22613798.557 9  21990110.255 9
  20691755.377    20691755.954    -2746697.493 9    190208.091 8
 86  6 20  0  9 59.0800000  0  4G 6G 8G 9G11
  20471390.370    20471393.067   -20743386.286 9  26621932.677 9
  23456090.691    23456092.644    11842288.248 8  11288279.634 7
  21051553.171    21051555.507   -22627537.584 9  21979404.528 8
  20692813.292    20692814.386    -2741133.990 9    194543.271 7
 86  6 20  0 10  5.0800000  0  4G 6G 8G 9G11
  20471842.025    20471843.834   -20741015.634 9  26623779.933 9
  23460188.673    23460190.538    11863817.990 7  11305056.050 7
  21048940.220    21048942.838   -22641264.539 9  21968708.200 9
  20693875.653    20693878.449    -2735550.367 9    198894.156 7
 86  6 20  0 10 11.0800000  0  4G 6G 8G 9G11
  20472297.500    20472298.638   -20738624.955 9  26625642.814 8
                  23464288.042                    11321836.503 6
  21046331.242    21046332.388   -22654979.276 9  21958021.405 8
  20694942.942    20694943.726    -2729946.563 9    203260.755 8
 86  6 20  0 10 17.0800000  0  4G 6G 8G 9G11
  20472756.582    20472758.421   -20736214.262 9  26627521.269 8
  23468283.552    23468386.314    11848778.992 8  11338620.953 6
  21043724.279    21043725.530   -22668681.913 9  21947344.031 8
  20696011.789    20696013.141    -2724322.571 9    207643.089 7
 86  6 20  0 10 23.0800000  0  4G 6G 8G 9G11
  20473218.839    20473220.636   -20733783.578 9  26629415.305 9
  23472485.862    23472485.304    11870324.012 8  11355409.323 7
  21041118.321    21041120.819   -22682372.350 9  21936676.160 9
  20697085.440    20697087.482    -2718678.497 9    212041.062 7
 86  6 20  0 10 29.0800000  0  4G 6G 8G 9G11
  20473684.848    20473686.802   -20731332.887 9  26631324.941 8
  23476585.862    23476586.892    11891874.157 8  11372201.627 7
  21038516.223    21038517.676   -22696050.544 9  21926017.832 8
  20698163.737    20698165.135    -2713014.272 9    216454.758 7
 86  6 20  0 10 35.0800000  0  4G 6G 8G 9G11
  20474155.247    20474157.143   -20728862.093 9  26633250.240 9
  23480687.348    23480690.074    11913429.273 9  11388997.823 6
  21035914.169    21035917.026   -22709716.542 9  21915369.010 9
  20699245.488    20699247.319    -2707329.911 9    220884.121 8
 86  6 20  0 10 41.0800000  0  4G 6G 8G 9G11
  20474628.480    20474631.464   -20726371.265 9  26635191.140 8
  23484790.738    23484791.118    11934989.485 8  11405797.986 7
  21033316.663    21033319.289   -22723370.230 9  21904729.770 9
  20700330.578    20700332.755    -2701625.483 9    225329.129 8
 86  6 20  0 10 47.0800000  0  4G 6G 8G 9G11
  20475105.478    20475108.791   -20723860.362 9  26637147.689 9
  23488894.499    23488895.185    11956554.665 8  11422602.025 7
  21030720.951    21030722.699   -22737011.673 9  21894100.084 8
  20701420.012    20701423.604    -2695900.918 9    229789.826 8
 86  6 20  0 10 53.0800000  0  4G 6G 8G 9G11
  20475586.467    20475590.924   -20721329.394 8  26639119.870 8
  23492999.263    23492999.772    11978124.827 9  11439409.922 7
  21028127.889    21028128.557   -22750640.790 9  21883479.996 9
  20702513.989    20702516.528    -2690156.274 9    234266.161 8
 86  6 20  0 10 59.0800000  0  4G 6G 8G 9G11
  20476071.834    20476075.548   -20718778.384 9  26641107.667 8
  23497104.199    23497106.422    11999699.899 8  11456221.679 7
  21025536.533    21025538.279   -22764257.678 9  21872869.445 8
  20703610.229    20703612.298    -2684391.623 9    238758.091 8
 86  6 20  0 11  5.0800000  0  4G 6G 8G 9G11
  20476560.107    20476565.351   -20716207.239 9  26643111.165 9
  23501211.443    23501211.803    12021279.879 8  11473037.241 8
  21022947.590    21022949.277   -22777862.138 9  21862268.560 9
  20704711.626    20704713.401    -2678606.947 9    243265.635 8
 86  6 20  0 11 11.0800000  0  4G 6G 8G 9G11
  20477054.189    20477057.988   -20713616.054 9  26645130.262 7
  23505319.441    23505320.836    12042864.777 9  11489856.641 7
  21020361.525    21020362.440   -22791454.266 9  21851677.309 9
  20705816.035    20705818.174    -2672802.272 9    247788.766 7
 86  6 20  0 11 17.0800000  0  4G 6G 8G 9G11
  20477550.932    20477554.432   -20711004.737 9  26647165.068 9
  23509427.904    23509428.376    12064454.547 8  11506679.827 8
  21017777.603    21017778.983   -22805033.974 9  21841095.710 8
  20706924.879    20706926.492    -2666977.537 9    252327.510 8
 86  6 20  0 11 23.0800000  0  4G 6G 8G 9G11
  20478051.697    20478055.367   -20708373.260 8  26649215.572 9
  23513536.560    23513538.655    12086049.194 8  11523506.816 9
  21015194.661    21015196.726   -22818601.228 9  21830523.820 9
  20708037.694    20708038.701    -2661132.767 9    256881.876 7
 86  6 20  0 11 29.0800000  0  4G 6G 8G 9G11
  20478556.182    20478560.452   -20705721.662 8  26651281.743 9
  23517647.119    23517647.855    12107648.590 9  11540337.512 7
  21012615.762    21012618.884   -22832156.082 9  21819961.622 8
  20709152.648    20709156.779    -2655268.043 9    261451.791 8
 86  6 20  0 11 35.0800000  0  4G 6G 8G 9G11
  20479064.802    20479068.143   -20703049.942 9  26653363.604 8
  23521757.834    23521759.808    12129252.817 8  11557171.982 8
  21010039.484    21010040.407   -22845698.436 9  21809409.145 9
  20710273.308    20710274.965    -2649383.399 8    266037.224 8
 86  6 20  0 11 41.0800000  0  4G 6G 8G 9G11
  20479576.397    20479580.584   -20700358.090 7  26655461.139 8
  23525870.604    23525871.193    12150861.873 9  11574010.200 7
  21007464.459    21007465.575   -22859228.261 9  21798866.420 9
  20711396.702    20711399.435    -2643478.820 8    270638.199 7
 86  6 20  0 11 47.0800000  0  4G 6G 8G 9G11
  20480092.272    20480096.401   -20697646.081 8  26657574.400 9
  23529983.395    23529985.813    12172475.690 9  11590852.117 7
  21004892.163    21004893.756   -22872745.617 9  21788333.425 8
  20712524.001    20712528.014    -2637554.265 9    275254.732 7
 86  6 20  0 11 53.0800000  0  4G 6G 8G 9G11
  20480612.369    20480616.053   -20694913.921 8  26659703.352 9
  23534096.356    23534099.549    12194094.226 9  11607697.729 7
  21002322.569    21002323.942   -22886250.398 9  21777810.229 9
  20713654.422    20713657.889    -2631609.754 9    279886.823 8
 86  6 20  0 11 59.0800000  0  4G 6G 8G 9G11
  20481134.998    20481140.142   -20692161.558 8  26661848.058 8
  23538211.794    23538214.450    12215717.472 8  11624547.008 7
  20999754.803    20999756.613   -22899742.576 9  21767296.847 8
  20714789.857    20714793.005    -2625645.386 9    284534.377 8
 86  6 20  0 12  5.0800000  0  4G 6G 8G 9G11
  20481663.779    20481667.835   -20689389.037 9  26664008.453 9
  23542327.204    23542329.243    12237345.401 8  11641399.938 8
  20997189.858    20997191.074   -22913222.249 9  21756793.212 9
  20715928.285    20715932.942    -2619661.154 8    289197.411 8
 86  6 20  0 12 11.0800000  0  4G 6G 8G 9G11
  20482195.465    20482197.990   -20686596.373 9  26666184.569 8
  23546445.461    23546445.906    12258977.989 8  11658256.489 7
  20994627.372    20994629.779   -22926689.346 9  21746299.366 8
  20717070.352    20717074.958    -2613657.077 9    293875.907 8
 86  6 20  0 12 17.0800000  0  4G 6G 8G 9G11
  20482730.873    20482734.128   -20683783.506 9  26668376.417 8
  23550560.821    23550564.083    12280615.189 9  11675116.652 7
  20992067.388    20992068.226   -22940143.799 9  21735815.385 9
  20718217.616    20718220.445    -2607633.206 9    298569.840 7
 86  6 20  0 12 23.0800000  0  4G 6G 8G 9G11
  20483270.973    20483272.868   -20680950.441 8  26670583.993 9
  23554679.457    23554681.439    12302256.992 9  11691980.378 8
  20989508.637    20989510.293   -22953585.723 9  21725341.158 9
  20719367.378    20719369.470    -2601589.538 9    303279.194 8
 86  6 20  0 12 29.0800000  0  4G 6G 8G 9G11
  20483814.164    20483815.358   -20678097.188 8  26672807.313 8
  23558798.137    23558801.400    12323903.319 8  11708847.655 8
  20986952.536    20986954.302   -22967014.897 9  21714876.876 8
                  20720521.456                      308003.969 8
 86  6 20  0 12 35.0800000  0  4G 6G 8G 9G11
  20484362.291    20484362.112   -20675223.740 9  26675046.363 8
  23562919.005    23562921.644    12345554.267 7  11725718.501 7
  20984399.424    20984402.154   -22980431.355 9  21704422.491 8
  20721676.889    20721680.547    -2632073.770 1    312744.195 8
 86  6 20  0 12 41.0800000  0  4G 6G 8G 9G11
  20484911.978    20484912.500   -20672330.030 9  26677301.205 7
  23567039.150    23567043.330    12367209.734 9  11742592.898 7
  20981848.310    20981850.797   -22993835.125 9  21693977.985 8
  20722839.316    20722842.903    -2625970.706 8    317499.854 8
 86  6 20  0 12 47.0800000  0  4G 6G 8G 9G11
  20485466.331    20485467.497   -20669416.094 9  26679571.801 8
  23571161.186    23571165.299    12388869.707 7  11759470.796 8
  20979300.390    20979302.484   -23007226.133 9  21683543.442 8
  20724003.473    20724008.234    -2619847.888 8    322270.870 7
 86  6 20  0 12 53.0800000  0  4G 6G 8G 9G11
  20486024.447    20486026.328   -20666481.957 8  26681858.135 9
  23575283.636    23575287.814    12410534.215 7  11776352.212 8
  20976755.021    20976756.914   -23020604.483 9  21673118.753 8
  20725171.678    20725177.066    -2613705.360 9    327057.254 8
 86  6 20  0 12 59.0800000  0  4G 6G 8G 9G11
  20486586.653    20486587.535   -20663527.516 8  26684160.295 8
  23579408.596    23579411.251    12432203.173 8  11793237.113 8
  20974211.952    20974213.386   -23033970.077 9  21662704.013 9
  20726345.131    20726350.674    -2607543.105 9    331859.021 9
 86  6 20  0 13  5.0800000  0  4G 6G 8G 9G11
  20487153.069    20487153.205   -20660552.858 9  26686478.202 8
  23583531.331    23583534.853    12453876.545 7  11810125.454 7
  20971670.360    20971672.631   -23047322.832 9  21652299.269 8
  20727521.373    20727526.449    -2601361.108 9    336676.155 8
 86  6 20  0 13 11.0800000  0  4G 6G 8G 9G11
  20487722.832    20487723.970   -20657557.925 9  26688811.922 8
                  23587659.686                    11827017.203 7
  20969131.699    20969134.074   -23060662.799 9  21641904.485 7
  20728701.981    20728706.488    -2595159.414 9    341508.648 8
 86  6 20  0 13 17.0800000  0  4G 6G 8G 9G11
  20488297.060    20488297.969   -20654542.766 9  26691161.389 8
  23591780.907    23591785.339    12438787.440 1  11843912.375 7
  20966595.205    20966596.967   -23073989.933 9  21631519.716 8
  20729886.048    20729890.047    -2588938.043 9    346356.471 8
 86  6 20  0 13 23.0800000  0  4G 6G 8G 9G11
  20488874.322    20488875.374   -20651507.343 9  26693526.650 8
  23595908.980    23595913.719    12460473.999 6  11860810.949 7
  20964061.569    20964064.051   -23087304.208 9  21621144.943 8
  20731073.268    20731077.775    -2582697.041 9    351219.594 8
 86  6 20  0 13 29.0800000  0  4G 6G 8G 9G11
  20489456.119    20489455.640   -20648451.578 9  26695907.768 7
  23600037.110    23600040.176    12482164.886 7  11877712.926 7
  20961530.931    20961532.433   -23100605.691 9  21610780.174 8
  20732265.438    20732267.947    -2576436.377 9    356098.026 8
 86  6 20  0 13 35.0800000  0  4G 6G 8G 9G11
  20490041.651    20490040.914   -20645375.506 9  26698304.696 7
  23604165.828    23604169.236    12503860.081 8  11894618.273 6
  20959001.759    20959003.361   -23113894.226 9  21600425.464 8
  20733460.541    20733464.609    -2570156.134 9    360991.722 7
 86  6 20  0 13 41.0800000  0  4G 6G 8G 9G11
  20490631.046    20490630.110   -20642279.153 9  26700717.434 8
  23608295.081    23608298.103    12525559.595 7  11911526.977 7
  20956475.449    20956477.482   -23127169.882 9  21590080.798 8
  20734659.641    20734663.114    -2563856.298 9    365900.683 9
 86  6 20  0 13 47.0800000  0  4G 6G 8G 9G11
  20491224.748    20491224.025   -20639162.447 9  26703146.027 8
  23612425.350    23612427.243    12547263.391 7  11928439.018 7
  20953952.306    20953954.107   -23140432.512 9  21579746.285 8
  20735862.003    20735866.144    -2557536.792 9    370824.971 7
 86  6 20  0 13 53.0800000  0  4G 6G 8G 9G11
  20491821.928    20491820.633   -20636025.424 9  26705590.461 9
  23616556.486    23616558.135    12568971.468 7  11945354.381 8
  20951430.161    20951432.014   -23153682.193 9  21569421.865 9
  20737068.303    20737071.280    -2551197.705 9    375764.534 8
 86  6 20  0 13 59.0800000  0  4G 6G 8G 9G11
  20492422.714    20492422.878   -20632868.069 9  26708050.732 8
  23620689.295    23620689.957    12590683.794 7  11962273.083 7
  20948911.718    20948914.143   -23166918.843 9  21559107.599 8
  20738278.965    20738281.429    -2544839.047 9    380719.325 8
 86  6 20  0 14  5.0800000  0  4G 6G 8G 9G11
  20493027.564    20493027.327   -20629690.308 9  26710526.901 7
  23624819.350    23624824.497    12612400.345 7  11979195.059 7
  20946395.075    20946397.818   -23180142.378 9  21548803.552 8
  20739492.624    20739494.463    -2538460.837 9    385689.358 8
 86  6 20  0 14 11.0800000  0  4G 6G 8G 9G11
  20493635.933    20493635.496   -20626492.237 9  26713018.892 8
  23628953.920    23628955.763    12634121.135 7  11996120.348 7
  20943880.975    20943883.420   -23193352.961 9  21538509.592 8
  20740709.777    20740712.647    -2532063.073 9    390674.634 8
 86  6 20  0 14 17.0800000  0  4G 6G 8G 9G11
  20494247.779    20494247.728   -20623273.750 9  26715526.808 8
  23633088.768    23633090.395    12655846.049 7  12013048.842 7
  20941369.521    20941371.682   -23206550.450 9  21528225.839 9
  20741930.866    20741933.184    -2525645.806 9    395675.088 8
 86  6 20  0 14 23.0800000  0  4G 6G 8G 9G11
  20494864.391    20494864.799   -20620034.923 9  26718050.568 8
  23637222.838    23637224.779    12677575.090 8  12029980.573 7
  20938860.239    20938863.567   -23219734.803 9  21517952.315 8
  20743156.316    20743158.416    -2519209.050 9    400690.741 9
 86  6 20  0 14 29.0800000  0  4G 6G 8G 9G11
  20495484.379    20495484.899   -20616775.767 9  26720590.159 7
  23641359.137    23641362.661    12699308.256 7  12046915.486 7
  20936354.292    20936357.706   -23232906.082 9  21507688.985 8
  20744385.397    20744387.354    -2512752.795 9    405721.586 8
 86  6 20  0 14 35.0800000  0  4G 6G 8G 9G11
  20496108.232    20496108.810   -20613496.194 9  26723145.674 8
  23645495.460    23645498.669    12721045.480 7  12063853.568 7
  20933850.312    20933852.422   -23246064.322 9  21497435.822 8
  20745617.273    20745619.841    -2506277.125 9    410767.575 8
 86  6 20  0 14 41.0800000  0  4G 6G 8G 9G11
  20496737.090    20496737.327   -20610196.262 9  26725717.039 7
  23649631.611    23649633.989    12742786.806 6  12080794.868 6
  20931349.466    20931352.610   -23259209.328 9  21487192.959 8
  20746854.118    20746855.936    -2499782.004 9    415828.704 8
 86  6 20  0 14 47.0800000  0  4G 6G 8G 9G11
  20497368.499    20497368.706   -20606875.875 9  26728304.348 8
  23653771.884    23653773.510    12764532.172 7  12097739.313 5
  20928850.455    20928852.823   -23272341.108 9  21476960.394 7
  20748093.031    20748096.669    -2493267.401 8    420905.011 8
 86  6 20  0 14 53.0800000  0  4G 6G 8G 9G11
  20498005.128    20498005.523   -20603535.100 9  26730907.549 8
  23657908.184    23657912.107    12786281.579 7  12114686.878 7
  20926354.620    20926356.001   -23285459.803 9  21466738.045 9
  20749336.277    20749339.300    -2486733.375 9    425996.479 9
 86  6 20  0 14 59.0800000  0  4G 6G 8G 9G11
  20498642.947    20498645.658   -20600173.949 9  26733526.622 7
  23662050.109    23662050.412    12808034.975 7  12131637.580 6
  20923859.548    20923862.961   -23298565.336 9  21456525.952 8
  20750583.058    20750585.157    -2480179.960 9    431103.020 8
 86  6 20  0 15  5.0800000  0  4G 6G 8G 9G11
  20499286.645    20499288.655   -20596792.375 9  26736161.607 8
                  23666190.962                    12148580.355 6
  20921369.558    20921370.060   -23311657.530 9  21446324.231 8
  20751833.517    20751836.193    -2473607.169 9    436224.663 8
 86  6 20  0 15 11.0800000  0  4G 6G 8G 9G11
  20499933.649    20499935.174   -20593390.333 9  26738812.556 8
                  23670331.329                    12165526.979 4
  20918880.192    20918882.643   -23324736.433 9  21436132.888 8
  20753087.616    20753091.416    -2467014.959 9    441361.466 9
 86  6 20  0 15 17.0800000  0  4G 6G 8G 9G11
  20500584.804    20500586.498   -20589967.838 9  26741479.429 8
                  23674475.211                    12182475.239 5
  20916394.113    20916394.756   -23337802.039 9  21425951.904 9
  20754345.928    20754349.477    -2460403.372 8    446513.332 7
 86  6 20  0 15 23.0800000  0  4G 6G 8G 9G11
  20501239.721    20501241.344   -20586524.856 9  26744162.278 8
                  23678615.842                    12199415.273 5
  20913910.434    20913911.794   -23350854.284 9  21415781.337 9
  20755608.331    20755611.858    -2453772.454 9    451680.288 8
 86  6 20  0 15 29.0800000  0  4G 6G 8G 9G11
                  20501900.984                    26746861.053 7
                  23682759.396                    12216373.122 5
  20911429.825    20911431.459   -23363893.220 9  21405621.134 8
  20756874.107    20756877.004    -2447122.176 9    456862.314 8
 86  6 20  0 15 35.0800000  0  4G 6G 8G 9G11
  20502562.041    20502563.642   -20619570.540 2  26749575.750 8
                  23686904.148                    12233351.980 6
  20908951.626    20908952.149   -23376918.841 9  21395471.289 8
  20758143.036    20758145.883    -2440452.579 9    462059.409 8
 86  6 20  0 15 41.0800000  0  4G 6G 8G 9G11
  20503227.918    20503231.080   -20616066.198 9  26752306.412 8
                  23691050.129                    12250321.250 4
  20906474.666    20906475.904   -23389931.063 9  21385331.903 7
                  20759417.916                      467271.535 7
 86  6 20  0 15 47.0800000  0  4G 6G 8G 9G11
  20503898.232    20503901.122   -20612541.401 8  26755053.004 8
                  23695192.625                    12267295.163 5
  20904001.239    20904002.214   -23402929.834 9  21375202.997 8
  20760692.310    20760693.974    -2475439.036 9    472498.674 9
 86  6 20  0 15 53.0800000  0  3G 6G 9G11
  20504572.696    20504574.714   -20608996.041 9  26757815.615 8
  20901530.586    20901531.488   -23415915.175 9  21365084.552 8
  20761973.681    20761974.687    -2468711.613 9    477740.824 9
 86  6 20  0 15 59.0800000  0  4G 6G 8G 9G11
  20505251.823    20505252.483   -20605430.236 9  26760594.167 8
                  23704968.915   -29357683.532 7
  20899062.664    20899062.840   -23428887.054 9  21354976.610 8
  20763256.619    20763259.885    -2461965.403 9    482998.001 8
 86  6 20  0 16  5.0800000  0  4G 6G 8G 9G11
  20505934.916    20505935.488   -20601843.881 8  26763388.704 8
                  23708983.831   -29382045.555 7
  20896596.121    20896597.201   -23441845.590 9  21344879.040 8
  20764543.390    20764546.553    -2455199.476 9    488270.151 8
 86  6 20  0 16 11.0800000  0  4G 6G 8G 9G11
  20506621.399    20506623.789   -20598237.018 9  26766199.251 7
                  23713219.796   -29405547.764 7
  20894132.683    20894132.654   -23454790.469 9  21334792.141 9
  20765834.748    20765837.986    -2448414.373 9    493557.244 7
 86  6 20  0 16 17.0800000  0  4G 6G 8G 9G11
  20507311.131    20507313.406   -20594609.638 9  26769025.772 8
                  23716311.774   -29475421.955 7
  20891672.252    20891673.204   -23467721.889 9  21324715.707 7
  20767129.722    20767133.099    -2441610.096 9    498859.273 8
 86  6 20  0 16 23.0800000  0  4G 6G 8G 9G11
  20508006.114    20508007.974   -20590961.757 9  26771868.284 8
                  23720516.010   -29496943.730 7
  20889213.644    20889214.265   -23480639.735 9  21314649.858 8
  20768428.409    20768430.378    -2434786.624 9    504176.268 9
 86  6 20  0 16 29.0800000  0  4G 6G 8G 9G11
  20508704.044    20508705.489   -20587293.324 9  26774726.796 8
                  23725015.722   -29519365.195 7
  20886758.107    20886759.220   -23493544.047 9  21304594.548 8
  20769730.408    20769733.093    -2427943.996 9    509508.177 8
 86  6 20  0 16 35.0800000  0  4G 6G 8G 9G11
  20509405.581    20509406.125   -20583604.366 9  26777601.303 8
                  23730613.120   -29542645.798 7
  20884304.288    20884306.761   -23506434.797 9  21294549.824 8
  20771036.736    20771039.415    -2421082.275 9    514854.983 8
 86  6 20  0 16 41.0800000  0  4G 6G 8G 9G11
  20510111.495    20510113.484   -20579894.810 9  26780491.865 9
                  23733571.778   -29615503.180 7
  20881855.248    20881855.614   -23519311.875 8  21284515.731 7
  20772346.117    20772348.237    -2414201.364 9    520216.731 7
 86  6 20  0 16 47.0800000  0  4G 6G 8G 9G11
  20510820.974    20510822.964   -20576164.739 8  26783398.410 8
                  23739194.203   -29641809.302 7
  20879407.775    20879406.967   -23532175.393 9  21274492.226 8
  20773659.275    20773661.399    -2407301.345 9    525593.374 8
 86  6 20  0 16 53.0800000  0  4G 6G 8G 9G11
  20511535.103    20511538.311   -20572414.120 9  26786320.967 7
                  23747558.899   -29619637.623 7
  20876961.348    20876961.694   -23545025.355 9  21264479.265 7
  20774976.489    20774977.291    -2400382.247 9    530984.881 8
 86  6 20  0 16 59.0800000  0  4G 6G 8G 9G11
  20512252.325    20512254.725   -20568642.905 8  26789259.559 8
                  23759821.190   -29597465.005 7
  20874520.045    20874519.259   -23557861.520 9  21254477.061 9
  20776296.440    20776299.402    -2393444.069 9    536391.253 9
 86  6 20  0 17  5.0800000  0  4G 6G 8G 9G11
  20512974.514    20512976.057   -20564851.070 8  26792214.239 7
                  23771497.376   -29575291.447 7
  20872080.152    20872079.980   -23570684.004 9  21244485.510 8
  20777619.540    20777622.430    -2386486.838 9    541812.481 7
 86  6 20  0 17 11.0800000  0  4G 6G 8G 9G11
  20513699.634    20513702.822   -20561038.704 8  26795184.914 8
                  23783466.615   -29553116.950 7
  20869641.661    20869642.474   -23583492.675 9  21234504.737 8
  20778947.733    20778949.780    -2379510.621 9    547248.480 8
 86  6 20  0 17 17.0800000  0  4G 6G 8G 9G11
  20514429.275    20514431.704   -20557205.776 9  26798171.615 8
                  23795728.905   -29530941.513 7
  20867206.416    20867207.628   -23596287.740 9  21224534.561 7
  20780279.431    20780280.419    -2372515.422 9    552699.300 8
 86  6 20  0 17 23.0800000  0  4G 6G 8G 9G11
  20515162.703    20515164.742   -20553352.143 9  26801174.434 8
                  23808169.181   -29508765.136 7
  20864774.672    20864775.681   -23609068.892 9  21214575.228 8
  20781612.805    20781615.924    -2365501.129 9    558164.962 8
 86  6 20  0 17 29.0800000  0  4G 6G 8G 9G11
  20515899.574    20515901.305   -20549477.939 9  26804193.299 7
                  23820289.239   -29486587.820 7
  20862345.183    20862346.033   -23621836.334 9  21204626.572 9
  20782951.373    20782953.662    -2358467.884 9    563645.418 9
 86  6 20  0 17 35.0800000  0  4G 6G 8G 9G11
  20516640.854    20516643.472   -20545583.160 8  26807228.180 7
                  23832526.517   -29464409.565 7
  20859917.499    20859919.202   -23634589.962 9  21194688.675 8
  20784293.146    20784295.806    -2351415.673 9    569140.660 8
 86  6 20  0 17 41.0800000  0  4G 6G 8G 9G11
  20517385.612    20517388.012   -20541667.743 9  26810279.153 8
                  23844148.386   -29442230.369 7
  20857493.293    20857494.863   -23647329.797 9  21184761.535 8
  20785638.668    20785642.674    -2344344.478 9    574650.676 9
 86  6 20  0 17 47.0800000  0  4G 6G 8G 9G11
  20518135.363    20518137.635   -20537731.694 9  26813346.195 8
                  23856385.664   -29420050.234 7
  20855071.291    20855072.514   -23660055.754 9  21174845.200 8
  20786988.095    20786990.828    -2337254.408 9    580175.408 8
 86  6 20  0 17 53.0800000  0  4G 6G 8G 9G11
  20518887.674    20518890.652   -20533774.992 9  26816429.329 8
                  23868417.806   -29397869.160 7
  20852652.972    20852653.361   -23672767.815 9  21164939.698 8
  20788341.072    20788343.564    -2330145.389 9    585714.899 9
 86  6 20  0 17 59.0800000  0  4G 6G 8G 9G11
  20519645.683    20519646.947   -20529797.693 9  26819528.517 8
                  23880303.422   -29375687.145 7
  20850235.535    20850237.480   -23685466.012 9  21155044.998 8
  20789697.039    20789700.788    -2323017.505 9    591269.099 9
 86  6 20  0 18  5.0800000  0  4G 6G 8G 9G11
  20520404.832    20520408.015   -20525799.747 9  26822643.813 7
                  23892628.616   -29353504.192 7
  20847821.939    20847824.060   -23698150.170 9  21145161.234 7
  20791057.515    20791060.048    -2315870.709 9    596838.027 8
 86  6 20  0 18 11.0800000  0  4G 6G 8G 9G11
  20521171.294    20521171.894   -20521781.155 9  26825775.177 7
                  23904045.348   -29331320.299 7
  20845410.542    20845412.485   -23710820.500 9  21135288.243 7
  20792420.609    20792423.741    -2308705.062 9    602421.644 7
 86  6 20  0 18 17.0800000  0  4G 6G 8G 9G11
  20521938.427    20521940.956   -20517741.876 9  26828922.665 7
                  23916429.152   -29309135.466 7
  20843002.363    20843004.290   -23723476.920 9  21125426.103 8
  20793787.837    20793790.956    -2301520.580 9    608019.937 8
 86  6 20  0 18 23.0800000  0  4G 6G 8G 9G11
  20522711.172    20522713.844   -20513681.994 8  26832086.202 8
                  23928578.515   -29286949.693 7
  20840596.694    20840598.444   -23736119.311 9  21115574.881 7
  20795158.257    20795161.748    -2294317.337 9    613632.860 8
 86  6 20  0 18 29.0800000  0  4G 6G 8G 9G11
  20523487.794    20523489.498   -20509601.370 8  26835265.910 7
                  23940815.793   -29264762.981 7
  20838192.782    20838195.468   -23748747.667 9  21105734.614 8
  20796532.912    20796536.375    -2287095.210 9    619260.494 8
 86  6 20  0 18 35.0800000  0  4G 6G 8G 9G11
  20524268.013    20524270.535   -20505500.111 9  26838461.696 8
                  23952701.409   -29242575.329 7
  20835792.186    20835794.983   -23761361.979 9  21095905.285 6
  20797911.030    20797912.776    -2279854.312 9    624902.738 8
 86  6 20  0 18 41.0800000  0  4G 6G 8G 9G11
  20525053.314    20525053.948   -20501378.113 9  26841673.635 8
                  23964821.467   -29220386.738 7
  20833394.437    20833397.333   -23773962.270 9  21086086.874 8
  20799292.168    20799295.330    -2272594.580 9    630559.683 8
 86  6 20  0 18 47.0800000  0  4G 6G 8G 9G11
  20525841.658    20525842.956   -20497235.469 8  26844901.655 8
                  23976589.861   -29198197.207 7
  20830999.637    20831001.438   -23786548.471 9  21076279.430 8
  20800677.383    20800680.889    -2265316.092 9    636231.225 8
 86  6 20  0 18 53.0800000  0  4G 6G 8G 9G11
                  20526633.550   -20493072.076 9
                  23988885.750   -29176006.736 7
  20828606.771    20828610.065   -23799120.572 9  21066482.991 8
  20802066.448    20802068.567    -2258018.865 9    641917.391 8
 86  6 20  0 18 59.0800000  0  4G 6G 8G 9G11
  20527431.942    20527430.827   -20488887.955 9
  26894178.689 1  24001064.418   -29153815.326 7
  20826217.604    20826220.512   -23811678.538 9  21056697.572 8
  20803459.089    20803461.594    -2250702.822 9    647618.189 7
 86  6 20  0 19  5.0800000  0  4G 6G 8G 9G11
  20528230.649    20528230.843   -20484683.112 9
  26897455.196 7  24012832.813   -29131622.976 7
  20823831.306    20823832.029   -23824222.276 9  21046923.230 8
  20804854.379    20804856.711    -2243368.092 9    653333.568 8
 86  6 20  0 19 11.0800000  0  4G 6G 8G 9G11
  20529034.832    20529035.465   -20480457.484 9
  26900747.405 7  24024982.176   -29109429.687 7
  20821446.862    20821448.289   -23836751.859 9  21037159.924 7
  20806253.646    20806256.579    -2236014.588 9    659063.579 7
 86  6 20  0 19 17.0800000  0  4G 6G 8G 9G11
  20529842.722    20529843.763   -20476211.227 9
  26904056.170 7  24037483.201   -29087235.458 7
  20819065.479    20819068.022   -23849267.316 9  21027407.621 8
  20807657.277    20807658.050    -2228642.465 9    664808.076 8
 86  6 20  0 19 23.0800000  0  4G 6G 8G 9G11
  20530654.762    20530654.840   -20471944.258 8
  26907381.082 8  24049661.869   -29065040.289 7
  20816686.392    20816688.862   -23861768.571 9  21017666.377 8
  20809063.355    20809064.416    -2221251.663 9    670567.143 8
 86  6 20  0 19 29.0800000  0  4G 6G 8G 9G11
  20531470.489    20531471.473   -20467656.475 9
  26910722.190 8  24061547.485   -29042844.181 7
  20814308.836    20814312.391   -23874255.516 9  21007936.297 8
  20810472.912    20810474.215    -2213842.251 9    676340.713 9
 86  6 20  0 19 35.0800000  0  4G 6G 8G 9G11
  20532290.222    20532290.223   -20463347.955 9
  26914079.484 8  24073286.574   -29020647.133 7
  20811936.782    20811938.814   -23886728.250 9  20998217.272 8
  20811886.701    20811887.446    -2206414.221 9    682128.793 8
 86  6 20  0 19 41.0800000  0  4G 6G 8G 9G11
  20533114.696    20533114.739   -20459018.665 9
  26917452.947 8  24085435.937   -28998449.146 7
  20809565.863    20809568.161   -23899186.591 9  20988509.475 7
  20813302.796    20813305.516    -2198967.535 9    687931.399 7
 86  6 20  0 19 47.0800000  0  4G 6G 8G 9G11
  20533940.735    20533942.245   -20454668.632 8
  26920842.593 7  24096972.100   -28976250.219 7
  20807197.450    20807199.105   -23911630.767 9  20978812.718 7
  20814722.883    20814724.530    -2191502.253 9    693748.508 8
 86  6 20  0 19 53.0800000  0  4G 6G 8G 9G11
  20534773.018    20534774.416   -20450297.819 9
  26924248.419 7  24108686.178   -28954050.352 7
  20804832.469    20804834.043   -23924060.552 9  20969127.179 8
  20816148.265    20816149.381    -2184018.453 9    699580.036 8
 86  6 20  0 19 59.0800000  0  4G 6G 8G 9G11
  20535609.089    20535610.608   -20445906.230 8
  26927670.437 7  24120869.138   -28931849.546 7
  20802469.731    20802472.024   -23936476.035 9  20959452.777 8
  20817575.807    20817577.753    -2176516.029 9    705426.085 8
 86  6 20  0 20  5.0800000  0  4G 6G 8G 9G11
  20536448.849    20536451.052   -20441493.879 9
  26931108.627 7  24132436.689   -28909647.800 7
  20800110.187    20800111.996   -23948877.106 9  20949789.604 8
  20819006.683    20819010.073    -2168995.089 9    711286.552 8
 86  6 20  0 20 11.0800000  0  4G 6G 8G 9G11
  20537292.272    20537293.857   -20437060.729 9
  26934563.015 7  24144883.397   -28887445.115 7
                  20797753.700   -23961263.755 9
  20820441.465    20820444.056    -2161455.664 9    717161.423 8
 86  6 20  0 20 17.0800000  0  4G 6G 8G 9G11
  20538139.820    20538142.425   -20432606.802 9
  26938033.612 8  24156392.337   -28865241.489 7
  20795398.626    20795401.081   -23973635.958 9  20986483.996 1
  20821878.924    20821883.046    -2153897.739 9    723050.726 8
 86  6 20  0 20 23.0800000  0  4G 6G 8G 9G11
  20538989.893    20538993.226   -20428132.069 9
  26941520.404 7  24168604.603   -28843036.925 7
  20793047.700    20793049.885   -23985993.815 9  20976854.493 8
  20823320.704    20823324.324    -2146321.351 9    728954.407 8
 86  6 20  0 20 29.0800000  0  4G 6G 8G 9G11
  20539846.258    20539850.069   -20423636.484 9
  26945023.443 9  24180494.512   -28820831.420 7
  20790698.818    20790701.096   -23998337.280 9  20967236.217 8
  20824766.132    20824769.695    -2138726.549 9    734872.423 8
 86  6 20  0 20 35.0800000  0  4G 6G 8G 9G11
  20540704.874    20540708.896   -20419120.140 9
  26948542.672 8  24192823.999   -28798624.977 7
  20788353.158    20788354.193   -24010666.110 9  20957629.345 8
  20826215.596    20826218.386    -2131113.324 9    740804.812 8
 86  6 20  0 20 41.0800000  0  4G 6G 8G 9G11
  20541569.296    20541573.964   -20414582.897 9
  26952078.173 7  24364954.300   -31045867.652 7
  20786010.549    20786011.711   -24022980.493 9  20948033.713 7
  20827667.478    20827670.112    -2123481.602 9    746751.605 8
 86  6 20  0 20 47.0800000  0  4G 6G 8G 9G11
  20542437.037    20542439.624   -20410024.857 9
  26955629.895 8  24540575.309   -31023953.296 7
  20783669.000    20783670.595   -24035280.390 9  20938449.386 8
  20829124.096    20829125.728    -2115831.481 9    752712.740 8
 86  6 20  0 20 53.0800000  0  4G 6G 8G 9G11
  20543309.100    20543310.861   -20405445.920 9
  26959197.898 8  24411025.410   -31002583.933 7
  20781332.023    20781332.704   -24047565.641 9  20928876.463 9
  20830582.818    20830586.295    -2108162.853 9    758688.292 8
 86  6 20  0 20 59.0800000  0  4G 6G 8G 9G11
  20544185.033    20544186.906   -20400846.167 8
  26962782.121 9  24582902.275   -30981867.678 7
  20778996.394    20778997.314   -24059836.345 9  20919314.879 8
  20832045.561    20832049.153    -2100475.910 9    764678.126 9
 86  6 20  0 21  5.0800000  0  4G 6G 8G 9G11
  20545064.132    20545065.574   -20396225.536 9
  26966382.610 8  24457047.570   -30959554.626 7
  20776663.231    20776665.241   -24072092.258 9  20909764.818 7
  20833511.838    20833515.672    -2092770.571 9    770682.282 7
 86  6 20  0 21 11.0800000  0  4G 6G 8G 9G11
  20545947.471    20545948.394   -20391584.084 9
  26969999.321 8  24615019.908   -30936436.531 7
  20774334.120    20774336.473   -24084333.669 9  20900226.054 8
                  20834981.850    -2085046.888 9
 86  6 20  0 21 17.0800000  0  4G 6G 8G 9G11
  20546833.629    20546835.514   -20386921.773 9
  26973632.300 8  24489645.124   -30916227.273 7
  20772007.745    20772008.635   -24096560.447 9  20890698.693 8
  20836455.553    20836457.117    -2077304.906 9    822709.443 1
 86  6 20  0 21 23.0800000  0  4G 6G 8G 9G11
  20547725.560    20547727.412   -20382238.568 9
  26977281.536 7  24359470.416   -30896603.478 7
                  20769683.889   -24108772.547 9
  20837932.262    20837935.055    -2069544.625 9    828756.412 9
 86  6 20  0 21 29.0800000  0  4G 6G 8G 9G11
  20548621.290    20548623.850   -20377534.554 9
  26980946.989 8  24536429.906   -30872282.582 7
  20767362.595    20767362.796   -24120969.508 9  20927526.754 1
  20839412.490    20839415.742    -2061766.083 9    834817.625 9
 86  6 20  0 21 35.0800000  0  4G 6G 8G 9G11
  20549519.123    20549523.004   -20372809.627 9
  26984628.746 8  24408902.421   -30849530.428 7
  20765043.189    20765045.240   -24133152.690 9  20918033.266 7
  20840895.982    20840899.434    -2053969.283 9    840893.040 9
 86  6 20  0 21 41.0800000  0  4G 6G 8G 9G11
  20550420.932    20550426.476   -20368063.832 8
  26988326.756 8  24582961.724   -30831207.559 7
  20762728.641    20762730.552   -24145320.680 9  20908551.701 7
  20842383.336    20842387.089    -2046154.281 9    846982.647 9
 86  6 20  0 21 47.0800000  0  4G 6G 8G 9G11
  20551327.670    20551332.637   -20363297.172 9
  26992041.034 8  24447928.879   -30809392.157 7
  20760416.022    20760417.915   -24157473.965 9  20899081.623 7
  20843874.296    20843877.275    -2038321.052 9    853086.474 9
 86  6 20  0 21 53.0800000  0  4G 6G 8G 9G11
  20552239.093    20552244.338   -20358509.595 9
  26995771.602 8  24607825.803   -30783867.521 7
  20758105.849    20758108.089   -24169612.464 9  20889623.045 9
  20845368.834    20845370.942    -2030469.511 9    859204.556 9
 86  6 20  0 21 59.0800000  0  4G 6G 8G 9G11
  20553155.002    20553158.394   -20353701.122 9
  26999518.471 8  24476443.028   -30762891.464 7
  20755798.577    20755800.506   -24181736.154 9  20880176.018 8
  20846865.403    20846869.099    -2022599.732 9    865336.854 9
 86  6 20  0 22  5.0800000  0  3G 6G 9G11
  20554074.060    20554077.108   -20348871.737 9  27003281.624 7
  20753493.784    20753495.491   -24193844.944 9  20870740.601 7
  20848366.867    20848370.090    -2014711.759 9    871483.327 9
 86  6 20  0 22 11.0800000  0  3G 6G 9G11
  20554996.675    20554999.170   -20344021.522 9  27007061.002 7
  20751192.756    20751193.032   -24205938.974 9  20861316.693 8
  20849870.992    20849874.902    -2006805.670 9    877643.908 8
 86  6 20  0 22 17.0800000  0  3G 6G 9G11
  20555924.153    20555926.406   -20339150.293 9  27010856.769 8
  20748894.427    20748895.314   -24218018.066 9  20851904.412 8
  20851378.265    20851382.033    -1998881.356 9    883818.701 8
 86  6 20  0 22 23.0800000  0  3G 6G 9G11
  20556854.107    20556857.348   -20334258.172 9  27014668.801 7
  20746598.671    20746599.157   -24230082.225 9  20842503.770 7
  20852890.346    20852892.653    -1990938.936 9    890007.592 8
 86  6 20  0 22 29.0800000  0  3G 6G 9G11
  20557788.072    20557790.793   -20329345.154 8  27018497.123 8
  20744304.805    20744306.127   -24242131.590 9  20833114.659 8
  20854404.773    20854408.382    -1982978.416 9    896210.594 9
 86  6 20  0 22 35.0800000  0  4G 6G 8G 9G11
  20558727.480    20558729.319   -20324411.162 9  27022341.801 8
                  24616840.776   -31744499.580 7
  20742015.805    20742017.976   -24254165.991 9  20823737.205 7
  20855922.264    20855927.604    -1974999.739 9    902427.740 8
 86  6 20  0 22 41.0800000  0  3G 6G 9G11
  20559670.563    20559671.791   -20319456.212 9  27026202.801 8
  20739728.441    20739728.825   -24266185.369 9  20814371.461 8
  20857445.333    20857448.227    -1967002.978 9    908658.985 9
 86  6 20  0 22 47.0800000  0  3G 6G 9G11
  20560618.335    20560620.149   -20314480.366 8  27030080.067 7
  20737443.925    20737444.389   -24278189.800 9  20805017.356 7
  20858969.519    20858972.170    -1958988.231 9    914904.232 9
 86  6 20  0 22 53.0800000  0  3G 6G 9G11
  20561568.118    20561569.577   -20309483.581 6  27033973.682 5
  20735162.186    20735163.403   -24290179.227 8  20795674.954 7
  20860496.318    20860501.123    -1950955.435 3    921163.556 3
 86  6 20  0 22 59.0800000  0  3G 6G 9G11
  20562523.168    20562525.914   -20304465.850 9  27037883.588 8
  20545498.345    20786261.547 1
  20862028.686    20862032.870    -1942904.648 6    927436.898 6
 86  6 20  0 23  5.0800000  0  4G 6G 8G 9G11
  20563482.629    20563484.603   -20299427.196 9  27041809.808 7
                  23999467.369   -31635254.605 6
                  20730607.392   -31909007.213 9
  20863565.188    20863568.387    -1934835.864 9    933724.257 8
 86  6 20  0 23 11.0800000  0  4G 6G 8G 9G11
  20564446.338    20564446.980   -20294367.552 9  27045752.378 6
                  24003643.881   -31613249.106 6
                  20728334.881   -31920951.366 9
  20865104.203    20865106.622    -1926749.103 9    940025.625 9
 86  6 20  0 23 17.0800000  0  4G 6G 8G 9G11
  20565413.067    20565414.138   -20289286.888 9  27049711.350 8
                  24007862.525   -31591242.126 5
  20726065.304    20726066.242   -31932880.556 9  40483216.005 7
  20866646.214    20866649.878    -1918644.379 9    946340.989 8
 86  6 20  0 23 23.0800000  0  4G 6G 8G 9G11
  20566384.546    20566385.560   -20284185.205 9  27053686.676 9
  24012050.306    24012052.652   -31569232.327 4  40566449.705 3
  20723798.255    20723800.714   -31944794.581 9  40473932.347 8
  20868191.515    20868195.332    -1910521.643 9    952670.407 8
 86  6 20  0 23 29.0800000  0  4G 6G 8G 9G11
  20567359.388    20567360.160   -20279062.576 9  27057678.341 8
  24016240.365    24016246.274   -31547220.404 4  40583601.810 4
  20721533.543    20721535.979   -31956693.517 9  40464660.949 8
  20869741.929    20869744.244    -1902380.948 9    959013.792 8
 86  6 20  0 23 35.0800000  0  4G 6G 8G 9G11
  20568337.422    20568338.679   -20273919.010 9  27061686.306 8
  24020428.951    24020432.623   -31525206.377 6  40600755.583 2
  20719272.519    20719274.658   -31968577.261 9  40455400.889 8
  20871294.008    20871296.312    -1894222.441 9    965371.069 8
 86  6 20  0 23 41.0800000  0  4G 6G 8G 9G11
  20569319.347    20569321.377   -20268754.441 9  27065710.647 7
  24024619.160    24024624.857   -31503190.262 3  40617910.987 3
  20717013.767    20717016.514   -31980445.926 9  40446152.580 8
  20872850.705    20872852.735    -1886046.060 9    971742.284 8
 86  6 20  0 23 47.0800000  0  4G 6G 8G 9G11
  20570306.352    20570308.740   -20263568.863 9  27069751.358 9
  24028807.813    24028813.028   -31481172.128 5  40635067.982 5
  20714757.847    20714759.653   -31992299.270 9  40436916.207 8
  20874409.927    20874412.272    -1877851.751 9    978127.460 8
 86  6 20  0 23 53.0800000  0  4G 6G 8G 9G11
  20571297.220    20571300.252   -20258362.241 9  27073808.469 9
  24032998.496    24033005.901   -31459151.900 2  40652226.583 4
  20712505.135    20712508.273   -32004137.402 9  40427691.688 7
  20875972.319    20875975.793    -1869639.575 9    984526.549 8
 86  6 20  0 23 59.0800000  0  4G 6G 8G 9G11
  20572291.867    20572295.284   -20253134.625 9  27077881.925 8
  24037188.500    24037193.864   -31437129.614 3  40669386.791 3
  20710255.778    20710258.296   -32015960.251 9  40418479.077 7
  20877539.383    20877541.516    -1861409.554 9    990939.538 8
 86  6 20  0 24  5.0800000  0  4G 6G 8G 9G11
  20573290.934    20573293.265   -20247886.010 9  27081971.749 8
  24041378.119    24041385.951   -31415105.411 2  40686548.491 4
  20708008.243    20708011.518   -32027767.835 9  40409278.355 7
  20879109.126    20879110.126    -1853161.684 9    997366.469 8
 86  6 20  0 24 11.0800000  0  4G 6G 8G 9G11
  20574294.008    20574296.139   -20242616.375 9  27086077.968 8
  24045570.423    24045582.978   -31393079.203 5  40703711.710 3
  20705764.602    20705767.423   -32039560.214 9  40400089.501 8
  20880681.659    20880684.765    -1844896.020 8   1003807.247 9
 86  6 20  0 24 17.0800000  0  4G 6G 8G 9G11
  20575299.457    20575303.419   -20237325.745 9  27090200.530 8
  24049764.409    24049770.161   -31371051.048 3  40720876.533 4
  20703522.830    20703526.279   -32051337.218 9  40390912.613 8
  20882258.125    20882260.190    -1836612.541 9   1010261.895 8
 86  6 20  0 24 23.0800000  0  4G 6G 8G 9G11
                  20576313.977                    27094339.498 8
  24053957.385    24053964.417   -31349021.003 2  40738042.762 3
  20701286.117    20701287.476   -32063098.852 9  40381747.707 8
  20883837.341    20883839.582    -1828311.308 9   1016730.382 8
 86  6 20  0 24 29.0800000  0  4G 6G 8G 9G11
  20577325.708    20577328.785   -20268545.869 3  27098494.836 8
  24058146.938    24058155.651   -31326989.098 4  40755210.510 4
  20699050.349    20699052.327   -32074845.181 8  40372594.722 9
  20885420.714    20885423.709    -1819992.358 9   1023212.689 8
 86  6 20  0 24 35.0800000  0  4G 6G 8G 9G11
  20578343.993    20578348.258   -20263192.271 9  27102666.475 8
  24062341.920    24062352.909   -31304955.378 5  40772379.569 2
  20696817.657    20696821.145   -32086576.204 9  40363453.656 8
  20887007.538    20887010.016    -1811655.760 8   1029708.727 8
 86  6 20  0 24 41.0800000  0  4G 6G 8G 9G11
  20579366.900    20579370.077   -20257817.082 9  27106854.549 8
  24066535.229    24066543.936   -31282919.750 4  40789550.175 2
  20694589.022    20694590.396   -32098291.754 9  40354324.664 8
  20888597.732    20888599.129    -1803301.427 9   1036218.606 7
 86  6 20  0 24 47.0800000  0  4G 6G 8G 9G11
  20580394.228    20580396.674   -20252421.329 8  27111059.023 8
  24070727.414    24070735.808   -31260882.308 3  40806722.219 4
  20692361.727    20692363.749   -32109991.816 9  40345207.726 8
  20890190.400    20890192.696    -1794929.383 9   1042742.270 8
 86  6 20  0 24 53.0800000  0  4G 6G 8G 9G11
  20581425.292    20581427.367   -20247004.563 9  27115279.881 8
  24074920.781    24074931.650   -31238843.001 5  40823895.665 3
                  20690138.450   -32121676.515 9
  20891787.352    20891790.257    -1786539.654 9   1049279.720 9
 86  6 20  0 24 59.0800000  0  4G 6G 8G 9G11
  20582460.304    20582461.836   -20241566.705 9  27119517.174 8
  24079117.251    24079125.438   -31216801.876 4  40841070.574 3
  20687917.696    20687921.684   -32133345.667 9  40382439.423 1
  20893386.432    20893389.224    -1778132.301 9   1055830.916 9
 86  6 20  0 25  5.0800000  0  4G 6G 8G 9G11
  20583499.294    20583501.941   -20236107.763 9  27123770.886 8
  24083314.023    24083317.452   -31194759.037 5  40858246.810 2
  20685700.776    20685702.815   -32144999.274 9  40373358.693 9
  20894990.046    20894992.358    -1769707.232 9   1062395.886 7
 86  6 20  0 25 11.0800000  0  4G 6G 8G 9G11
  20584542.076    20584544.422   -20230627.757 9  27128041.028 8
  24087506.159    24087511.840   -31172714.366 3  40875424.445 1
  20683486.597    20683488.207   -32156637.443 9  40364289.496 8
  20896595.905    20896598.514    -1761264.555 9   1068974.597 9
 86  6 20  0 25 17.0800000  0  4G 6G 8G 9G11
  20585587.691    20585591.484   -20225126.705 9  27132327.563 8
  24091701.334    24091705.356   -31150668.028 5  40892603.443 1
  20681275.172    20681277.130   -32168260.022 9  40355232.947 8
  20898206.251    20898209.017    -1752804.248 9   1075567.045 8
 86  6 20  0 25 23.0800000  0  4G 6G 8G 9G11
  20586639.617    20586641.979   -20219604.556 9  27136630.524 9
  24095895.007    24095906.411   -31128619.944 4  40909783.692 1
  20679065.865    20679068.637   -32179867.108 9  40346188.466 8
  20899818.278    20899822.077    -1744326.369 9   1082173.185 9
 86  6 20  0 25 29.0800000  0  4G 6G 8G 9G11
  20587693.617    20587697.053   -20214061.322 9  27140949.924 8
  24100094.763    24100099.297   -31106570.147 6  40926965.397 1
  20676859.781    20676861.576   -32191458.554 9  40337156.177 8
  20901434.977    20901439.668    -1735830.952 8   1088792.988 8
 86  6 20  0 25 35.0800000  0  4G 6G 8G 9G11
  20588752.970    20588755.904   -20208497.066 9  27145285.698 8
  24104288.381    24104301.465   -31084518.768 4  40944148.219 1
  20674657.320    20674658.947   -32203034.443 9  40328136.002 8
  20903054.597    20903058.660    -1727318.001 9   1095426.444 8
 86  6 20  0 25 41.0800000  0  4G 6G 8G 9G11
  20589816.214    20589818.275   -20202911.671 9  27149637.958 8
  24108485.551    24108492.769   -31062465.646 3  40961332.535 1
                  20672457.383   -32214594.608 9
  20904678.193    20904681.585    -1718787.483 9   1102073.596 8
 86  6 20  0 25 47.0800000  0  4G 6G 8G 9G11
  20590882.893    20590886.341   -20197305.170 9  27154006.658 8
  24112683.991    24112690.127   -31040410.875 3  40978518.100 1
  20670259.636    20670262.098   -32226139.140 9  40365466.849 1
  20906304.752    20906308.892    -1710239.436 9   1108734.423 8
 86  6 20  0 25 53.0800000  0  4G 6G 8G 9G11
  20591954.279    20591955.295   -20191677.617 9  27158391.760 8
                  24116878.809   -31018354.518 2
  20668066.310    20668068.327   -32237668.064 9  40356483.275 8
  20907934.983    20907938.515    -1701673.943 9   1115408.834 9
 86  6 20  0 25 59.0800000  0  4G 6G 8G 9G11
  20593027.969    20593030.088   -20186028.988 9  27162793.290 8
  24121079.167    24121078.545   -30996296.680 3  41041684.403 1
  20665875.983    20665877.431   -32249181.277 9  40347512.448 9
  20909567.833    20909570.578    -1693091.051 9   1122096.792 7
 86  6 20  0 26  5.0800000  0  4G 6G 8G 9G11
  20594107.140    20594109.086   -20180359.307 9  27167211.214 8
  24125274.621    24125283.352   -30974237.258 3  41058873.366 1
  20663688.025    20663689.095   -32260678.784 9  40338553.348 9
  20911204.633    20911208.590    -1684490.772 9   1128798.320 7
 86  6 20  0 26 11.0800000  0  4G 6G 8G 9G11
  20595190.288    20595192.006   -20174668.475 8  27171645.632 8
  24129470.733    24129475.712   -30952176.234 1  41076064.237 1
  20661502.980    20661505.114   -32272160.582 9  40329606.487 8
  20912844.845    20912847.530    -1675873.036 9   1135513.435 7
